[[{"header":{"parameterUnit":"m.s-1","parameterCategory":1,"la1":30.6,"la2":28.766,"lo1":-90.7593,"lo2":-88.6598,"dy":0.0162,"dx":0.0183,"nx":116,"ny":114,"refTime":"2023-09-09T06:00:00:Z","depth":0,"parameterNumber":2,"parameterNumberName":"U-component_of_WINDS"},"data":[0.0,0.0,0.0,0.0,0.0,0.0,0.0,0.0,0.0,0.0,0.0,0.0,0.0,0.0,0.0,0.0,0.0,0.0,0.0,0.0,0.0,0.0,0.0,0.0,0.0,0.0,0.0,0.0,0.0,0.0,0.0,0.0,0.0,0.0,0.0,0.0,0.0,0.0,0.0,0.0,0.0,0.0,0.0,0.0,0.0,0.0,0.0,0.0,0.0,0.0,0.0,0.0,0.0,0.0,0.0,0.0,0.0,0.0,0.0,0.0,0.0,0.0,0.0,0.0,0.0,0.0,0.0,0.0,0.0,0.0,0.0,0.0,0.0,0.0,0.0,0.0,0.0,0.0,0.0,0.0,0.0,0.0,0.0,0.0,0.0,0.0,0.0,0.0,0.0,0.0,0.0,0.0,0.0,0.0,0.0,0.0,0.0,0.0,0.0,0.0,0.0,0.0,0.0,0.0,0.0,0.0,0.0,0.0,0.0,0.0,0.0,0.0,0.0,0.0,0.0,0.0,0.0,0.0,0.0,0.0,0.0,0.0,0.0,0.0,0.0,0.0,0.0,0.0,0.0,0.0,0.0,0.0,0.0,0.0,0.0,0.0,0.0,0.0,0.0,0.0,0.0,0.0,0.0,0.0,0.0,0.0,0.0,0.0,0.0,0.0,0.0,0.0,0.0,0.0,0.0,0.0,0.0,0.0,0.0,0.0,0.0,0.0,0.0,0.0,0.0,0.0,0.0,0.0,0.0,0.0,0.0,0.0,0.0,0.0,0.0,0.0,0.0,0.0,0.0,0.0,0.0,0.0,0.0,0.0,0.0,0.0,0.0,0.0,0.0,0.0,0.0,0.0,0.0,0.0,0.0,0.0,0.0,0.0,0.0,0.0,0.0,0.0,0.0,0.0,0.0,0.0,0.0,0.0,0.0,0.0,0.0,0.0,0.0,0.0,0.0,0.0,0.0,0.0,0.0,0.0,0.0,0.0,0.0,0.0,0.0,0.0,0.0,0.0,0.0,0.0,0.0,0.0,0.0,0.0,0.0,0.0,0.0,0.0,0.0,0.0,0.0,0.0,0.0,0.0,0.0,0.0,0.0,0.0,0.0,0.0,0.0,0.0,0.0,0.0,0.0,0.0,0.0,0.0,0.0,0.0,0.0,0.0,0.0,0.0,0.0,0.0,0.0,0.0,0.0,0.0,0.0,0.0,0.0,0.0,0.0,0.0,0.0,0.0,0.0,0.0,0.0,0.0,0.0,0.0,0.0,0.0,0.0,0.0,0.0,0.0,0.0,0.0,0.0,0.0,0.0,0.0,0.0,0.0,0.0,0.0,0.0,0.0,0.0,0.0,0.0,0.0,0.0,0.0,0.0,0.0,0.0,0.0,0.0,0.0,0.0,0.0,0.0,0.0,0.0,0.0,0.0,0.0,0.0,0.0,0.0,0.0,0.0,0.0,0.0,0.0,0.0,0.0,0.0,0.0,0.0,0.0,0.0,0.0,0.0,0.0,0.0,0.0,0.0,0.0,0.0,0.0,0.0,0.0,0.0,0.0,0.0,0.0,0.0,0.0,0.0,0.0,0.0,0.0,0.0,0.0,0.0,0.0,0.0,0.0,0.0,0.0,0.0,0.0,0.0,0.0,0.0,0.0,0.0,0.0,0.0,0.0,0.0,0.0,0.0,0.0,0.0,0.0,0.0,0.0,0.0,0.0,0.0,0.0,0.0,0.0,0.0,0.0,0.0,0.0,0.0,0.0,0.0,0.0,0.0,0.0,0.0,0.0,0.0,0.0,0.0,0.0,0.0,0.0,0.0,0.0,0.0,0.0,0.0,0.0,0.0,0.0,0.0,0.0,0.0,0.0,0.0,0.0,0.0,0.0,0.0,0.0,0.0,0.0,0.0,0.0,0.0,0.0,0.0,0.0,0.0,0.0,0.0,0.0,0.0,0.0,0.0,0.0,0.0,0.0,0.0,0.0,0.0,0.0,0.0,0.0,0.0,0.0,0.0,0.0,0.0,0.0,0.0,0.0,0.0,0.0,0.0,0.0,0.0,0.0,0.0,0.0,0.0,0.0,0.0,0.0,0.0,0.0,0.0,0.0,0.0,0.0,0.0,0.0,0.0,0.0,0.0,0.0,0.0,0.0,0.0,0.0,0.0,0.0,0.0,0.0,0.0,0.0,0.0,0.0,0.0,0.0,0.0,0.0,0.0,0.0,0.0,0.0,0.0,0.0,0.0,0.0,0.0,0.0,0.0,0.0,0.0,0.0,0.0,0.0,0.0,0.0,0.0,0.0,0.0,0.0,0.0,0.0,0.0,0.0,0.0,0.0,0.0,0.0,0.0,0.0,0.0,0.0,0.0,0.0,0.0,0.0,0.0,0.0,0.0,0.0,0.0,0.0,0.0,0.0,0.0,0.0,0.0,0.0,0.0,0.0,0.0,0.0,0.0,0.0,0.0,0.0,0.0,0.0,0.0,0.0,0.0,0.0,0.0,0.0,0.0,0.0,0.0,0.0,0.0,0.0,0.0,0.0,0.0,0.0,0.0,0.0,0.0,0.0,0.0,0.0,0.0,0.0,0.0,0.0,0.0,0.0,0.0,0.0,0.0,0.0,0.0,0.0,0.0,0.0,0.0,0.0,0.0,0.0,0.0,0.0,0.0,0.0,0.0,0.0,0.0,0.0,0.0,0.0,0.0,0.0,0.0,0.0,0.0,0.0,0.0,0.0,0.0,0.0,0.0,0.0,0.0,0.0,0.0,0.0,0.0,0.0,0.0,0.0,0.0,0.0,0.0,0.0,0.0,0.0,0.0,0.0,0.0,0.0,0.0,0.0,0.0,0.0,0.0,0.0,0.0,0.0,0.0,0.0,0.0,0.0,0.0,0.0,0.0,0.0,0.0,0.0,0.0,0.0,0.0,0.0,0.0,0.0,0.0,0.0,0.0,0.0,0.0,0.0,0.0,0.0,0.0,0.0,0.0,0.0,0.0,0.0,0.0,0.0,0.0,0.0,0.0,0.0,0.0,0.0,0.0,0.0,0.0,0.0,0.0,0.0,0.0,0.0,0.0,0.0,0.0,0.0,0.0,0.0,0.0,0.0,0.0,0.0,0.0,0.0,0.0,0.0,0.0,0.0,0.0,0.0,0.0,0.0,0.0,0.0,0.0,0.0,0.0,0.0,0.0,0.0,0.0,0.0,0.0,0.0,0.0,0.0,0.0,0.0,0.0,0.0,0.0,0.0,0.0,0.0,0.0,0.0,0.0,0.0,0.0,0.0,0.0,0.0,0.0,0.0,0.0,0.0,0.0,0.0,0.0,0.0,0.0,0.0,0.0,0.0,0.0,0.0,0.0,0.0,0.0,0.0,0.0,0.0,0.0,0.0,0.0,0.0,0.0,0.0,0.0,0.0,0.0,0.0,0.0,0.0,0.0,0.0,0.0,0.0,0.0,0.0,0.0,0.0,0.0,0.0,0.0,0.0,0.0,0.0,0.0,0.0,0.0,0.0,0.0,0.0,0.0,0.0,0.0,0.0,0.0,0.0,0.0,0.0,0.0,0.0,0.0,0.0,0.0,0.0,0.0,0.0,0.0,0.0,0.0,0.0,0.0,0.0,0.0,0.0,0.0,0.0,0.0,0.0,0.0,0.0,0.0,0.0,0.0,0.0,0.0,0.0,0.0,0.0,0.0,0.0,0.0,0.0,0.0,0.0,0.0,0.0,0.0,0.0,0.0,0.0,0.0,0.0,0.0,0.0,0.0,0.0,0.0,0.0,0.0,0.0,0.0,0.0,0.0,0.0,0.0,0.0,0.0,0.0,0.0,0.0,0.0,0.0,0.0,0.0,0.0,0.0,0.0,0.0,0.0,0.0,0.0,0.0,0.0,0.0,0.0,0.0,0.0,0.0,0.0,0.0,0.0,0.0,0.0,0.0,0.0,0.0,0.0,0.0,0.0,0.0,0.0,0.0,0.0,0.0,0.0,0.0,0.0,0.0,0.0,0.0,0.0,0.0,0.0,0.0,0.0,0.0,0.0,0.0,0.0,0.0,0.0,0.0,0.0,0.0,0.0,0.0,0.0,0.0,0.0,0.0,0.0,0.0,0.0,0.0,0.0,0.0,0.0,0.0,0.0,0.0,0.0,0.0,0.0,0.0,0.0,0.0,0.0,0.0,0.0,0.0,0.0,0.0,0.0,0.0,0.0,0.0,0.0,0.0,0.0,0.0,0.0,0.0,0.0,0.0,0.0,0.0,0.0,0.0,0.0,0.0,0.0,0.0,0.0,0.0,0.0,0.0,0.0,0.0,0.0,0.0,0.0,0.0,0.0,0.0,0.0,0.0,0.0,0.0,0.0,0.0,0.0,0.0,0.0,0.0,0.0,0.0,0.0,0.0,0.0,0.0,0.0,0.0,0.0,0.0,0.0,0.0,0.0,0.0,0.0,0.0,0.0,0.0,0.0,0.0,0.0,0.0,0.0,0.0,0.0,0.0,0.0,0.0,0.0,0.0,0.0,0.0,0.0,0.0,0.0,0.0,0.0,0.0,0.0,0.0,0.0,0.0,0.0,0.0,0.0,0.0,0.0,0.0,0.0,0.0,0.0,0.0,0.0,0.0,0.0,0.0,0.0,0.0,0.0,0.0,0.0,0.0,0.0,0.0,0.0,0.0,0.0,0.0,0.0,0.0,0.0,0.0,0.0,0.0,0.0,0.0,0.0,0.0,0.0,0.0,0.0,0.0,0.0,0.0,0.0,0.0,0.0,0.0,0.0,0.0,0.0,0.0,0.0,0.0,0.0,0.0,0.0,0.0,0.0,0.0,0.0,0.0,0.0,0.0,0.0,0.0,0.0,0.0,0.0,0.0,0.0,0.0,0.0,0.0,0.0,0.0,0.0,0.0,0.0,0.0,0.0,0.0,0.0,0.0,0.0,0.0,0.0,0.0,0.0,0.0,0.0,0.0,0.0,0.0,0.0,0.0,0.0,0.0,0.0,0.0,0.0,0.0,0.0,0.0,0.0,0.0,0.0,0.0,0.0,0.0,0.0,0.0,0.0,0.0,0.0,0.0,0.0,0.0,0.0,0.0,0.0,0.0,0.0,0.0,0.0,0.0,0.0,0.0,0.0,0.0,0.0,0.0,0.0,0.0,0.0,0.0,0.0,0.0,0.0,0.0,0.0,0.0,0.0,0.0,0.0,0.0,0.0,0.0,0.0,0.0,0.0,0.0,0.0,0.0,0.0,0.0,0.0,0.0,0.0,0.0,0.0,0.0,0.0,0.0,0.0,0.0,0.0,0.0,0.0,0.0,0.0,0.0,0.0,0.0,0.0,0.0,0.0,0.0,0.0,0.0,0.0,0.0,0.0,0.0,0.0,0.0,0.0,0.0,0.0,0.0,0.0,0.0,0.0,0.0,0.0,0.0,0.0,0.0,0.0,0.0,0.0,0.0,0.0,0.0,0.0,0.0,0.0,0.0,0.0,0.0,0.0,0.0,0.0,0.0,0.0,0.0,0.0,0.0,0.0,0.0,0.0,0.0,0.0,0.0,0.0,0.0,0.0,0.0,0.0,0.0,0.0,0.0,0.0,0.0,0.0,0.0,0.0,0.0,0.0,0.0,0.0,0.0,0.0,0.0,0.0,0.0,0.0,0.0,0.0,0.0,0.0,0.0,0.0,0.0,0.0,0.0,0.0,0.0,0.0,0.0,0.0,0.0,0.0,0.0,0.0,0.0,0.0,0.0,0.0,0.0,0.0,0.0,0.0,0.0,0.0,0.0,0.0,0.0,0.0,0.0,0.0,0.0,0.0,0.0,0.0,0.0,0.0,0.0,0.0,0.0,0.0,0.0,0.0,0.0,0.0,0.0,0.0,0.0,0.0,0.0,0.0,0.0,0.0,0.0,0.0,0.0,0.0,0.0,0.0,0.0,0.0,0.0,0.0,0.0,0.0,0.0,0.0,0.0,0.0,0.0,0.0,0.0,0.0,0.0,0.0,0.0,0.0,0.0,0.0,0.0,0.0,0.0,0.0,0.0,0.0,0.0,0.0,0.0,0.0,0.0,0.0,0.0,0.0,0.0,0.0,0.0,0.0,0.0,0.0,0.0,0.0,0.0,-2.4188,0.0,0.0,0.0,0.0,0.0,0.0,0.0,0.0,0.0,0.0,0.0,0.0,0.0,0.0,0.0,0.0,0.0,0.0,0.0,0.0,0.0,0.0,0.0,0.0,0.0,0.0,0.0,0.0,0.0,0.0,0.0,0.0,0.0,0.0,0.0,0.0,0.0,0.0,0.0,2.3354,2.1211,1.7591,1.5464,1.2904,1.0122,0.0,0.0,0.0,0.0,0.0,0.0,0.0,0.0,0.0,0.0,0.0,0.0,0.0,0.0,0.0,0.0,0.0,0.0,0.0,0.0,0.0,0.0,0.0,0.0,0.0,0.0,0.0,0.0,0.0,0.0,0.0,0.0,0.0,0.0,0.0,0.0,0.0,0.0,0.0,0.0,0.0,0.0,0.0,0.0,0.0,0.0,0.0,0.0,0.0,0.0,0.0,0.0,0.0,0.0,0.0,0.0,0.0,0.0,0.0,0.0,0.0,0.0,0.0,0.0,0.0,0.0,0.0,0.0,0.0,0.0,0.0,-2.3594,0.0,0.0,0.0,0.0,0.0,0.0,0.0,0.0,0.0,0.0,0.0,0.0,0.0,0.0,0.0,0.0,0.0,0.0,0.0,0.0,0.0,0.0,0.0,0.0,2.4209,2.4247,2.417,0.0,0.0,0.0,0.0,0.0,0.0,0.0,0.0,2.4759,2.4205,2.3776,2.2332,2.0182,1.7265,1.1422,0.8437,0.7982,0.76,0.0,0.0,0.0,0.0,0.0,0.0,0.0,0.0,0.0,0.0,0.0,0.0,0.0,0.0,0.0,0.0,0.0,0.0,0.0,0.0,0.0,0.0,0.0,0.0,0.0,0.0,0.0,0.0,0.0,0.0,0.0,0.0,0.0,0.0,0.0,0.0,0.0,0.0,0.0,0.0,0.0,0.0,0.0,0.0,0.0,0.0,0.0,0.0,0.0,0.0,0.0,0.0,0.0,0.0,0.0,0.0,0.0,0.0,0.0,0.0,0.0,0.0,0.0,0.0,-3.1175,-3.1347,-3.1344,-3.0759,-2.9536,-2.7101,-2.5006,-2.3255,0.0,0.0,0.0,0.0,0.0,0.0,0.0,0.0,0.0,0.0,0.0,0.0,0.0,0.0,0.0,0.0,0.0,0.0,0.0,0.0,0.0,0.0,2.4321,2.4266,2.4462,2.402,2.406,0.0,0.0,0.0,0.0,0.0,0.0,2.5403,2.4745,2.4043,2.329,1.9675,1.9407,2.2015,1.357,1.1721,1.5337,1.0315,0.8446,0.8971,0.0,0.0,0.0,0.0,0.0,0.0,0.0,0.0,0.0,0.0,0.0,0.0,0.0,0.0,0.0,0.0,0.0,0.0,0.0,0.0,0.0,0.0,0.0,0.0,0.0,0.0,0.0,0.0,0.0,0.0,0.0,0.0,0.0,0.0,0.0,0.0,0.0,0.0,0.0,0.0,0.0,-2.6219,-2.5651,0.0,0.0,0.0,0.0,0.0,0.0,0.0,0.0,0.0,0.0,0.0,0.0,0.0,0.0,-3.3403,-3.4338,-3.4206,-3.3096,-3.4345,-3.4014,-3.2253,-3.2267,-3.1912,-3.1176,-3.0855,0.0,-2.4336,-2.3581,0.0,0.0,0.0,0.0,0.0,0.0,0.0,0.0,0.0,0.0,0.0,0.0,0.0,0.0,0.0,0.0,0.0,0.0,0.0,0.0,0.0,2.4446,2.505,2.5356,2.6494,2.6752,2.5746,0.0,0.0,0.0,0.0,2.5461,2.5518,2.5072,2.4682,2.4329,2.2297,2.2038,2.3363,1.7333,1.5361,1.6612,1.25,0.9719,0.8101,0.9156,0.0,0.0,0.0,0.0,0.0,0.0,0.0,0.0,0.0,0.0,0.0,0.0,0.0,0.0,0.0,0.0,0.0,0.0,0.0,0.0,0.0,0.0,0.0,0.0,0.0,0.0,0.0,0.0,0.0,0.0,0.0,0.0,0.0,0.0,0.0,0.0,0.0,0.0,0.0,-2.6964,-2.8156,-2.6621,-2.8338,-2.9029,0.0,0.0,0.0,0.0,0.0,0.0,0.0,0.0,0.0,-3.3837,-3.4233,-3.4801,-3.5559,-3.6052,-3.6152,-3.5858,-3.6174,-3.6031,-3.5435,-3.5442,-3.5076,-3.4414,-3.4051,-3.2064,-2.8912,-2.6642,-2.462,-2.2877,0.0,0.0,0.0,0.0,0.0,-2.3639,0.0,0.0,0.0,0.0,0.0,0.0,0.0,0.0,0.0,0.0,0.0,0.0,2.3774,2.4994,2.6185,2.7061,2.8629,2.8826,2.7175,2.7537,0.0,0.0,2.5313,2.5421,2.5441,2.5375,2.5632,2.6275,2.5288,2.5135,2.5661,2.0791,1.8502,1.8404,1.4338,1.075,0.7845,0.8663,0.7513,0.5166,0.0,0.0,0.0,0.0,0.0,0.0,0.0,0.0,0.0,0.0,0.0,0.0,0.0,0.0,0.0,0.0,0.0,0.0,0.0,0.0,0.0,0.0,0.0,0.0,0.0,0.0,0.0,0.0,0.0,0.0,0.0,0.0,0.0,0.0,0.0,0.0,0.0,-2.8397,-2.9755,-2.7357,-3.017,-3.1313,0.0,0.0,0.0,0.0,0.0,0.0,-3.3093,-3.4278,-3.5419,-3.6354,-3.6804,-3.7433,-3.8202,-3.8036,-3.807,-3.8355,-3.7677,-3.7496,-3.7801,-3.7818,-3.7404,-3.6669,-3.6163,-3.4876,-3.283,-2.9501,-2.701,-2.5259,-2.4446,-2.4103,-2.4073,-2.3736,-2.4044,-2.4563,0.0,0.0,0.0,0.0,0.0,0.0,0.0,0.0,0.0,0.0,0.0,2.3573,2.5202,2.6126,2.7554,2.9789,2.9112,2.8644,2.8865,2.6686,2.5542,2.5925,2.5473,2.5166,2.503,2.5464,2.6817,2.9187,2.6819,2.756,3.1036,2.3009,2.0944,2.3675,1.5711,1.1073,0.9009,0.7767,0.6867,0.6169,0.5226,0.0,0.0,0.0,0.0,0.0,0.0,0.0,0.0,0.0,0.0,0.0,0.0,0.0,0.0,0.0,0.0,0.0,0.0,0.0,0.0,0.0,0.0,0.0,0.0,0.0,0.0,0.0,0.0,0.0,0.0,0.0,0.0,0.0,0.0,0.0,0.0,0.0,0.0,-2.7155,-3.1854,0.0,0.0,0.0,0.0,-3.2217,-3.3905,-3.511,-3.5409,-3.6899,-3.8379,-3.9787,-4.0567,-4.1281,-4.1996,-4.1325,-4.0629,-3.9986,-3.9194,-3.8472,-3.7802,-3.7785,-3.7411,-3.6685,-3.6653,-3.5843,-3.4211,-3.0908,-2.8714,-2.7333,-2.6001,-2.5484,-2.5435,-2.4762,-2.4941,-2.5362,0.0,0.0,0.0,0.0,0.0,0.0,0.0,0.0,0.0,2.2867,2.3632,2.4597,2.5471,2.7823,2.9982,3.159,3.2201,3.2164,3.1379,2.9289,2.7959,2.7624,2.6596,2.6587,2.7742,2.8299,2.9412,3.108,3.1204,3.1582,3.2129,2.6481,2.2894,2.0928,1.5968,1.1522,0.7812,0.9147,0.818,0.5549,0.3845,0.2188,0.0,0.0,0.0,0.0,0.0,0.0,0.0,0.0,0.0,0.0,0.0,0.0,0.0,0.0,0.0,0.0,0.0,0.0,0.0,0.0,0.0,0.0,0.0,0.0,0.0,0.0,0.0,0.0,0.0,0.0,0.0,0.0,0.0,0.0,0.0,0.0,0.0,-3.0921,-3.4031,0.0,-3.2497,-3.3512,-3.4337,-3.4442,-3.6396,-3.7886,-3.8463,-3.9933,-4.0945,-4.1472,-4.1782,-4.2021,-4.2277,-4.1555,-4.107,-4.0815,-4.0037,-3.9547,-3.9261,-3.9261,-3.8623,-3.7453,-3.7494,-3.6597,-3.5053,-3.2543,-3.1246,-3.0616,-2.8379,-2.7512,-2.7348,-2.5834,-2.5663,-2.6201,0.0,0.0,0.0,0.0,0.0,0.0,0.0,0.0,2.2912,2.2207,2.3444,2.4833,2.6034,2.9179,3.1894,3.3562,3.3948,3.3615,3.2497,2.9867,2.8135,2.768,2.7121,2.7606,2.9308,3.0246,3.14,3.2816,3.3349,3.3024,3.1743,2.785,2.3585,1.9061,1.5654,1.2017,0.8514,0.9672,0.8723,0.6298,0.4061,0.2509,0.157,0.0,0.0,0.0,0.0,0.0,0.0,0.0,0.0,0.0,0.0,0.0,0.0,0.0,0.0,0.0,0.0,0.0,0.0,0.0,0.0,0.0,0.0,0.0,0.0,0.0,0.0,0.0,0.0,0.0,0.0,0.0,0.0,0.0,0.0,0.0,-3.4822,-3.3271,-3.5922,-3.6928,-3.4398,-3.5705,-3.6767,-3.677,-3.9076,-4.057,-4.0818,-4.2245,-4.3048,-4.3048,-4.3048,-4.2931,-4.2663,-4.1937,-4.1474,-4.1206,-4.0426,-4.007,-4.007,-3.9817,-3.904,-3.7911,-3.7621,-3.6806,-3.5493,-3.3889,-3.3142,-3.2637,-2.9724,-2.8571,-2.8419,-2.6864,-2.6582,-2.6856,0.0,0.0,0.0,0.0,0.0,0.0,0.0,2.2539,2.184,2.1118,2.2338,2.4278,2.6981,3.0213,3.3199,3.5707,3.4065,3.2695,3.2165,2.8091,2.5813,2.6064,2.6955,2.811,2.9529,3.1012,3.2655,3.4447,3.3072,3.1636,3.0129,2.6821,2.3047,1.8882,1.4801,1.2343,1.1074,0.8782,0.8049,0.8157,0.6043,0.4827,0.3901,0.0,0.0,0.0,0.0,0.0,0.0,0.0,0.0,0.0,0.0,0.0,0.0,0.0,0.0,0.0,0.0,0.0,0.0,0.0,0.0,0.0,0.0,0.0,0.0,0.0,0.0,0.0,0.0,0.0,0.0,0.0,0.0,0.0,-3.061,-3.4278,-3.6202,-3.3856,-3.7453,-3.8975,-3.6074,-3.9051,-4.0622,-3.9211,-4.1782,-4.3107,-4.2395,-4.377,-4.457,-4.4536,-4.4536,-4.4181,-4.3386,-4.2614,-4.189,-4.1187,-4.0443,-4.007,-4.0054,-3.9343,-3.8616,-3.7872,-3.7127,-3.6366,-3.5554,-3.4752,-3.4035,-3.3186,-2.9964,-2.8656,-2.8517,-2.7844,-2.756,-2.7375,0.0,0.0,0.0,0.0,0.0,0.0,0.0,2.2105,2.149,2.1444,2.3378,2.5779,2.8281,3.1938,3.4814,3.6371,3.4301,3.2846,3.2761,2.8333,2.6373,2.789,2.8338,2.9983,3.3027,3.3273,3.3997,3.5265,3.4347,3.2907,3.0988,2.6852,2.2299,1.7398,1.3932,1.0708,0.7754,0.5459,0.3635,0.2676,0.5748,0.4703,0.1073,0.0,0.0,0.0,0.0,0.0,0.0,0.0,0.0,0.0,0.0,0.0,0.0,0.0,0.0,0.0,0.0,0.0,0.0,0.0,0.0,0.0,0.0,0.0,0.0,0.0,0.0,0.0,0.0,0.0,0.0,0.0,0.0,-3.4889,-3.4427,-3.6364,-3.7749,-3.7465,-3.9008,-3.9952,-3.9679,-4.0572,-4.1268,-4.1405,-4.2617,-4.3299,-4.3098,-4.4045,-4.4355,-4.3745,-4.3707,-4.3369,-4.2608,-4.1861,-4.1388,-4.1187,-4.0443,-4.007,-4.007,-3.9868,-3.9089,-3.7889,-3.7686,-3.6857,-3.5414,-3.3288,-3.2301,-3.2031,-3.102,-2.9784,-2.8499,-2.7801,-2.6935,-2.6009,0.0,0.0,0.0,0.0,0.0,0.0,0.0,2.1826,2.1146,2.1086,2.3597,2.6147,2.8091,3.1389,3.3829,3.4787,3.2728,3.1098,3.046,2.7639,2.6559,2.78,2.9513,3.1476,3.3736,3.439,3.5032,3.5676,3.4357,3.2454,2.9945,2.5694,2.0772,1.5303,1.1734,0.8218,0.487,0.1752,-0.07,-0.2246,0.0153,0.0357,-0.0919,-0.1855,-0.4021,-0.6653,-0.644,-0.6576,-0.715,-0.9658,0.0,0.0,0.0,0.0,0.0,0.0,0.0,0.0,0.0,0.0,0.0,0.0,0.0,0.0,0.0,0.0,0.0,0.0,0.0,0.0,0.0,0.0,0.0,0.0,-3.5349,-3.7525,-3.8132,-3.877,-3.9276,-3.9438,-3.985,-4.0392,-4.1135,-4.1473,-4.1811,-4.2269,-4.3294,-4.3773,-4.344,-4.413,-4.4198,-4.3457,-4.3376,-4.2884,-4.1847,-4.1426,-4.107,-4.073,-4.029,-4.007,-4.0054,-3.9445,-3.87,0.0,-3.7229,-3.6451,-3.5431,-3.328,-3.2237,0.0,0.0,0.0,0.0,0.0,-2.6314,-2.5186,0.0,0.0,0.0,0.0,0.0,0.0,0.0,2.1632,2.0781,2.0416,2.319,2.5654,2.6883,2.9504,3.1462,3.2135,3.0415,2.8532,2.6748,2.651,2.6586,2.6971,3.0414,3.2558,3.307,3.4812,3.5701,3.5682,3.3377,3.0715,2.772,2.3674,1.8765,1.3294,0.8844,0.4794,0.1181,-0.2609,-0.5584,-0.7825,-0.8537,-0.6625,-0.3503,-0.4941,-0.6966,-0.9041,-0.8829,-0.9017,-0.9603,-1.1625,0.0,0.0,0.0,0.0,0.0,0.0,0.0,0.0,0.0,0.0,0.0,0.0,0.0,0.0,0.0,0.0,0.0,0.0,0.0,0.0,0.0,0.0,0.0,0.0,-3.7192,-3.9542,-4.1194,-4.1052,-4.0578,-4.0218,-4.0189,-4.0493,-4.1255,-4.1982,-4.2455,-4.254,-4.3809,-4.4282,-4.3589,0.0,0.0,0.0,0.0,-4.2465,-4.1085,-4.1053,-4.0764,-4.007,-4.007,-4.007,-4.002,-3.865,-3.799,-3.7821,-3.6383,-3.569,-3.5464,-3.3938,-3.282,-3.1905,-2.9308,-2.7592,-2.6561,-2.6411,-2.5564,0.0,0.0,0.0,0.0,0.0,0.0,0.0,0.0,2.1225,2.0487,2.0813,2.2676,2.443,2.5776,2.8662,3.0797,3.1503,3.0183,2.8268,2.5833,2.6233,2.7218,2.8663,3.0724,3.2775,3.4769,3.5498,3.5552,3.4916,3.1627,2.8633,2.5888,2.0783,1.6773,1.3534,0.6518,-0.0642,-0.767,-0.9424,-1.3431,-1.8387,-1.5255,-1.302,-1.151,-1.1378,-1.1009,-1.0527,-1.0052,-1.0082,-1.0615,-1.2788,-1.3029,-1.3146,-1.6823,-1.7343,0.0,0.0,0.0,0.0,0.0,0.0,0.0,0.0,0.0,0.0,0.0,0.0,0.0,0.0,0.0,0.0,0.0,0.0,0.0,-3.729,-3.9415,-4.0901,-4.1622,-4.1623,-4.1376,-4.081,-4.0914,-4.1271,-4.2016,-4.276,-4.347,-4.4096,-4.4401,-4.4519,-4.4367,-4.391,0.0,-4.254,-4.1933,-4.1188,-4.0307,-4.0307,-4.0239,-4.007,0.0,0.0,-4.0054,-3.9174,-3.8464,-3.7855,-3.6958,-3.6197,-3.5414,-3.2943,-3.1186,-2.9816,-2.7701,-2.6746,-2.638,-2.5379,-2.449,-2.3903,0.0,0.0,0.0,0.0,0.0,0.0,0.0,2.1334,2.083,2.0682,2.2465,2.4087,2.4951,2.6753,2.8111,2.87,2.6695,2.5268,2.4963,2.5071,2.5848,2.7498,3.0344,3.2162,3.2692,3.4415,3.4829,3.3839,2.9486,2.5798,2.275,1.8444,1.4053,0.9438,0.2164,-0.4484,-1.045,-1.413,-1.7547,-2.046,-1.9028,-1.8135,-1.7342,-1.4614,-1.324,-1.2689,-1.2219,-1.1999,-1.2204,-1.3766,-1.4076,-1.4135,-1.6227,-1.672,-1.6978,0.0,0.0,0.0,0.0,0.0,0.0,0.0,0.0,0.0,0.0,0.0,0.0,0.0,0.0,-2.9547,0.0,0.0,-3.605,-3.9046,-4.076,-4.1845,-4.2221,-4.1979,-4.1508,-4.0577,-4.0917,-4.1491,-4.2219,-4.298,-4.3741,-4.4519,-4.4587,-4.4587,-4.4587,-4.3842,-4.3064,-4.2303,-4.1576,-4.0849,-4.0087,-4.007,-4.007,-4.007,-4.007,-4.007,-4.0054,-3.9326,-3.8599,-3.7872,-3.711,-3.6129,-3.4884,-3.2829,-3.1116,-2.9778,-2.8415,-2.7719,-2.7299,-2.6061,-2.498,-2.4197,0.0,0.0,0.0,0.0,0.0,0.0,0.0,0.0,2.1102,2.0366,2.2195,2.3636,2.3896,2.4681,2.5348,2.5727,2.3511,2.2762,2.4398,2.3776,2.4028,2.5427,2.9264,3.088,2.9784,3.3149,3.334,3.0139,2.4818,2.063,1.7358,1.4097,0.9468,0.3708,-0.3114,-0.8783,-1.3431,-1.8333,-2.0565,-2.095,-2.1967,-2.2155,-2.133,-1.6999,-1.5214,-1.4954,-1.4338,-1.3754,-1.3459,-1.428,-1.4424,-1.4338,-1.4945,-1.5485,-1.616,-1.7794,-1.8819,0.0,0.0,0.0,0.0,0.0,0.0,0.0,0.0,0.0,-2.7769,-2.8576,-3.0246,-3.205,-3.352,-3.5729,-3.8117,-4.0381,-4.1752,-4.2519,-4.2526,-4.2121,-4.1375,-4.0254,-4.0747,-4.1491,-4.2219,-4.298,-4.3741,-4.4519,-4.4587,-4.4587,-4.4587,-4.3707,-4.2912,-4.2303,-4.1441,-4.0696,-4.0087,-4.007,-4.007,-4.007,-4.007,-4.0003,-3.9834,-3.9106,-3.8379,-3.7635,-3.6738,-3.5425,-3.3818,-3.2722,-3.1556,-3.0309,-2.9608,-2.9022,-2.8451,-2.7238,-2.5946,-2.486,0.0,0.0,0.0,0.0,0.0,0.0,0.0,0.0,0.0,2.0314,2.148,2.2167,2.187,2.3159,2.4217,2.4548,2.433,2.4229,2.4388,2.3081,2.2822,2.4072,2.7051,2.8682,2.8598,3.3242,3.0518,1.9956,1.4213,1.0056,0.75,0.4018,0.088,-0.213,-0.8493,-1.567,-2.2929,-2.3501,-2.451,-2.5728,-2.5859,-2.4878,-2.2967,-2.0,-1.8164,-1.6853,-1.5264,-1.4041,-1.3241,-1.3907,-1.3754,-1.3459,-1.48,-1.4932,-1.5274,-1.8634,-2.004,-2.1035,-2.3467,-2.4298,-2.4949,-2.682,-2.6881,-2.7401,0.0,0.0,-3.1091,-3.1898,-3.3102,-3.4407,-3.5711,-3.759,-3.9636,-4.1745,-4.2803,-4.3014,-4.2044,-4.1835,-4.1375,-4.0254,-4.0747,-4.1491,-4.2219,-4.298,-4.3741,-4.4519,-4.4587,-4.4587,-4.4587,-4.32,-4.2388,-4.2286,-4.0933,-4.0155,-4.007,-4.007,-4.007,-4.007,-4.007,-3.9732,-3.9089,-3.8362,-3.7618,-3.6823,-3.5368,-3.3604,-3.1769,-3.216,-3.1524,-3.0264,-2.9636,-2.9355,-2.9132,-2.7875,-2.6572,-2.542,0.0,0.0,0.0,0.0,0.0,0.0,0.0,0.0,0.0,0.0,2.0968,2.1408,2.1228,2.199,2.2638,2.3022,2.2274,2.1939,2.2267,2.1093,2.0081,1.9407,2.5078,2.4284,1.5612,2.326,2.1506,0.9532,0.5728,0.1316,-0.3601,-0.3808,-0.5565,-0.8848,-1.6148,-2.1015,-2.3961,-2.5429,-2.6092,-2.6017,-2.5438,-2.4049,-2.2003,-1.9286,-1.7346,-1.5828,-1.4014,-1.3103,0.0,-1.2534,-1.2609,-1.2899,-1.3451,-1.3632,-1.4099,-1.6435,-1.8046,-1.9679,-2.2476,-2.4707,0.0,0.0,-2.8458,-2.9832,-3.1527,-3.1997,-3.2192,-3.254,-3.3744,-3.5203,-3.6714,-3.8052,-3.9666,0.0,-4.258,-4.2577,-4.1908,-4.181,-4.1218,-3.9676,-4.0104,-4.0849,-4.1593,-4.2337,-4.2895,-4.3217,-4.3656,-4.3707,-4.3267,-4.2642,-4.21,-4.1677,-4.0629,-4.007,-4.007,-4.007,-4.007,-4.007,-4.007,-3.9698,-3.8988,-3.8684,-3.7652,-3.6028,-3.4506,-3.3111,-3.1918,-3.1736,-3.1341,-3.074,-3.0166,-2.9935,-2.9717,-2.8143,-2.6707,-2.5555,0.0,0.0,0.0,0.0,0.0,0.0,0.0,0.0,0.0,0.0,0.0,2.0387,2.0325,2.0687,2.0971,2.1091,2.0146,1.9777,2.034,1.8279,1.6574,1.5441,2.2536,2.1812,1.1738,1.3288,0.8047,-0.4485,-0.4577,-0.7544,-1.2966,-1.0605,-1.1444,-1.5041,-2.0919,-2.3667,-2.3985,-2.5698,-2.6127,-2.5506,-2.4494,-2.2981,-2.0963,-1.8197,-1.6242,-1.4679,-1.2729,-1.1946,-1.1693,-1.0934,-1.1149,-1.1819,-1.1886,-1.2175,-1.2824,-1.4542,-1.698,-1.9729,-2.2623,0.0,0.0,-2.8601,-3.0268,-3.1931,-3.2593,-3.3021,-3.322,-3.2981,-3.4018,-3.5312,-3.6285,-3.7331,-3.8836,-4.124,-4.1827,-4.1922,-4.1837,-4.1616,-4.092,-3.9457,-3.9411,-3.9851,-4.0798,-4.1559,-4.2066,-4.2269,-4.2794,-4.2861,-4.232,-4.21,-4.1745,-4.1221,-4.046,-4.007,-4.007,-4.007,-4.007,-4.007,-3.9868,-3.9394,-3.8684,-3.8261,-3.6941,-3.4945,-3.3863,-3.2747,-3.1664,-3.1326,-3.0977,-3.0593,-3.0227,-2.9864,-2.9366,-2.7883,-2.6717,-2.5817,0.0,0.0,0.0,0.0,0.0,0.0,0.0,0.0,0.0,0.0,0.0,0.0,0.0,1.9117,1.9239,1.8673,1.8717,1.8992,1.9334,1.4706,1.2437,1.35,1.9066,2.3045,2.5065,0.6173,-1.0311,-2.3751,-1.8281,-1.6927,-1.927,-1.6598,-1.7098,-2.0206,-2.0886,-2.2589,-2.4933,-2.4511,-2.4615,-2.4936,-2.4077,-2.2584,-2.0503,-1.7628,-1.567,-1.4185,-1.2146,-1.0734,-0.9825,-0.9191,-0.9408,-0.994,-1.0317,-1.0641,-1.1386,-1.3978,-1.818,-2.2634,-2.5285,0.0,-2.9576,-3.1863,-3.2496,-3.3201,-3.5605,-3.5532,-3.4697,-3.3917,-3.4431,-3.477,-3.4045,-3.5257,-3.7147,-3.957,-4.0634,-4.1285,-4.1724,-4.118,-4.056,-4.0135,-3.8819,-3.8531,0.0,-4.0798,-4.1525,-4.2236,-4.2303,-4.232,-4.2286,-4.1627,-4.1221,-4.1204,-4.046,-4.007,-4.007,-4.007,-4.007,-4.007,-3.936,-3.865,-3.7889,-3.64,-3.4912,-3.3474,-3.3423,-3.2171,-3.0226,-3.0903,-3.0442,-2.9264,-2.9399,-2.8661,-2.7534,-2.6877,-2.6579,-2.6406,0.0,0.0,0.0,0.0,0.0,0.0,0.0,0.0,0.0,0.0,0.0,0.0,0.0,0.0,0.0,0.0,1.7203,1.7252,1.7629,1.4687,1.1974,0.9731,1.7213,1.7645,0.9546,0.5392,-0.2682,-1.4982,-1.8549,-2.1049,-2.2548,-2.2506,-2.2953,-2.3839,-2.385,-2.4521,-2.5528,-2.4658,-2.4013,-2.3444,-2.17,-1.9623,-1.7248,-1.557,-1.3898,-1.2378,0.0,-1.0995,-0.9924,-0.8669,-0.8751,-0.9516,-1.0133,-1.0569,-1.1717,-1.5873,-1.9431,-2.2697,-2.5463,-2.8917,-3.2013,-3.3104,-3.4229,-3.5275,-3.6101,-3.522,-3.3825,-3.2467,-3.2008,-3.1733,-3.1458,-3.2742,-3.4651,-3.711,-3.9074,-4.0568,-4.1402,-4.1492,-4.0866,-3.9336,-3.9296,0.0,0.0,0.0,0.0,-4.0764,-4.1288,-4.1356,-4.0849,-4.1068,-4.0984,-4.0476,-4.0206,-4.007,-4.007,-4.007,-4.007,-4.007,-3.8853,-3.8142,-3.7855,-3.6315,-3.481,-3.3406,-3.3406,-3.2425,-3.0852,-3.1089,-3.0943,-3.0436,-2.9626,-2.903,-2.8442,-2.7007,-2.615,-2.5697,0.0,0.0,0.0,0.0,0.0,0.0,0.0,0.0,0.0,0.0,0.0,0.0,0.0,0.0,0.0,0.0,0.0,1.5204,1.5849,1.3982,1.1958,0.9879,1.7064,1.6839,0.7676,0.6705,0.1091,-0.9493,-1.8337,-2.3394,-2.4755,-2.4799,-2.5084,-2.5487,-2.5037,-2.4826,-2.4755,-2.349,-2.238,-2.1373,-1.9219,-1.7334,-1.5587,-1.4501,-1.347,0.0,-1.219,-1.1832,-1.1226,-0.9508,-0.9586,-1.0572,-1.1146,-1.1757,-1.2989,-1.6678,-1.9889,-2.2937,-2.6086,-3.0265,-3.3944,-3.4666,-3.5564,-3.6211,-3.5917,-3.4339,-3.2485,-3.087,-2.9898,-2.9255,-2.898,-2.9989,-3.1696,-3.4156,-3.6321,-3.8387,-4.0275,-4.0712,-4.0524,-3.9599,-3.9559,0.0,0.0,0.0,0.0,-4.002,-4.0527,-4.0595,-4.0104,-4.0544,-4.0578,-4.0087,-4.007,-4.007,-4.007,-4.007,-3.9952,-3.9681,-3.8481,-3.777,-3.7466,-3.6197,-3.481,-3.3406,-3.3406,-3.2408,-3.0835,-3.1089,-3.0903,-3.0419,-2.9847,-2.905,-2.8072,-2.687,-2.5703,-2.4704,0.0,0.0,0.0,0.0,0.0,0.0,0.0,0.0,0.0,0.0,0.0,0.0,0.0,0.0,0.0,0.0,0.0,0.0,1.4097,1.251,1.2044,1.3323,1.8006,1.9866,1.8375,0.9117,0.0123,-0.8414,-1.8346,-2.4166,-2.6005,-2.3999,-2.3926,-2.5448,-2.4549,-2.3676,-2.287,-2.125,-2.0031,-1.8978,-1.6972,-1.5956,-1.5564,-1.443,-1.4297,-1.4473,-1.326,-1.3253,-1.351,-1.1528,-1.1756,-1.2887,-1.3103,-1.3935,-1.5115,-1.6607,-1.9786,-2.364,-2.7214,-3.1482,-3.5208,-3.6353,-3.643,-3.5962,-3.5064,-3.2981,-3.076,-2.9219,-2.8209,-2.7383,-2.6631,-2.72,-2.8576,-3.0999,-3.2852,-3.5159,-3.8561,-3.9193,-3.9669,0.0,0.0,0.0,0.0,0.0,0.0,-4.002,0.0,-4.007,-4.007,-4.007,-4.007,-4.007,-4.007,-4.0054,-4.002,-4.002,-3.9698,-3.9039,-3.8311,-3.7567,-3.6806,-3.6045,-3.4844,-3.3406,-3.3406,-3.2171,-3.0226,-3.0903,-3.0459,-2.9362,-2.9988,-2.8779,-2.6595,-2.6489,-2.5262,-2.3666,0.0,0.0,0.0,0.0,0.0,0.0,0.0,0.0,0.0,0.0,0.0,0.0,0.0,0.0,0.0,0.0,0.0,0.0,1.2258,1.1819,1.1217,1.0661,1.4439,1.4697,1.0656,0.4581,-0.1807,-0.847,-1.9154,-2.5234,-2.689,-2.6946,-2.6891,-2.6712,-2.5875,-2.4916,-2.3822,-2.1903,-2.0832,-2.0167,-1.7623,-1.6266,-1.568,-1.4855,-1.4272,-1.405,-1.4652,-1.4981,-1.4873,-1.3305,-1.3731,-1.4775,-1.4459,-1.5467,-1.7148,-1.928,-2.2353,-2.5667,-2.8632,-3.2317,-3.5359,-3.5701,-3.5291,-3.4522,-3.3469,-3.0889,-2.8429,-2.742,-2.6098,-2.5052,-2.485,-2.6447,-2.8576,-3.0999,-3.4284,0.0,-3.9572,-4.096,0.0,-4.0207,0.0,-4.0065,-3.9374,-3.9597,0.0,0.0,-4.007,-4.007,-4.007,-4.007,-4.007,-4.007,-4.007,-3.9817,-3.9276,-3.9276,-3.9445,-3.9783,-3.9056,-3.8328,-3.7601,-3.684,-3.5351,-3.3406,-3.3406,-3.2459,-3.092,-3.1123,-3.0993,-3.0589,-2.9681,-2.8925,-2.8119,-2.623,-2.5211,-2.4594,0.0,0.0,0.0,0.0,0.0,0.0,0.0,0.0,0.0,0.0,0.0,0.0,0.0,0.0,0.0,0.0,0.0,0.0,0.0,1.0829,1.1257,1.1508,1.4095,1.34,0.8947,0.2495,-0.3481,-0.8944,-1.9591,-2.5101,-2.569,-2.6545,-2.6639,-2.6079,-2.5419,-2.4378,-2.3017,-2.1357,-2.0065,0.0,0.0,-1.6021,-1.5648,-1.4981,-1.4791,-1.4979,-1.5459,-1.6089,-1.6622,0.0,0.0,-1.6772,-1.7153,-1.7977,-1.9262,-2.153,0.0,-2.6775,-2.9608,-3.2853,-3.5428,-3.5633,-3.4771,-3.3608,-3.2445,-2.9728,-2.7184,-2.6371,-2.5149,-2.419,-2.419,-2.5309,-2.6888,0.0,0.0,0.0,-3.8071,-4.0215,-4.1377,0.0,-4.1183,0.0,-3.9915,-4.0016,-4.007,0.0,-4.007,-4.007,-4.007,-4.007,-4.007,-4.007,-4.007,-3.9884,-3.9478,-3.9462,-3.9512,-3.9597,-3.887,-3.8125,-3.7381,-3.662,-3.5216,-3.3406,0.0,-3.256,-3.119,-3.119,-3.119,-3.1106,-3.0277,-2.929,-2.8152,-2.6967,-2.5671,-2.4424,0.0,0.0,0.0,0.0,0.0,0.0,0.0,0.0,0.0,0.0,0.0,0.0,0.0,0.0,0.0,0.0,0.0,0.0,0.0,0.0,1.0918,1.2518,1.3861,1.2512,0.8172,0.0588,-0.5736,-1.0661,-2.0029,-2.4336,-2.388,-2.4746,-2.5008,-2.4706,-2.4286,-2.3235,-2.1726,-2.0645,-1.9139,-1.7426,-1.6446,-1.6022,-1.5874,0.0,-1.5702,-1.6511,-1.5856,-1.659,-1.79,-1.8099,-1.8387,-1.8892,-2.0151,-2.0801,-2.1568,-2.3577,-2.5481,-2.7626,-3.0644,-3.3453,-3.5617,-3.5843,-3.4619,-3.3049,-3.1658,-2.8864,-2.6377,-2.5634,0.0,-2.4061,-2.4171,-2.4281,-2.4924,-2.6649,0.0,-3.1909,-3.5941,-3.8548,-4.0693,-4.2384,-4.2203,-4.1682,-4.1094,-4.0531,-4.0188,-4.0206,-4.0155,-4.007,-4.007,-4.007,-4.0037,-3.9935,-3.9968,-3.9968,-3.9968,-3.9834,-3.9512,-3.8971,-3.8227,-3.7483,-3.6755,-3.5977,-3.481,-3.3406,0.0,0.0,-3.119,-3.119,-3.119,-3.1173,-3.097,-2.9576,-2.7632,-2.7771,-2.6078,-2.3785,0.0,0.0,0.0,0.0,0.0,0.0,0.0,0.0,0.0,0.0,0.581,0.5824,0.0,0.0,0.0,0.0,0.0,0.0,0.0,0.0,0.0,0.5162,0.6294,0.3691,-0.3369,-0.6649,-1.1057,-1.6753,-2.1342,-2.3932,-2.4609,-2.5169,-2.5223,-2.487,-2.4728,-2.4007,-2.2898,-2.2332,-2.1179,-1.9611,-1.9093,-1.8392,-1.7596,-1.705,0.0,0.0,-1.6005,-1.5807,-1.6262,-1.7677,-1.9678,-2.1551,-2.1344,-2.2603,-2.4396,-2.5992,-2.7553,-2.94,-3.2871,-3.5005,-3.6232,-3.5959,-3.4646,-3.2721,-3.0063,-2.7115,0.0,0.0,-2.3786,-2.3419,-2.408,-2.474,-2.5933,-2.8227,0.0,0.0,0.0,0.0,-4.1158,0.0,0.0,0.0,0.0,0.0,0.0,0.0,0.0,0.0,-4.007,-4.007,-3.98,-3.9191,-3.9189,-3.9205,-3.9205,-3.8614,-3.8546,-3.9001,-3.8252,-3.7492,-3.6755,-3.5977,-3.481,-3.3372,0.0,0.0,-3.119,-3.119,-3.119,-3.1072,-2.9854,-2.9121,-2.8494,-2.645,-2.525,-2.4514,0.0,0.0,0.0,0.0,0.0,0.0,0.0,0.6539,0.5958,0.555,0.5175,0.5085,0.5446,0.4852,0.4149,0.0,0.0,0.0,0.0,0.0,0.0,0.0,0.0,0.0,0.0,-0.8336,0.0,0.0,0.0,-2.2722,0.0,0.0,0.0,0.0,-2.4679,-2.4211,-2.3487,-2.2168,-2.1187,-2.043,-1.9558,-1.9031,0.0,0.0,0.0,0.0,0.0,-1.6709,-1.6708,-1.7775,-1.9408,-2.1136,-2.1686,-2.2874,-2.4205,-2.5865,-2.794,-3.029,-3.2932,-3.5369,-3.7021,-3.6626,-3.4694,-3.2409,-3.0397,0.0,0.0,0.0,-2.4043,-2.3749,-2.4135,-2.452,0.0,-2.6869,0.0,0.0,0.0,0.0,0.0,0.0,0.0,0.0,0.0,0.0,0.0,0.0,0.0,0.0,-4.007,-4.007,-3.9783,-3.8991,-3.9007,-3.8806,-3.8421,-3.8101,-3.7864,-3.7838,-3.7496,-3.6717,-3.5571,-3.5199,-3.4218,-3.2797,-3.2442,0.0,-3.1157,-3.0784,-3.0852,-3.1038,-2.9567,-2.8848,-2.8419,-2.7065,-2.5733,-2.4589,0.0,0.0,0.0,0.0,0.0,0.0,0.0,0.743,0.6968,0.6243,0.5724,0.5584,0.6105,0.5171,0.4177,0.0,0.0,0.0,0.0,0.0,0.0,0.0,0.0,0.0,0.0,0.0,0.0,0.0,0.0,0.0,0.0,0.0,0.0,0.0,0.0,0.0,0.0,-2.1867,-2.0895,0.0,0.0,0.0,0.0,0.0,0.0,0.0,0.0,-1.7664,-1.7597,-1.814,-1.8891,-1.9812,-2.1308,-2.2348,-2.3471,-2.529,-2.8027,-3.0993,-3.3321,-3.6126,-3.8164,-3.7644,-3.5203,-3.2513,-3.0998,-2.7623,0.0,-2.4685,-2.4428,-2.419,-2.419,-2.419,-2.4447,0.0,-2.6594,-2.8943,0.0,0.0,0.0,0.0,0.0,0.0,0.0,0.0,0.0,0.0,0.0,0.0,-4.0054,-3.98,-3.9345,-3.8774,-3.8757,-3.8388,-3.7684,-3.7684,-3.7362,-3.6789,-3.6624,-3.5814,-3.4489,-3.4336,-3.3457,-3.2036,-3.1884,0.0,0.0,-3.0277,-3.0362,-3.0598,-2.9431,-2.8619,-2.8052,-2.7593,-2.625,-2.4689,0.0,0.0,0.0,0.0,0.0,0.0,0.0,0.8646,0.9059,0.838,0.8282,0.822,0.8325,0.6013,0.4177,0.0,0.0,0.0,0.0,0.0,0.0,0.0,0.0,0.0,0.0,0.0,0.0,0.0,0.0,0.0,0.0,0.0,0.0,0.0,0.0,0.0,0.0,0.0,0.0,0.0,0.0,0.0,0.0,0.0,0.0,0.0,0.0,0.0,-1.8013,0.0,0.0,-1.9034,-1.9773,-2.1464,-2.3554,-2.5873,0.0,0.0,-3.6069,-3.8739,-4.0069,-3.9079,-3.6499,-3.3545,-3.0858,0.0,-2.4712,-2.4318,-2.4228,-2.419,-2.419,-2.419,-2.4447,-2.5274,-2.6135,-2.8099,0.0,0.0,0.0,0.0,0.0,0.0,0.0,0.0,0.0,0.0,0.0,0.0,0.0,-3.8822,-3.805,-3.7999,-3.8003,-3.7633,-3.6888,-3.6888,-3.6882,-3.678,-3.6039,-3.5301,-3.4472,-3.3812,-3.2696,-3.1258,0.0,0.0,0.0,-2.9854,-2.9753,-2.9214,-2.9025,-2.8516,-2.7719,-2.6557,-2.5861,-2.5464,0.0,0.0,0.0,0.0,0.0,0.0,0.8903,0.9003,0.9261,0.9803,0.9163,0.865,0.8607,0.6877,0.5273,0.4061,0.0,0.0,0.0,0.0,0.0,0.0,0.0,0.0,0.0,0.0,0.0,0.0,0.0,0.0,0.0,0.0,0.0,0.0,0.0,0.0,0.0,0.0,0.0,0.0,0.0,0.0,0.0,0.0,0.0,0.0,0.0,0.0,0.0,0.0,0.0,0.0,-2.0217,-2.1383,0.0,0.0,-2.8064,-3.1671,-3.5809,-3.8769,-4.0495,-3.9787,-3.6772,-3.3421,-3.1293,0.0,-2.4861,-2.4706,-2.4615,-2.4522,-2.4393,-2.4374,-2.4487,-2.4801,-2.5021,0.0,-2.9444,0.0,0.0,0.0,0.0,0.0,0.0,0.0,0.0,0.0,0.0,0.0,0.0,-3.8233,-3.7716,-3.7269,-3.7219,-3.6883,-3.6084,-3.6067,-3.5824,-3.5411,-3.5094,-3.4329,-3.3152,-3.2865,-3.2171,-3.1157,0.0,0.0,0.0,-2.8991,-2.8839,-2.889,-2.796,-2.7689,-2.7688,-2.6756,-2.6183,-2.5844,0.0,0.0,0.0,0.0,0.0,0.8019,0.9235,0.966,1.0297,1.1455,1.0786,1.0074,0.9851,0.7848,0.5887,0.4207,0.4311,0.0,0.0,0.0,0.0,0.0,0.0,0.0,0.0,0.0,-0.9698,-0.9412,-1.2006,0.0,0.0,0.0,0.0,0.0,0.0,0.0,0.0,0.0,0.0,0.0,0.0,0.0,0.0,0.0,0.0,0.0,0.0,0.0,0.0,0.0,0.0,0.0,-2.1171,-2.1609,-2.2485,0.0,-2.7512,-3.1345,-3.4814,-3.7895,-3.9978,-3.9367,-3.6251,-3.2887,0.0,0.0,-2.4992,-2.494,-2.4873,-2.4765,-2.4617,-2.4591,-2.4594,-2.4596,-2.4461,-2.5245,-2.7751,0.0,0.0,0.0,0.0,0.0,0.0,0.0,0.0,0.0,0.0,0.0,0.0,-3.7006,-3.6898,-3.6787,-3.6356,-3.586,-3.5283,-3.5052,-3.4678,-3.4184,-3.4185,-3.3524,-3.2273,-3.2053,-3.1444,-3.0497,0.0,0.0,0.0,-2.8144,-2.801,-2.8213,-2.7351,-2.7215,-2.7418,-2.6894,-2.6336,-2.5876,0.0,0.0,0.0,0.0,0.0,0.0,0.842,1.0889,1.2879,1.357,1.3637,1.3408,1.2714,0.8965,0.5635,0.349,0.4033,0.0,0.0,0.0,0.0,0.0,0.0,0.0,0.0,0.0,-0.4763,-0.3401,-0.5198,-0.7822,-1.1143,0.0,0.0,0.0,0.0,0.0,0.0,0.0,0.0,0.0,0.0,0.0,0.0,0.0,0.0,0.0,0.0,0.0,0.0,0.0,0.0,0.0,0.0,-2.2131,-2.2068,-2.3803,-2.7471,-3.1447,-3.3473,-3.636,-3.8586,-3.7578,-3.4894,-3.2026,0.0,0.0,-2.4966,-2.4822,-2.4803,-2.4803,-2.4803,-2.4809,-2.479,-2.4804,-2.479,-2.5568,-2.7786,0.0,0.0,0.0,0.0,0.0,0.0,0.0,0.0,0.0,0.0,0.0,0.0,-3.4953,-3.5232,-3.6737,-3.5302,-3.4498,-3.4506,-3.3778,-3.3408,-3.3403,-3.342,-3.3022,-3.2256,-3.1529,-3.0395,0.0,0.0,0.0,0.0,-2.752,-2.7385,-2.6793,-2.752,-2.7351,-2.6708,-2.6691,-2.6234,-2.5593,0.0,0.0,0.0,0.0,0.0,0.0,0.0,0.8868,1.054,1.2493,1.2557,1.1929,1.0721,0.765,0.426,0.0693,0.1478,0.0,0.0,0.0,0.0,0.0,0.0,0.0,0.0,0.0,-0.3593,-0.1751,-0.3304,-0.3378,-0.1977,-0.1974,-0.1946,0.0,0.0,0.0,0.0,0.0,0.0,0.0,0.0,0.0,0.0,0.0,0.0,0.0,0.0,0.0,0.0,0.0,0.0,0.0,0.0,0.0,0.0,-2.428,-2.6352,-2.9128,-3.2147,-3.3718,-3.4461,-3.4374,-3.2255,-2.9883,-2.8829,-2.6853,-2.5264,-2.5226,-2.5245,-2.5244,-2.5098,-2.5051,-2.5004,-2.5015,-2.4885,-2.5281,0.0,0.0,0.0,0.0,0.0,0.0,0.0,0.0,0.0,0.0,0.0,0.0,0.0,0.0,-3.5081,-3.5215,-3.4278,-3.3768,-3.3744,-3.3528,-3.3168,-3.2633,-3.2139,-3.1517,-3.0768,-3.0023,0.0,0.0,0.0,0.0,0.0,-2.7165,-2.6911,-2.6674,-2.6404,-2.6471,-2.6573,-2.5558,-2.5355,-2.5541,0.0,0.0,0.0,0.0,0.0,0.0,0.0,0.649,0.8268,1.0891,1.0863,1.0081,0.8896,0.5473,0.171,-0.2249,-0.2775,0.0,0.0,0.0,0.0,0.0,0.0,0.0,0.0,-0.3785,-0.165,0.1014,0.0677,0.1505,0.3438,0.5242,0.4081,0.0895,1.0368,0.0,0.0,0.0,0.0,0.0,0.0,0.0,0.0371,0.0,0.0,0.0,0.0,0.0,0.0,0.0,0.0,0.0,0.0,0.0,0.0,0.0,-2.5258,-2.6836,-2.9874,-3.121,-3.173,-3.1652,-3.0164,0.0,0.0,-2.6458,-2.5437,-2.5447,-2.5473,-2.5451,-2.5347,-2.5284,-2.5255,-2.526,-2.512,-2.5324,0.0,0.0,0.0,0.0,0.0,0.0,0.0,0.0,0.0,0.0,0.0,0.0,0.0,0.0,-3.4449,-3.3931,-3.3321,-3.3068,-3.3246,-3.2513,-3.1924,-3.1448,-3.0726,-3.0125,-2.9651,-2.889,0.0,0.0,0.0,0.0,0.0,-2.6471,-2.6285,-2.6268,-2.6082,-2.5964,-2.5778,-2.5135,-2.4847,-2.4712,0.0,0.0,0.0,0.0,0.0,0.0,0.0,0.3553,0.5779,0.8492,0.8311,0.7658,0.7008,0.2581,-0.1753,-0.5204,0.0,0.0,0.0,0.0,0.0,0.0,0.0,0.0,-0.3663,-0.2114,0.0494,0.4128,0.5868,0.6648,0.6566,0.8896,0.2796,-0.9438,0.713,1.762,0.0,0.0,0.0,0.0,0.0,0.0,0.0,0.0,0.0,0.0,0.0,0.0,0.0,0.0,0.0,0.0,0.0,0.0,0.0,0.0,0.0,0.0,0.0,-2.8732,-2.996,-2.9265,0.0,0.0,-2.6885,-2.6072,0.0,-2.5502,-2.5508,-2.5506,-2.5517,-2.5509,-2.5519,-2.5503,-2.5492,0.0,0.0,0.0,0.0,0.0,0.0,0.0,0.0,0.0,0.0,0.0,0.0,0.0,0.0,0.0,-3.3388,-3.2976,-3.2492,-3.2403,-3.2792,-3.093,-3.0031,-3.0023,-2.9262,-2.889,-2.8873,-2.8044,0.0,0.0,0.0,0.0,0.0,-2.5524,-2.5524,-2.5592,-2.6218,-2.5642,-2.456,-2.5152,-2.4526,-2.3393,0.0,0.0,0.0,0.0,0.0,0.0,0.0,0.0,0.0,0.0,0.2276,0.2132,0.2467,-0.1428,-0.5201,0.0,0.0,0.0,0.0,0.0,0.0,0.0,0.0,0.0,-0.6395,-0.4524,-0.1492,0.2711,0.5575,1.0523,1.7219,1.8968,1.8653,1.6816,2.0809,2.2905,0.0,0.0,0.0,0.0,0.0,0.0,0.0,0.0,0.0,0.0,-1.9071,-2.0854,0.0,0.0,0.0,0.0,0.0,0.0,0.0,0.0,-2.3952,-2.4126,-2.4414,0.0,-2.6256,-2.614,-2.603,-2.5937,0.0,-2.5642,-2.5514,0.0,0.0,0.0,0.0,-2.5603,-2.558,-2.5576,-2.6046,0.0,0.0,0.0,0.0,0.0,0.0,0.0,0.0,0.0,0.0,0.0,0.0,0.0,0.0,0.0,-3.3113,-3.2716,-3.1934,-3.1284,-3.0771,-2.9765,-2.9265,-2.9245,-2.8467,-2.8095,-2.8061,-2.6725,0.0,0.0,0.0,0.0,-2.4746,-2.4746,-2.4746,-2.4712,-2.4323,-2.4306,-2.4388,-2.3427,-2.3207,-2.3325,0.0,0.0,0.0,0.0,0.0,0.0,0.0,0.0,0.0,0.0,0.0,0.0,0.0,0.0,0.0,0.0,0.0,0.0,0.0,0.0,0.0,0.0,0.0,-0.8764,-0.9014,-0.7075,-0.464,-0.1818,0.4572,1.0712,1.6646,2.1584,2.4949,2.6384,1.4982,1.0652,0.0,0.0,0.0,0.0,-0.0234,0.0,0.0,0.0,0.0,0.0,-2.0073,-2.1196,0.0,-2.2959,-2.3629,-2.4135,0.0,0.0,0.0,0.0,-2.3311,-2.3117,-2.312,-2.3777,-2.4512,-2.47,-2.4889,-2.508,-2.5274,-2.541,-2.5527,0.0,0.0,0.0,0.0,-2.5644,-2.5605,-2.564,-2.6251,0.0,0.0,0.0,0.0,0.0,0.0,0.0,0.0,0.0,0.0,0.0,0.0,0.0,0.0,0.0,-3.218,-3.1792,-3.0604,-3.0107,-3.0414,-2.9467,-2.8921,-2.8733,-2.7604,-2.696,-2.6759,-2.5609,0.0,0.0,0.0,0.0,-2.4015,-2.4015,-2.4015,-2.3985,-2.3917,-2.3731,-2.3427,-2.297,-2.2852,-2.2835,0.0,0.0,0.0,0.0,0.0,0.0,0.0,0.0,0.0,0.0,0.0,0.0,0.0,0.0,0.0,0.0,0.0,0.0,0.0,0.0,0.0,0.0,0.0,-1.1972,-1.2029,-1.0347,-0.882,-0.7571,0.1896,0.8299,1.1883,2.0225,2.5201,2.6082,0.2301,-0.5277,0.0,0.0,0.0,0.0,-0.7803,0.0,0.0,0.0,0.0,0.0,0.0,0.0,0.0,-2.3422,-2.3852,-2.3929,-2.421,0.0,0.0,0.0,0.0,0.0,-2.2462,-2.3023,-2.3665,-2.4143,-2.4488,-2.4785,-2.5052,-2.5282,-2.5479,-2.5558,0.0,0.0,0.0,-2.5644,0.0,0.0,0.0,0.0,0.0,0.0,0.0,0.0,0.0,0.0,0.0,0.0,0.0,0.0,0.0,0.0,0.0,0.0,0.0,-3.0396,-2.9047,-2.892,-3.0143,-2.898,-2.8202,-2.7878,-2.6567,-2.575,-2.5423,-2.4661,-2.3985,0.0,0.0,0.0,-2.3224,-2.3224,-2.3224,-2.3291,-2.39,-2.3393,-2.2395,-2.3004,-2.2835,-2.231,0.0,0.0,0.0,0.0,0.0,0.0,0.0,0.0,0.0,0.0,0.0,0.0,0.0,0.0,0.0,0.0,0.0,0.0,0.0,0.0,0.0,-1.6346,-1.5369,-1.5428,-1.6718,-1.6026,-1.4406,-1.1831,-0.526,0.2989,1.2647,1.8408,2.1321,2.0914,0.07,-0.208,0.7572,-0.5261,-0.8443,-0.5401,-1.1099,0.0,0.0,0.0,0.0,0.0,0.0,0.0,0.0,-2.2737,-2.3082,-2.3333,-2.3379,0.0,0.0,0.0,0.0,0.0,-2.1911,-2.2152,-2.2754,-2.3791,-2.4408,-2.4856,-2.5045,-2.5129,-2.5219,-2.5479,0.0,0.0,0.0,-2.5658,-2.5684,0.0,0.0,0.0,0.0,0.0,0.0,0.0,0.0,0.0,0.0,0.0,0.0,0.0,0.0,0.0,0.0,0.0,0.0,-2.8521,-2.8107,-2.7684,-2.7259,-2.6145,-2.5582,-2.5524,-2.5022,-2.4737,-2.4659,-2.39,-2.3511,0.0,0.0,-2.2479,-2.2479,-2.2479,-2.2479,-2.2496,-2.2598,-2.2513,-2.2327,-2.2446,-2.2412,-2.231,0.0,0.0,0.0,0.0,0.0,0.0,0.0,0.0,0.0,0.0,0.0,0.0,0.0,0.0,0.0,0.0,0.0,0.0,0.0,0.0,0.0,-1.7689,-1.7483,-1.7814,-1.8786,-1.8942,-1.8729,-1.8139,-1.2084,-0.3719,0.6911,1.945,2.1364,1.3707,0.0571,-0.7047,-1.0406,-1.5234,-1.6359,-1.5097,0.0,0.0,0.0,0.0,0.0,0.0,0.0,0.0,0.0,0.0,-2.2797,-2.2972,-2.3141,0.0,0.0,0.0,0.0,0.0,-2.1998,-2.2084,-2.2307,-2.2805,-2.3512,-2.4244,-2.4812,-2.4988,-2.513,-2.539,0.0,0.0,0.0,0.0,0.0,0.0,0.0,0.0,0.0,0.0,0.0,0.0,0.0,0.0,0.0,0.0,0.0,0.0,0.0,0.0,0.0,0.0,0.0,0.0,-2.6767,-2.6319,-2.5952,-2.4854,-2.4711,-2.5543,-2.4803,-2.4354,-2.4127,-2.3209,-2.2818,-2.2801,0.0,-2.231,-2.231,-2.231,-2.231,-2.231,-2.231,-2.231,-2.231,-2.231,-2.231,-2.231,0.0,0.0,0.0,0.0,0.0,0.0,0.0,0.0,0.0,0.0,0.0,0.0,0.0,0.0,0.0,0.0,0.0,0.0,0.0,0.0,-1.8334,-1.8549,-1.9044,-1.9616,-2.0237,-2.1014,-2.2186,-2.3759,-1.8211,-0.9784,0.1463,1.6302,1.8362,0.9216,-0.0288,-1.1668,-2.358,-2.2013,-2.2193,-2.3457,0.0,0.0,0.0,0.0,0.0,0.0,0.0,0.0,0.0,0.0,0.0,0.0,0.0,0.0,0.0,-2.2361,-2.1928,-2.1545,-2.1695,-2.1855,-2.2004,-2.2019,-2.2799,-2.3707,-2.4348,-2.4727,-2.5041,-2.5322,0.0,0.0,0.0,0.0,0.0,0.0,0.0,0.0,0.0,0.0,0.0,0.0,0.0,0.0,0.0,0.0,0.0,0.0,0.0,0.0,0.0,0.0,0.0,0.0,-2.5558,-2.5187,-2.5187,-2.4288,-2.4371,-2.5451,-2.4563,-2.3985,-2.372,-2.29,-2.2508,-2.2508,-2.2508,-2.2453,-2.2371,-2.2371,-2.2377,-2.231,-2.231,-2.231,-2.231,-2.231,-2.231,-2.231,0.0,0.0,0.0,0.0,0.0,0.0,0.0,0.0,0.0,0.0,0.0,0.0,0.0,0.0,0.0,0.0,0.0,0.0,0.0,0.0,-1.9072,-1.9841,-2.0307,-2.1013,-2.19,-2.3016,-2.4648,-2.6873,-2.3006,-1.3827,0.0174,0.3267,0.7243,1.1136,-0.3441,-1.0946,-1.3073,-1.9616,-2.3008,-2.3937,-2.3591,0.0,0.0,0.0,0.0,0.0,0.0,0.0,0.0,0.0,0.0,0.0,0.0,0.0,-2.2163,-2.1368,-2.1151,-2.1065,-2.0289,-2.0827,-2.1711,-2.2028,-2.2905,-2.3676,-2.3611,-2.4228,-2.491,-2.5234,0.0,0.0,0.0,0.0,0.0,0.0,0.0,0.0,0.0,0.0,0.0,0.0,0.0,0.0,0.0,0.0,0.0,0.0,0.0,0.0,0.0,0.0,0.0,0.0,0.0,-2.4552,-2.4552,-2.4284,-2.4051,-2.3855,-2.3476,-2.3277,-2.3253,-2.3177,-2.3135,-2.3135,-2.3135,-2.2947,-2.2669,-2.2669,-2.251,-2.231,-2.231,-2.231,-2.231,-2.231,-2.231,-2.231,0.0,0.0,0.0,0.0,0.0,0.0,0.0,0.0,0.0,0.0,0.0,0.0,0.0,0.0,0.0,0.0,0.0,0.0,0.0,-1.9489,-1.9951,-2.0415,-2.0916,-2.1687,-2.2764,-2.4072,-2.5789,-2.7879,-2.0927,-1.4464,-0.842,-0.0556,0.0467,-0.4466,-0.8508,-1.4324,-2.1207,-2.3024,-2.4071,-2.4477,-2.4293,-2.3948,0.0,0.0,0.0,0.0,0.0,0.0,0.0,0.0,-2.231,-2.231,-2.231,-2.2106,-2.1794,-2.1477,-2.122,-2.1054,-2.0977,-2.1066,-2.1259,-2.1642,-2.2353,-2.3168,-2.3946,-2.4385,-2.4689,-2.4936,-2.508,0.0,0.0,0.0,0.0,0.0,0.0,0.0,0.0,0.0,0.0,0.0,0.0,0.0,0.0,0.0,0.0,0.0,0.0,0.0,0.0,0.0,0.0,0.0,0.0,-2.4685,-2.4685,-2.4607,-2.4459,-2.4192,-2.372,-2.3522,-2.3482,-2.33,-2.3189,-2.3189,-2.3189,-2.3117,-2.2996,-2.2797,-2.2764,-2.2857,-2.2857,-2.2857,-2.2857,-2.2857,-2.2857,-2.2857,0.0,0.0,0.0,0.0,0.0,0.0,0.0,0.0,0.0,0.0,0.0,0.0,0.0,0.0,0.0,0.0,0.0,0.0,-2.0014,-2.0466,-2.0831,-2.1133,-2.1625,-2.2361,-2.3397,-2.4372,-2.593,-2.8109,-2.2082,-1.873,-1.7754,-0.9897,-1.0545,-1.8297,-1.6613,-1.9941,-2.6789,-2.5723,-2.5138,-2.4946,-2.4824,-2.4582,0.0,0.0,0.0,0.0,0.0,0.0,0.0,0.0,-2.231,-2.231,-2.231,-2.2077,-2.1794,-2.1642,-2.1016,-2.0358,-2.0521,-2.0498,-2.0465,-2.0587,-2.1768,-2.3073,-2.3859,-2.4258,-2.4561,-2.476,-2.4864,-2.4998,0.0,0.0,0.0,0.0,0.0,0.0,0.0,0.0,0.0,0.0,0.0,0.0,0.0,0.0,0.0,0.0,0.0,0.0,0.0,0.0,0.0,0.0,0.0,0.0,-2.449,-2.4379,-2.4132,-2.3715,-2.3308,-2.3365,-2.3837,-2.361,-2.3522,-2.3522,-2.3522,-2.3477,-2.3346,-2.3117,-2.3021,-2.3045,-2.3045,-2.2989,-2.2933,-2.2996,-2.2989,-2.2933,0.0,0.0,0.0,0.0,0.0,0.0,0.0,0.0,0.0,0.0,0.0,0.0,0.0,0.0,0.0,0.0,0.0,0.0,-2.0952,-2.1386,-2.1737,-2.2074,-2.2491,-2.3074,-2.3851,-2.3894,-2.5147,-2.7683,-2.7953,-2.7684,-2.6897,-2.6839,-2.7006,-2.7417,-2.7873,-2.759,-2.6783,-2.672,-2.6152,-2.5293,-2.5233,-2.5168,-2.5079,0.0,0.0,0.0,0.0,0.0,0.0,0.0,-2.2282,-2.2282,-2.2282,-2.2282,-2.2209,-2.1735,-2.0317,-1.8831,-1.8433,-1.8853,-1.9311,-1.8852,0.0,0.0,-2.3106,-2.3766,-2.4543,-2.476,-2.479,-2.4804,-2.4785,0.0,0.0,0.0,0.0,0.0,0.0,0.0,0.0,0.0,0.0,0.0,0.0,0.0,0.0,0.0,0.0,0.0,0.0,0.0,0.0,0.0,0.0,0.0,-2.3797,-2.346,-2.2856,-2.199,-2.1869,-2.2648,-2.4171,-2.419,-2.419,-2.419,-2.419,-2.4016,-2.3692,-2.3692,-2.3323,-2.2721,-2.2721,-2.2537,-2.2349,-2.2625,-2.2537,-2.2366,0.0,0.0,0.0,0.0,0.0,0.0,0.0,0.0,0.0,0.0,0.0,0.0,0.0,0.0,0.0,0.0,0.0,0.0,-2.0482,-2.0923,-2.133,-2.1657,-2.2044,-2.2375,-2.264,-2.3702,-2.4679,-2.5594,-2.6386,-2.6732,-2.6688,-2.6477,-2.6646,-2.7109,-2.7019,-2.6607,-2.5951,-2.5822,-2.5654,-2.542,-2.5373,-2.533,-2.5297,0.0,0.0,0.0,0.0,0.0,0.0,0.0,0.0,0.0,-2.1794,-2.1598,-2.1415,-2.1568,-2.1002,-2.0407,-2.0586,-2.0154,0.0,-2.0976,0.0,0.0,0.0,-2.339,0.0,0.0,-2.442,-2.4436,-2.3978,0.0,0.0,0.0,0.0,0.0,0.0,0.0,0.0,0.0,0.0,0.0,0.0,0.0,0.0,0.0,0.0,0.0,0.0,0.0,0.0,0.0,0.0,0.0,-2.3103,-2.3004,-2.2753,-2.2357,-2.2219,-2.2285,-2.252,-2.3107,-2.3364,-2.34,-2.3951,-2.4151,-2.4054,-2.4054,-2.3795,-2.3414,-2.3671,-2.371,-2.3646,-2.3732,-2.371,-2.3646,0.0,0.0,0.0,0.0,0.0,0.0,0.0,0.0,0.0,0.0,0.0,0.0,0.0,0.0,0.0,0.0,0.0,0.0,0.0,-2.1085,-2.1343,-2.1518,-2.176,-2.1897,-2.189,-2.293,-2.375,-2.4255,-2.5851,-2.6433,-2.6058,-2.6697,-2.6983,-2.697,-2.7078,-2.6721,-2.6033,-2.5948,-2.5746,-2.5449,-2.5451,-2.5449,-2.5414,0.0,0.0,0.0,0.0,0.0,0.0,0.0,0.0,0.0,-2.1399,-2.1181,-2.0942,-2.0773,-2.013,-1.9495,-1.9607,-1.9136,0.0,-2.0322,-2.0945,-2.1441,-2.2468,0.0,0.0,0.0,0.0,0.0,0.0,0.0,0.0,0.0,0.0,0.0,0.0,0.0,0.0,0.0,0.0,0.0,0.0,0.0,0.0,0.0,0.0,0.0,0.0,0.0,0.0,0.0,0.0,0.0,-2.2331,-2.2237,-2.1972,-2.1518,-2.1372,-2.1384,-2.1529,-2.2221,-2.2868,-2.3492,-2.3657,-2.3896,-2.4171,-2.3859,-2.3704,-2.3714,-2.3917,-2.3917,-2.3816,-2.3937,-2.3917,-2.3816,0.0,0.0,0.0,0.0,0.0,0.0,0.0,0.0,0.0,0.0,-1.969,0.0,0.0,0.0,0.0,0.0,0.0,0.0,0.0,0.0,-2.1472,-2.1499,-2.153,-2.1573,-2.1609,-2.1955,-2.2646,-2.3639,-2.5907,-2.6401,-2.5239,-2.7178,-2.761,-2.681,-2.7615,-2.7457,-2.6598,-2.6579,-2.6113,-2.5416,-2.5468,-2.5488,-2.5444,-2.5399,0.0,0.0,0.0,0.0,0.0,0.0,0.0,0.0,-2.1055,-2.0926,-2.0735,-1.9821,-1.85,-1.7314,-1.706,-1.6867,-1.6987,-1.8061,-1.9889,0.0,-2.2331,-2.2713,-2.3035,-2.3436,0.0,0.0,0.0,0.0,0.0,0.0,0.0,0.0,0.0,0.0,0.0,0.0,0.0,0.0,0.0,0.0,0.0,0.0,0.0,0.0,0.0,0.0,0.0,0.0,0.0,0.0,-2.1487,-2.1314,-2.0814,0.0,-1.9882,-2.0289,-2.1128,-2.1622,-2.2683,-2.4081,-2.3235,-2.3309,-2.3914,-2.3199,-2.3139,-2.3536,-2.3536,-2.3329,-2.311,-2.3394,-2.3329,-2.3127,0.0,0.0,0.0,0.0,0.0,0.0,0.0,0.0,0.0,0.0,0.0,0.0,0.0,0.0,0.0,0.0,0.0,0.0,0.0,0.0,-2.0579,-2.0565,-2.0942,-2.1318,-2.1748,-2.2285,-2.3012,-2.3896,-2.4659,-2.5086,-2.5234,-2.6505,-2.6645,-2.5842,-2.67,-2.658,-2.5749,-2.5705,-2.5579,-2.5401,-2.5418,-2.5304,-2.5135,-2.5337,-2.5168,0.0,0.0,0.0,0.0,0.0,0.0,0.0,-2.0583,-2.0449,-2.0487,-2.0623,-1.9683,-1.8707,-1.9155,-1.8091,0.0,0.0,-1.9799,-2.0457,-2.0863,-2.0842,-2.0948,0.0,0.0,0.0,0.0,0.0,0.0,0.0,0.0,0.0,0.0,0.0,0.0,0.0,0.0,0.0,0.0,0.0,0.0,0.0,0.0,0.0,0.0,0.0,0.0,0.0,0.0,-2.0776,-2.0581,-2.0579,-2.0474,0.0,-2.0104,-2.0432,-2.1206,-2.1877,-2.2671,-2.3442,-2.2479,-2.2152,-2.2299,-2.2116,-2.2135,-2.2209,-2.2209,-2.2155,-2.2118,-2.2191,-2.2155,-2.2209,0.0,0.0,0.0,0.0,0.0,0.0,0.0,0.0,0.0,0.0,0.0,0.0,0.0,0.0,0.0,0.0,0.0,0.0,0.0,0.0,-2.0196,-1.9974,-1.9974,-2.0239,-2.0734,-2.1493,-2.2356,-2.332,-2.3767,-2.4335,-2.5034,-2.6099,-2.6184,-2.5492,-2.6262,-2.6103,-2.5247,-2.5147,-2.511,-2.511,-2.511,-2.5023,-2.4928,-2.506,-2.4986,-2.4756,-2.45,0.0,0.0,0.0,0.0,0.0,0.0,0.0,-1.9836,-1.9009,-1.8453,-1.7997,-1.7588,0.0,0.0,-1.8329,0.0,-1.9183,-1.9849,-1.9344,-1.8976,0.0,0.0,0.0,0.0,0.0,0.0,0.0,0.0,0.0,0.0,0.0,0.0,0.0,0.0,0.0,0.0,0.0,0.0,0.0,0.0,0.0,0.0,0.0,0.0,0.0,-2.0304,-2.0293,-2.0293,-2.033,-2.0335,-2.0305,-2.0269,-2.0643,-2.1413,-2.1995,-2.2219,-2.2173,-2.1588,-2.1549,-2.1865,-2.1379,-2.1418,-2.1803,-2.1803,-2.1835,-2.1884,-2.1884,-2.1884,-2.1957,0.0,0.0,0.0,0.0,0.0,0.0,0.0,0.0,0.0,0.0,0.0,0.0,0.0,0.0,0.0,0.0,0.0,0.0,0.0,0.0,0.0,-1.9214,-1.8896,-1.8979,-1.9542,-2.0555,-2.1569,-2.2641,-2.3254,-2.3916,-2.4682,-2.5677,-2.5832,-2.5343,-2.589,-2.5688,-2.4943,-2.4791,-2.4702,-2.4702,-2.4657,-2.4644,-2.4669,-2.471,-2.4727,-2.4731,-2.4561,-2.4063,-2.3329,-2.2141,0.0,0.0,0.0,0.0,-1.8918,-1.7038,-1.6557,-1.6379,-1.5154,0.0,-1.5991,-1.7306,-1.7663,0.0,-1.8837,-1.8102,0.0,0.0,0.0,0.0,0.0,0.0,0.0,0.0,0.0,0.0,0.0,0.0,0.0,0.0,0.0,0.0,0.0,0.0,0.0,0.0,0.0,0.0,0.0,0.0,-2.0204,-2.0204,-2.0254,-2.0269,-2.0269,-2.0292,-2.0325,-2.0318,-2.0377,-2.0745,-2.1385,-2.171,-2.1575,-2.1041,-2.0749,-2.1022,-2.157,-2.0714,-2.0799,-2.1461,-2.1461,-2.1522,-2.1622,-2.1622,-2.1611,-2.16,0.0,0.0,0.0,0.0,0.0,0.0,0.0,0.0,0.0,0.0,0.0,0.0,0.0,0.0,0.0,0.0,0.0,0.0,-2.028,0.0,0.0,-1.7558,-1.7781,-1.8409,-1.9405,-2.062,-2.1804,-2.2853,-2.3414,-2.3828,-2.4118,-2.4734,-2.5038,-2.5038,-2.5031,-2.495,-2.4814,-2.4504,-2.4369,-2.4335,-2.4059,-2.4007,-2.4136,-2.4309,-2.4433,-2.4545,-2.4512,-2.4063,-2.3271,-2.1735,-2.0796,0.0,0.0,0.0,-1.7576,-1.725,-1.6081,-1.4921,-1.5297,0.0,-1.5771,0.0,-1.6749,-1.6975,0.0,0.0,0.0,0.0,0.0,0.0,0.0,0.0,0.0,0.0,0.0,0.0,0.0,0.0,0.0,0.0,0.0,0.0,0.0,0.0,0.0,0.0,0.0,0.0,0.0,-1.9858,-1.9861,-1.9861,-2.0041,-2.0127,-2.0127,-2.0292,-2.0389,-2.039,-2.0392,-2.0434,-2.0481,-2.054,-2.0815,-2.1211,-2.0316,-2.0,-2.0094,-1.9957,-1.9963,-2.0057,-2.0057,-2.007,-2.0094,-2.0094,-2.0013,-2.001,0.0,0.0,0.0,0.0,0.0,0.0,0.0,0.0,0.0,0.0,0.0,0.0,0.0,0.0,0.0,-2.0413,-2.0447,-2.0296,-1.9939,-1.8228,-1.6927,-1.6228,-1.6026,-1.6471,-1.7598,-1.928,-2.0841,-2.2119,-2.2785,-2.3343,-2.3717,-2.3853,-2.4261,-2.4877,-2.4514,-2.4349,-2.4332,-2.4081,-2.3871,-2.3656,-2.353,-2.3253,-2.2989,-2.349,-2.3458,-2.3206,-2.3622,-2.3307,-2.2522,-2.1279,-2.043,-1.9596,-1.8104,0.0,0.0,0.0,-1.5722,-1.5082,-1.5237,-1.5003,-1.4961,0.0,-1.6136,-1.6301,-1.6474,0.0,0.0,0.0,0.0,0.0,0.0,0.0,0.0,0.0,0.0,0.0,0.0,0.0,0.0,0.0,0.0,0.0,0.0,0.0,0.0,0.0,0.0,0.0,-1.9232,-1.9309,-1.9345,-1.9345,-1.9585,-1.9717,-1.9717,-2.0069,-2.0312,-2.0463,-2.0427,-2.0399,-2.0418,-2.0366,-2.0502,-2.0708,-2.0144,-1.9922,-1.9912,-1.9824,-1.979,-1.979,-1.979,-1.9847,-1.9912,-1.9824,-1.9762,-1.9745,0.0,0.0,0.0,0.0,0.0,0.0,0.0,0.0,0.0,0.0,0.0,0.0,0.0,0.0,0.0,0.0,-2.0991,-2.0601,-1.9656,-1.7712,-1.6309,-1.5671,-1.5233,-1.5492,-1.6561,-1.8541,-2.0184,-2.1529,-2.2317,-2.2919,-2.3294,-2.3136,-2.3563,-2.4383,-2.3969,-2.3792,-2.3771,-2.3552,-2.33,-2.3052,-2.2803,-2.2406,-2.2,-2.2371,-2.2246,-2.1905,-2.2663,-2.2442,-2.1681,-2.0795,-1.9996,-1.9119,-1.7558,-1.693,0.0,0.0,0.0,0.0,0.0,0.0,-1.4254,-1.5139,-1.5418,-1.555,0.0,0.0,0.0,0.0,0.0,0.0,0.0,0.0,0.0,0.0,0.0,0.0,0.0,0.0,0.0,0.0,0.0,0.0,0.0,0.0,0.0,0.0,0.0,0.0,-1.8448,-1.8591,-1.8692,-1.8777,-1.9002,-1.9154,-1.9253,-1.9753,-2.0128,-2.039,-2.0394,-2.0429,-2.0444,-2.0421,-2.0359,-2.0296,-2.0142,-2.0086,-2.0069,-1.9962,-1.992,-1.992,-1.992,-1.9982,-2.006,-1.9962,-1.988,-1.9836,0.0,0.0,0.0,0.0,0.0,0.0,0.0,0.0,0.0,0.0,0.0,0.0,-2.0299,-2.0698,-2.0959,-2.0991,-2.0991,-2.0601,-1.9656,-1.8423,-1.7304,-1.6409,-1.6323,0.0,-1.7685,-1.9304,-2.062,-2.1582,-2.2351,-2.2703,-2.2729,-2.2746,-2.2947,-2.3264,-2.3259,-2.3236,-2.3236,-2.288,-2.2746,-2.2626,-2.1695,-2.1422,-2.1548,-2.0888,-2.082,-2.1153,-2.1892,-2.1683,-2.0948,-2.0194,-1.9451,-1.8565,0.0,0.0,0.0,0.0,0.0,0.0,0.0,-1.394,0.0,-1.4126,-1.4393,0.0,0.0,0.0,0.0,0.0,0.0,0.0,0.0,0.0,0.0,0.0,0.0,0.0,0.0,0.0,0.0,0.0,0.0,0.0,0.0,0.0,0.0,0.0,0.0,0.0,-1.7572,-1.7628,-1.783,-1.8131,-1.8282,-1.8521,-1.8836,-1.9418,-1.9847,-2.0111,-2.0308,-2.0363,-2.0316,-2.037,-2.0366,-2.0302,-2.0284,-2.0269,-2.0285,-2.0277,-2.0277,-2.0277,-2.0277,-2.0277,-2.0277,-2.0277,-2.0152,-2.0003,0.0,0.0,0.0,0.0,0.0,0.0,0.0,0.0,0.0,0.0,0.0,0.0,0.0,-2.0894,-2.1229,-2.1781,-2.1568,-2.1271,-2.1026,-1.9215,-1.7881,-1.738,-1.6837,-1.7022,-1.811,-1.9371,-2.0543,-2.1582,-2.1861,-2.1989,-2.1989,-2.1711,-2.1665,-2.1824,-2.2556,-2.2873,-2.2873,-2.2746,-2.2599,-2.2385,-2.1518,-2.0951,-2.0542,-2.0286,-1.9956,0.0,0.0,0.0,0.0,0.0,0.0,0.0,0.0,0.0,0.0,0.0,0.0,0.0,0.0,0.0,0.0,-1.3395,-1.3427,-1.3605,0.0,0.0,0.0,0.0,0.0,0.0,0.0,0.0,0.0,0.0,0.0,0.0,0.0,0.0,0.0,0.0,0.0,0.0,0.0,0.0,0.0,0.0,0.0,0.0,-1.6161,-1.6515,-1.6756,-1.6881,-1.7355,-1.7887,-1.8467,-1.8904,-1.9313,-1.9725,-1.9801,-1.9964,-2.0249,-2.027,-2.0277,-2.0292,-2.0292,-2.0319,-2.036,-2.036,-2.036,-2.036,-2.036,-2.0332,-2.0283,-2.0244,-2.015,-1.9993,0.0,0.0,0.0,0.0,0.0,0.0,0.0,0.0,0.0,-1.8851,0.0,0.0,0.0,0.0,-2.1705,-2.2381,-2.2136,-2.199,-2.2044,-2.0444,-1.9323,-1.897,-1.8435,-1.8488,-1.9292,-2.0193,-2.1016,-2.1823,-2.1688,-2.1582,-2.1582,-2.1181,-2.0991,-2.1023,-2.1782,-2.218,-2.2351,-2.2493,-2.2364,-2.1977,-2.114,-2.0461,-1.992,-1.9569,0.0,0.0,0.0,0.0,0.0,0.0,0.0,0.0,0.0,0.0,0.0,0.0,0.0,0.0,-1.283,0.0,0.0,0.0,0.0,0.0,0.0,0.0,0.0,0.0,0.0,0.0,0.0,0.0,0.0,0.0,0.0,0.0,0.0,0.0,0.0,0.0,0.0,0.0,0.0,0.0,0.0,0.0,0.0,0.0,-1.4888,-1.5228,-1.559,-1.5985,-1.6568,-1.7263,-1.8089,-1.8356,-1.8759,-1.9261,-1.9395,-1.9623,-1.9948,-2.0058,-2.0115,-2.0167,-2.0089,-2.018,-2.0375,-2.0375,-2.0366,-2.0373,-2.0373,-2.0344,-2.0327,-2.0288,-2.0205,-2.009,0.0,0.0,0.0,0.0,0.0,0.0,0.0,0.0,-1.8302,-1.8817,0.0,0.0,0.0,0.0,0.0,-2.2669,-2.2703,-2.2686,-2.265,-2.215,-2.1653,-2.1222,-2.1193,-2.1213,-2.1345,-2.1843,-2.2175,-2.231,-2.1823,-2.1582,-2.1582,-2.115,-2.0959,-2.0959,-2.0959,-2.1213,-2.1582,-2.2061,-2.2003,-2.1497,0.0,-1.9943,-1.9761,0.0,0.0,0.0,-1.8802,-1.8268,0.0,-1.7092,0.0,0.0,0.0,0.0,0.0,0.0,0.0,0.0,0.0,0.0,0.0,0.0,0.0,0.0,0.0,0.0,0.0,0.0,0.0,0.0,0.0,0.0,0.0,0.0,0.0,0.0,0.0,0.0,0.0,0.0,0.0,0.0,0.0,0.0,0.0,0.0,0.0,-1.2604,-1.3697,-1.373,-1.4328,-1.5519,-1.5958,-1.6636,-1.7609,-1.7778,-1.815,-1.8733,-1.9147,-1.9364,-1.9391,-1.9706,-1.9869,-1.9859,-1.9669,-1.9844,-2.0253,-2.0273,-2.0291,-2.0297,-2.0297,-2.0336,-2.0395,-2.0398,-2.0361,-2.0294,0.0,0.0,0.0,0.0,0.0,0.0,-1.671,-1.7504,-1.8145,0.0,0.0,0.0,-2.0449,-2.1259,-2.2034,-2.2583,-2.2818,-2.3204,-2.393,-2.3529,-2.3228,-2.3199,-2.298,-2.2678,-2.2302,-2.246,-2.2466,-2.231,-2.1554,-2.115,-2.115,-2.0413,-2.005,-2.0085,-2.0364,-2.055,-2.0699,-2.115,0.0,-2.1101,-2.0273,-1.9618,0.0,0.0,0.0,0.0,0.0,-1.6949,-1.6751,0.0,-1.6,-1.6101,0.0,0.0,0.0,0.0,0.0,0.0,-1.147,0.0,0.0,0.0,0.0,0.0,0.0,0.0,0.0,0.0,0.0,0.0,0.0,0.0,0.0,0.0,0.0,0.0,0.0,0.0,0.0,0.0,0.0,0.0,0.0,0.0,0.0,0.0,-1.0829,-1.1211,-1.2307,-1.2636,-1.3251,-1.4265,-1.4933,-1.543,-1.5743,-1.6655,-1.7131,-1.713,-1.7582,-1.8093,-1.8624,-1.8705,-1.8926,-1.9258,-1.9183,-1.9239,-1.9395,-1.9778,-2.0102,-2.036,-2.0273,-2.0297,-2.0387,-2.0346,-2.0348,-2.0361,0.0,0.0,0.0,0.0,0.0,-1.6837,-1.6837,-1.7353,-1.7867,0.0,0.0,0.0,-2.0516,-2.1197,-2.1886,-2.2548,-2.2891,-2.3436,-2.4321,-2.4118,-2.4006,-2.408,-2.3906,-2.3498,-2.2923,-2.2923,-2.2704,-2.231,-2.1432,-2.0991,-2.0959,-2.012,-1.969,-1.9711,-1.9945,0.0,-2.007,0.0,0.0,0.0,-1.9827,0.0,0.0,-1.7898,-1.7402,0.0,0.0,0.0,-1.633,-1.531,-1.501,0.0,0.0,0.0,0.0,0.0,0.0,0.0,0.0,0.0,0.0,0.0,0.0,0.0,-1.0626,-1.1212,0.0,0.0,0.0,0.0,0.0,0.0,0.0,0.0,0.0,0.0,0.0,0.0,0.0,0.0,0.0,0.0,0.0,0.0,0.0,0.0,-0.9413,-0.9862,-1.1358,-1.1878,-1.2556,-1.3456,-1.3736,-1.4151,-1.4704,-1.556,-1.6045,-1.6087,-1.6848,-1.7315,-1.7556,-1.7876,-1.8227,-1.8609,-1.8359,-1.8503,-1.8924,-1.898,-1.9406,-2.001,-1.9931,-2.0037,-2.0234,-2.0187,-2.0182,-2.0195,0.0,0.0,-1.8438,-1.8414,-1.7841,-1.7394,-1.7394,-1.7422,-1.7666,0.0,-1.9059,-2.0008,-2.0829,-2.1368,-2.1898,-2.2548,-2.3023,-2.357,-2.419,-2.4247,-2.4266,-2.4228,-2.4228,-2.3937,-2.3259,-2.3212,-2.2933,-2.2349,-2.1446,-2.0991,-2.0959,-2.012,-1.969,-1.969,0.0,0.0,0.0,0.0,0.0,-2.003,-1.9231,-1.8765,0.0,0.0,-1.7319,-1.7334,-1.6754,-1.6297,-1.5882,-1.4812,-1.3788,0.0,0.0,0.0,0.0,0.0,-1.0597,0.0,0.0,0.0,0.0,0.0,0.0,0.0,-1.0155,-1.0518,0.0,0.0,0.0,0.0,0.0,0.0,0.0,0.0,0.0,0.0,0.0,0.0,0.0,0.0,0.0,0.0,0.0,0.0,-0.8131,-0.8972,-0.85,-0.8965,-1.0753,-1.1453,-1.2148,-1.2915,-1.2587,-1.2938,-1.4087,-1.4494,-1.4875,-1.5256,-1.6318,-1.6667,-1.64,-1.7089,-1.7591,-1.792,-1.7392,-1.7645,-1.8394,-1.7994,-1.8465,-1.9442,-1.9418,-1.9646,-1.9934,-1.989,-1.9865,-1.9887,0.0,0.0,-1.9185,-1.8639,-1.8232,-1.7947,-1.7947,-1.8302,-1.8612,-1.8727,-1.9549,-2.023,-2.0416,-2.1379,-2.2146,-2.2591,-2.336,-2.4005,-2.4409,-2.4591,-2.4607,-2.4444,-2.4426,-2.4174,-2.361,-2.3346,-2.2996,-2.2608,-2.1519,-2.0991,-2.0959,-2.012,-1.969,-1.969,-1.969,0.0,0.0,0.0,0.0,-1.8989,-1.88,0.0,-1.7834,-1.7104,-1.6321,-1.5587,-1.5457,-1.4973,-1.4339,0.0,-1.3421,-1.2651,0.0,0.0,0.0,0.0,0.0,0.0,0.0,0.0,0.0,0.0,0.0,0.0,-0.9384,-0.9666,-0.9908,0.0,0.0,0.0,0.0,0.0,0.0,0.0,0.0,0.0,0.0,0.0,0.0,0.0,0.0,0.0,0.0,0.0,-0.7532,-0.837,-0.9462,-1.0242,-1.0622,-1.1295,-1.187,-1.2403,-1.2351,-1.2457,-1.2782,-1.3163,-1.3441,-1.3579,-1.4178,-1.4903,-1.5786,-1.5924,-1.6386,-1.7044,-1.6935,-1.6572,-1.6129,-1.7043,-1.8071,-1.9081,-1.899,-1.9212,-1.9555,-1.9238,-1.9352,-1.9605,-2.2426,-2.1312,-2.0237,-1.9373,-1.9031,-1.8774,-1.8535,-1.8496,-1.8612,-1.8855,-1.9707,-2.0314,-2.0314,-2.1362,-2.2228,-2.2574,-2.337,-2.3984,-2.4321,-2.4444,-2.4444,-2.4357,-2.4339,-2.4078,-2.3459,-2.33,-2.2965,-2.25,-2.1702,-2.1181,-2.1007,-2.0296,-1.9693,-1.9211,-1.954,-1.9495,0.0,0.0,-1.9265,-1.9136,-1.8478,0.0,-1.713,-1.6473,-1.5757,-1.5104,-1.5104,-1.4596,-1.3881,-1.3727,-1.3244,0.0,0.0,-1.187,-1.0642,0.0,-0.9178,-0.843,0.0,0.0,0.0,-0.8526,0.0,0.0,0.0,-0.8471,-0.8676,0.0,0.0,0.0,0.0,0.0,0.0,0.0,0.0,0.0,0.0,0.0,0.0,0.0,0.0,0.0,0.0,0.0,-0.75,-0.8042,-0.9221,-0.9927,-1.0021,-1.0343,-1.0912,-1.1746,-1.1568,-1.1645,-1.207,-1.2456,-1.2591,-1.2472,-1.3365,-1.4009,-1.4381,-1.4852,-1.5491,-1.6181,-1.6019,-1.5745,-1.5422,-1.5686,-1.596,-1.6356,-1.7897,-1.8628,-1.8788,-1.8573,-1.8756,-1.9059,-2.2735,-2.1972,-2.115,-2.0265,-1.9842,-1.9492,-1.9118,-1.8688,-1.8598,-1.9103,-1.9919,-2.0483,-2.0534,-2.1602,-2.2537,-2.3136,-2.3557,-2.4044,-2.4611,-2.4373,-2.419,-2.419,-2.419,-2.3955,-2.3392,-2.3277,-2.2958,-2.2453,-2.1895,-2.1399,-2.0991,-2.0516,-1.9798,-1.8912,-1.9316,-1.9235,0.0,0.0,0.0,-1.8948,0.0,-1.73,-1.6995,-1.6263,-1.5639,-1.5139,-1.4825,-1.4264,-1.3612,-1.335,0.0,-1.2444,-1.1892,-1.131,0.0,0.0,0.0,0.0,0.0,0.0,0.0,0.0,0.0,-0.759,0.0,0.0,0.0,0.0,0.0,0.0,0.0,0.0,0.0,0.0,0.0,0.0,0.0,0.0,0.0,0.0,0.0,0.0,0.0,0.0,-0.7556,-0.7749,-0.8714,-0.9375,-0.9475,-0.9636,-1.0173,-1.1098,-1.0736,-1.0827,-1.1426,-1.1612,-1.1605,-1.1427,-1.2566,-1.2989,-1.2852,-1.369,-1.4526,-1.5242,-1.4866,-1.475,-1.4789,-1.4255,-1.3657,-1.334,-1.6185,-1.7376,-1.7544,-1.7572,-1.7791,-1.8041,-2.3451,-2.2358,-2.1368,-2.0958,-2.0215,-1.9675,-1.9603,-1.9566,-1.966,-2.0108,-2.0583,-2.1055,0.0,0.0,0.0,0.0,0.0,0.0,-2.6245,0.0,-2.419,-2.419,-2.419,-2.417,-2.4094,-2.3482,-2.3183,-2.3111,-2.2085,-2.1399,-2.0991,-2.0516,-2.0043,-1.9555,-1.9046,0.0,0.0,0.0,-1.7512,0.0,-1.6529,-1.7274,0.0,-1.707,-1.6128,-1.5299,-1.3931,-1.3104,-1.2722,0.0,-1.2178,-1.1055,0.0,-1.0382,-0.8611,0.0,0.0,0.0,0.0,0.0,0.0,0.0,-0.6613,0.0,0.0,0.0,0.0,0.0,0.0,0.0,0.0,0.0,0.0,0.0,0.0,0.0,0.0,0.0,0.0,0.0,0.0,0.0,0.0,0.0,0.0,-0.7345,-0.8813,-0.9761,-0.9761,-1.0319,-1.0714,-1.0856,-1.0457,-1.0298,-1.039,-0.9775,-0.9665,-1.0045,-1.044,-1.1015,-1.1799,-1.2377,-1.3128,-1.3977,-1.3467,-1.3065,-1.2768,-1.2953,-1.2609,-1.2025,-1.3393,-1.4587,-1.5535,-1.567,-1.5867,-1.6066,-2.3388,-2.2539,-2.1678,-2.1102,-2.0465,-1.9965,-1.9762,-2.0034,-2.0212,-1.999,-2.091,0.0,0.0,0.0,0.0,0.0,0.0,-2.4657,0.0,0.0,-2.419,-2.419,-2.419,0.0,-2.3628,-2.3346,-2.3038,-2.2686,-2.2243,-2.1645,-2.1007,-2.0797,-2.0128,-1.9106,-1.8599,0.0,-1.7813,0.0,-1.7019,0.0,0.0,0.0,0.0,-1.6045,-1.5081,-1.4419,-1.3213,-1.2685,-1.2425,0.0,-1.1508,0.0,0.0,0.0,0.0,0.0,0.0,0.0,0.0,0.0,0.0,0.0,0.0,0.0,0.0,0.0,-0.5321,0.0,0.0,0.0,0.0,0.0,0.0,0.0,0.0,0.0,0.0,0.0,0.0,0.0,0.0,0.0,0.0,0.0,0.0,0.0,0.0,-0.7659,-0.8554,-0.8862,-0.9377,-1.021,-1.0078,-1.0055,-1.0197,-0.9681,-0.9446,-0.9393,-0.9614,-0.9944,-1.0356,-1.0818,-1.1413,-1.2037,-1.1813,-1.1467,-1.0972,-1.0525,-0.9858,-0.9086,-0.9246,-1.1307,-1.4184,-1.3918,-1.4244,-1.4703,-2.3236,0.0,0.0,-2.1118,-2.0532,-2.0035,-1.9747,-2.0109,-2.028,-1.9899,0.0,0.0,-2.2231,-2.3232,0.0,0.0,-2.4906,-2.4807,0.0,0.0,-2.4074,0.0,0.0,0.0,0.0,-2.3117,-2.284,-2.2398,-2.2349,-2.1857,-2.0991,-2.0991,-2.02,-1.8732,0.0,-1.7577,-1.6725,0.0,0.0,-1.6166,-1.5775,-1.5785,-1.5878,-1.4944,-1.4218,-1.3576,-1.2766,-1.2318,-1.1968,-1.1221,-1.0851,0.0,-0.9637,0.0,0.0,0.0,0.0,0.0,-0.5064,0.0,0.0,0.0,0.0,0.0,0.0,0.0,0.0,0.0,0.0,0.0,0.0,0.0,0.0,0.0,0.0,0.0,0.0,0.0,0.0,0.0,0.0,0.0,0.0,0.0,0.0,0.0,-0.5331,0.0,-0.7014,-0.7292,-0.7966,-0.9183,-0.9406,-0.9548,-0.9539,-0.9414,-0.9067,-0.8498,-0.8914,-0.896,-0.877,-0.9252,-0.9666,-0.9952,-0.981,-0.9591,-0.9294,-0.8302,-0.7592,-0.7062,-0.6526,-0.8394,-1.1445,-1.1295,-1.1983,-1.2784,-2.3189,-2.2293,0.0,0.0,0.0,-1.9711,-1.969,-1.9705,-1.9869,0.0,0.0,0.0,0.0,0.0,0.0,0.0,0.0,-2.5624,-2.7545,0.0,-2.3714,0.0,0.0,-2.3212,0.0,0.0,-2.2721,-2.2695,-2.2426,-2.1857,-2.0991,-2.0991,-2.0249,-1.8873,-1.8179,-1.7153,-1.5811,-1.5632,-1.4739,-1.3442,-1.3404,-1.3105,-1.2794,0.0,-1.4098,-1.3073,-1.2661,0.0,0.0,-1.0955,-1.0113,0.0,0.0,0.0,0.0,0.0,0.0,0.0,0.0,0.0,0.0,-0.4515,0.0,0.0,0.0,0.0,-0.3555,0.0,0.0,0.0,0.0,0.0,0.0,-0.1249,0.0,0.0,0.0,0.0,0.0,0.0,0.0,0.0,0.0,0.0,0.0,-0.3398,-0.4063,-0.4769,-0.5513,-0.6269,-0.6983,-0.7723,-0.848,-0.8474,-0.7759,-0.8235,-0.7895,-0.6907,-0.7847,-0.7896,-0.7113,-0.7631,-0.7866,-0.779,-0.7257,-0.7291,-0.7686,-0.6737,-0.6567,-0.6874,-0.6441,-0.6268,-0.6362,-0.7245,-0.866,-0.982,0.0,0.0,0.0,0.0,0.0,-1.9169,-1.9169,-1.9827,0.0,0.0,0.0,0.0,0.0,-2.518,-2.5914,0.0,0.0,-2.5265,-2.5214,-2.4275,0.0,0.0,0.0,-2.3093,0.0,0.0,0.0,0.0,0.0,-2.1399,-2.055,-2.055,-1.9954,-1.8864,0.0,-1.6279,0.0,0.0,0.0,0.0,0.0,-1.2936,-1.2461,0.0,0.0,-1.2602,-1.1788,-1.1073,0.0,-1.0094,-0.9098,-0.7938,-0.7715,-0.672,-0.5572,-0.5284,-0.484,0.0,0.0,0.0,-0.3562,-0.3562,0.0,0.0,0.0,0.0,0.0,0.0,0.0,0.0,0.0,0.0,-0.0602,0.01,0.0609,0.0,0.0,0.0,0.0,0.0,0.0,0.0,0.0,0.0,0.0,-0.1044,-0.1443,-0.2121,0.0,-0.4487,-0.5454,-0.6215,-0.6945,-0.7235,-0.6966,-0.6936,-0.674,-0.6261,-0.6394,-0.623,-0.5893,-0.6058,-0.6126,-0.6108,-0.5908,-0.5727,-0.5477,-0.4744,-0.4329,-0.4069,-0.3548,-0.3512,-0.3975,-0.5413,-0.6296,-0.6316,-2.2746,0.0,0.0,0.0,0.0,0.0,0.0,0.0,0.0,0.0,-2.3014,0.0,-2.4804,0.0,-2.5983,0.0,-2.5513,-2.4952,-2.413,-2.3625,0.0,-2.3021,-2.2915,0.0,0.0,0.0,0.0,0.0,0.0,-2.1165,-2.0314,-2.0128,-1.9411,-1.8246,0.0,-1.5522,-1.4022,0.0,-1.3247,0.0,0.0,-1.2233,0.0,0.0,-1.1652,-1.2073,0.0,-1.0389,-0.9797,-0.8924,-0.8002,-0.7148,-0.6581,-0.5663,-0.4832,-0.4735,-0.4409,-0.4055,-0.3751,-0.3472,0.0,-0.2864,-0.2216,0.0,-0.2109,0.0,0.0,0.0,0.0,0.0,0.0,0.0,0.0,0.1425,0.1861,0.2273,0.0,0.3061,0.0,0.0,0.0,0.0,0.0,0.0,0.1576,0.0718,0.0605,0.0105,0.0,0.0,-0.3687,-0.4667,-0.5675,-0.619,-0.6199,-0.6048,-0.5845,-0.5585,-0.5148,-0.485,-0.4644,-0.4465,-0.4243,-0.4069,-0.4069,-0.3851,-0.345,-0.3058,-0.2708,-0.231,-0.1734,-0.16,-0.1905,-0.3206,-0.3354,-0.263,0.0,0.0,0.0,0.0,-1.9834,0.0,0.0,0.0,-2.1514,0.0,-2.2811,-2.4211,-2.4163,-2.4593,-2.5213,-2.6006,-2.5403,0.0,-2.4378,-2.3317,0.0,0.0,-2.2409,-2.2265,-2.2231,0.0,0.0,0.0,0.0,0.0,-2.0212,-1.9763,-1.8717,-1.7137,-1.6621,0.0,-1.2478,-1.2982,-1.2342,-1.1019,-1.0971,-1.0954,-1.0899,-1.04,0.0,-1.1448,-1.0498,-0.9845,-0.9142,-0.7529,-0.6945,-0.6693,-0.5556,-0.4783,-0.4336,-0.4525,-0.4234,-0.3796,-0.3201,-0.3145,-0.3113,-0.2332,0.0,0.0,0.0,0.0,-0.1227,0.0,0.0,0.0,0.0,0.0,0.0,0.2725,0.2845,0.3258,0.4368,0.0,0.0,0.0,0.0,0.0,0.0,0.3146,0.262,0.2012,0.2071,0.1857,0.0,0.0,0.0,-0.3016,-0.4494,-0.5283,-0.532,-0.5341,-0.5117,-0.4767,-0.4186,-0.3728,-0.3378,-0.2885,-0.2355,-0.1786,-0.1784,-0.1739,-0.1695,-0.1695,-0.165,-0.156,-0.0976,-0.04,0.0044,-0.0536,0.0,0.1025,-2.2695,-2.2371,-2.1766,0.0,-1.9914,-1.9568,0.0,0.0,0.0,0.0,-2.3486,-2.4218,-2.3662,-2.4867,-2.5357,-2.4544,-2.4291,0.0,0.0,0.0,0.0,-2.2398,-2.1998,-2.1545,-2.1055,-2.1229,0.0,-1.9941,0.0,0.0,-1.9251,-1.914,-1.8207,-1.6579,0.0,0.0,-1.1936,-1.2341,-1.1929,-1.0981,-1.058,-1.038,0.0,0.0,-0.9427,-0.9909,-0.9725,-0.8804,-0.757,-0.7155,-0.6137,-0.4942,-0.42,-0.3591,-0.3093,-0.276,-0.2631,-0.2467,-0.234,-0.1988,-0.1602,-0.1302,-0.0778,-0.0314,0.0,0.0,0.0,0.0,0.0,0.0,0.0,0.0,0.0,0.0,0.4666,0.0,0.0,0.0,0.0,0.718,0.0,0.0,0.0,0.512,0.5101,0.4579,0.4315,0.4125,0.0,0.0,0.0,0.0,-0.145,-0.2479,-0.3058,-0.3032,-0.2971,-0.272,-0.2592,-0.2394,-0.2236,-0.2078,-0.1962,-0.1784,-0.1334,-0.0889,-0.0445,0.0,0.0489,0.089,0.1068,0.1465,0.1952,0.1336,0.186,0.302,-2.2898,0.0,0.0,-2.0797,0.0,0.0,-2.023,0.0,0.0,-2.297,-2.4067,0.0,-2.3831,-2.4132,-2.4091,-2.3193,-2.3274,0.0,0.0,0.0,0.0,-2.2003,-2.1302,-2.0717,-2.0355,-2.0029,0.0,-1.9045,0.0,0.0,-1.8535,-1.8025,-1.7151,-1.5966,0.0,-1.324,0.0,-1.1084,-1.0615,-1.0139,-0.9713,0.0,0.0,-0.8913,-0.8683,-0.8662,-0.8479,-0.7818,-0.6904,-0.644,-0.524,-0.3898,-0.3328,-0.2758,-0.2239,-0.1974,-0.1975,-0.1912,-0.1612,-0.1292,-0.1004,-0.0622,-0.0255,0.0,0.0,0.0,0.0108,0.0,0.0,0.0,0.0,0.0,0.0,0.0,0.0,0.0,0.0,0.0,0.0,0.0,0.0,0.0,0.0,0.6749,0.609,0.545,0.5401,0.5327,0.0,0.0,0.0,0.1935,0.0857,-0.0162,-0.1221,-0.0926,-0.0857,-0.1057,-0.0466,-0.0299,-0.0519,-0.0277,-0.0181,-0.0223,0.0133,0.0489,0.0846,0.142,0.1908,0.2266,0.3002,0.3651,0.4176,0.4073,0.4264,0.4791,0.0,0.0,0.0,0.0,0.0,0.0,0.0,-2.2678,0.0,-2.3204,0.0,-2.4623,-2.377,-2.2886,-2.2232,-2.1901,0.0,-2.2176,-2.1439,-2.139,-2.1341,-2.1272,-2.0326,-1.9745,-1.9649,-1.87,0.0,0.0,0.0,0.0,-1.7854,-1.6789,-1.5879,0.0,0.0,0.0,0.0,-0.9581,-0.9007,0.0,-0.8725,-0.8553,-0.8464,-0.839,-0.8021,-0.7482,-0.6959,-0.6778,-0.6609,-0.5465,-0.4335,-0.3281,-0.2669,-0.2095,-0.165,-0.1607,-0.1651,-0.1599,-0.0951,-0.087,-0.0785,-0.0157,0.0,0.005,0.0105,0.0159,0.0374,0.1109,0.173,0.0,0.0,0.0,0.0,0.0,0.0,0.0,0.0,0.0,0.0,0.0,0.0,0.0,0.0,0.0,0.6732,0.5962,0.6335,0.0,0.0,0.0,0.0,0.0,0.2883,0.0,0.0441,0.0,0.1141,0.0634,0.1693,0.1842,0.1246,0.177,0.2013,0.1932,0.1934,0.2016,0.2182,0.2706,0.3011,0.3309,0.4928,0.5874,0.6409,0.7003,0.699,0.6779,0.0,0.0,0.0,0.0,0.0,-2.1787,-2.2059,-2.166,-2.1417,-2.1636,-2.2335,-2.2378,-2.112,-2.1629,-2.1663,-2.0717,-2.1037,0.0,0.0,0.0,0.0,-1.9495,-1.8974,-1.8419,-1.7883,-1.7526,-1.7286,0.0,0.0,0.0,-1.6676,-1.5997,-1.4812,0.0,0.0,0.0,-0.9898,-0.8863,0.0,-0.8725,-0.8224,-0.7724,-0.7245,-0.6803,-0.6252,-0.5733,-0.5647,-0.5599,-0.5427,-0.42,-0.3372,-0.2672,-0.1563,-0.1163,-0.0939,-0.0448,-0.0325,-0.0338,-0.0193,-0.0194,-0.0146,-0.0049,0.0,0.014,0.0752,0.0916,0.114,0.1873,0.212,0.2393,0.3154,0.0,0.0,0.0,0.0,0.0,0.0,0.0,0.0,0.0,0.0,0.0,0.0,0.0,0.0,0.0,0.0,0.0,0.0,0.0,0.0,0.0,0.0,0.0,0.0,0.0,0.0,0.2739,0.2355,0.2156,0.2023,0.212,0.2386,0.2711,0.2719,0.3163,0.3931,0.4073,0.4669,0.5636,0.6851,0.7403,0.7616,0.8593,0.943,0.9945,0.0,0.0,0.0,0.0,0.0,0.0,0.0,-2.0747,0.0,-2.2059,-2.2209,-2.196,-2.1316,-2.1153,-2.069,-1.9666,-2.023,-2.0409,-1.9818,-1.9735,-1.9673,-1.9673,-1.8285,0.0,-1.7254,-1.625,-1.575,-1.5688,0.0,0.0,-1.552,-1.4926,-1.3986,-1.2764,0.0,-1.0344,0.0,0.0,0.0,-0.8209,-0.7368,-0.6852,-0.6501,-0.5953,-0.5567,-0.526,-0.4957,-0.4648,-0.4291,-0.3676,-0.2932,-0.2095,-0.1163,-0.0672,-0.0359,-0.009,0.0,0.0,0.0,0.0,0.0096,0.0381,0.0462,0.0638,0.1303,0.1539,0.1789,0.2529,0.2701,0.3226,0.4714,0.6109,0.0,0.0,0.0,0.0,0.0,0.0,0.0,0.0,0.0,0.0,0.0,0.0,0.0,0.0,0.0,0.0,0.0,0.0,0.0,0.0,0.0,0.0,0.0,0.0,0.0,0.5027,0.4628,0.4442,0.4362,0.4397,0.4473,0.4598,0.4606,0.5063,0.592,0.6547,0.7345,0.8223,0.908,0.9408,0.9488,1.0339,1.1244,1.1903,0.0,-2.3567,0.0,0.0,-2.2995,0.0,-2.1397,-2.0302,-2.032,-2.2251,-2.1972,-2.1607,-2.169,-2.0795,-1.9814,-1.8954,-1.9353,-1.9495,-1.9089,-1.8847,-1.8872,-1.9231,-1.7424,-1.6451,-1.6537,-1.5003,-1.4269,0.0,0.0,0.0,0.0,-1.3658,0.0,0.0,0.0,0.0,0.0,0.0,-0.7444,-0.7314,-0.6425,-0.5967,-0.5787,-0.5303,-0.5048,-0.4874,-0.4256,-0.3727,-0.3281,-0.3017,-0.2357,-0.1518,-0.0895,-0.0404,0.0045,0.0135,0.0184,0.0236,0.033,0.0377,0.0518,0.0987,0.11,0.1269,0.1949,0.2166,0.2446,0.3245,0.361,0.4388,0.6475,0.7289,0.0,0.0,0.0,0.0,0.0,0.0,0.0,0.0,0.0,0.0,0.0,0.0,0.0,0.0,0.0,0.0,0.0,0.0,0.0,0.0,0.0,0.8754,0.7817,0.0,0.6961,0.0,0.6696,0.6546,0.6426,0.6426,0.6457,0.6433,0.6471,0.6942,0.7889,0.915,0.9943,1.045,1.1013,1.118,1.118,1.1839,1.2507,1.3026,0.0,0.0,0.0,0.0,0.0,0.0,0.0,-2.0939,-1.9844,-2.0485,-2.0146,-1.9995,-2.0426,-1.9984,-1.9441,-1.8954,-1.8037,-1.7435,-1.7342,-1.6799,-1.6261,-1.5777,-1.5549,-1.5211,-1.4745,-1.3742,-1.3512,0.0,0.0,0.0,0.0,0.0,0.0,0.0,0.0,0.0,0.0,-0.7244,-0.6715,-0.5718,-0.5631,-0.5172,-0.4561,-0.4522,-0.418,-0.3663,-0.3075,-0.2804,-0.2627,-0.1517,-0.1073,-0.0895,-0.0269,-0.0045,0.009,0.0672,0.0808,0.0945,0.1482,0.1617,0.1661,0.1706,0.1701,0.1959,0.2803,0.3008,0.3281,0.4165,0.4882,0.5756,0.7283,0.767,0.8137,0.0,0.0,0.0,0.0,0.0,0.0,0.0,0.0,0.0,0.0,0.0,0.0,0.0,0.0,0.0,0.0,0.0,0.0,0.9994,0.0,1.0205,0.8619,0.8521,0.0,0.7616,0.6912,0.6578,0.6558,0.6558,0.6807,0.7199,0.7253,0.8228,0.9832,1.0966,1.1526,1.1699,1.2245,1.2124,1.1836,1.2671,1.3026,1.3196,0.0,0.0,0.0,0.0,0.0,0.0,0.0,-2.1495,-2.0317,-1.9943,-1.9728,-1.957,-1.9396,-1.9156,-1.8569,-1.7477,-1.6578,-1.5892,-1.5538,-1.5237,-1.5005,-1.4891,-1.4751,-1.4428,-1.3855,-1.3299,-1.2738,0.0,0.0,0.0,0.0,0.0,0.0,0.0,0.0,-0.8088,-0.7331,-0.7024,-0.6462,-0.5724,-0.5093,-0.4449,-0.3811,-0.3507,-0.3025,-0.2499,-0.223,-0.1919,-0.1563,-0.1073,-0.0895,-0.0806,-0.018,0.0269,0.0583,0.0851,0.1163,0.1474,0.1741,0.1786,0.1873,0.2228,0.2361,0.2535,0.3354,0.3944,0.4418,0.4861,0.5954,0.7009,0.761,0.8402,0.9287,0.0,0.0,0.0,0.0,0.0,0.0,0.0,0.0,0.0,0.0,0.0,1.2099,0.0,0.0,0.0,0.0,0.0,0.0,1.1351,0.0,1.1053,0.9974,0.9577,0.9228,0.8981,0.8652,0.8744,0.9096,0.9096,0.924,0.9438,1.0277,1.1055,1.178,1.2989,1.3542,1.362,1.3737,1.3678,1.3574,1.3834,1.4095,1.4351,-2.4487,0.0,-2.5089,0.0,-2.5083,-2.4532,-2.3185,-2.1859,-2.0645,-1.9516,-1.9104,-1.8829,-1.8617,-1.8043,-1.7236,-1.6188,-1.5166,-1.4418,-1.3995,-1.3517,-1.3303,-1.3484,-1.3342,0.0,-1.2273,-1.2113,-1.1544,-1.0462,-1.0416,0.0,0.0,0.0,0.0,0.0,-0.8444,-0.7683,-0.6837,-0.6401,-0.5901,-0.5275,-0.4347,-0.3681,-0.3196,-0.2627,-0.2184,-0.1784,-0.1607,-0.1252,-0.085,-0.0492,-0.0358,-0.0313,0.0135,0.0672,0.1207,0.1385,0.1741,0.2095,0.2275,0.2322,0.241,0.2854,0.3143,0.3478,0.4055,0.4844,0.5581,0.5944,0.7203,0.8283,0.8296,0.928,1.0312,1.0965,0.0,0.0,0.0,0.0,0.0,0.0,1.3909,1.3636,1.3163,0.0,0.0,0.0,0.0,0.0,0.0,0.0,0.0,0.0,0.0,0.0,0.0,1.0618,1.0269,1.0115,1.0115,1.0364,1.0813,1.0813,1.1007,1.1449,1.2376,1.31,1.3705,1.4744,1.5109,1.5016,1.5082,1.4902,1.4647,1.4653,1.4845,1.5134,-2.5614,-2.6235,-2.6729,-2.6255,-2.6015,-2.5286,-2.348,-2.2004,-2.0564,-1.9024,-1.7877,-1.7437,-1.8052,-1.6583,-1.5501,-1.5417,-1.3818,-1.2782,-1.2714,-1.1465,-1.0776,0.0,0.0,-1.0436,-0.9582,-0.9721,-0.968,-0.9424,0.0,0.0,-0.8743,0.0,-0.8571,-0.8317,-0.7909,-0.6655,-0.4973,-0.5195,-0.4761,-0.3792,-0.3175,-0.282,-0.2627,-0.2051,-0.1786,-0.1741,-0.1118,-0.0895,-0.0716,0.0492,0.0895,0.0895,0.0895,0.1297,0.1919,0.2495,0.2672,0.2807,0.3398,0.3578,0.3578,0.3578,0.4221,0.4896,0.5043,0.5736,0.6623,0.7499,0.8724,0.9695,0.9755,1.0312,1.1015,1.1665,0.0,0.0,0.0,0.0,0.0,0.0,1.3909,1.3636,1.3163,0.0,0.0,0.0,0.0,0.0,0.0,0.0,0.0,1.2861,1.2881,0.0,1.1814,1.1765,1.1466,1.0762,1.0762,1.0813,1.0813,1.0813,1.1499,1.2773,1.2764,1.3846,1.5632,1.6176,1.6038,1.5559,1.6082,1.5565,1.4547,1.4951,1.5104,1.521,-2.5283,-2.5473,-2.5666,-2.5667,-2.5587,-2.5142,-2.3882,-2.2139,-2.0384,-1.8796,-1.6749,-1.5325,-1.5103,-1.4575,-1.4028,0.0,-1.1849,-1.0527,0.0,-0.957,-0.901,-0.823,-0.8941,-0.9096,-0.8504,-0.8832,-0.8838,-0.8382,0.0,0.0,0.0,-0.7271,-0.7292,-0.7583,-0.7052,-0.6179,-0.5178,-0.5073,-0.4296,-0.3169,-0.2895,-0.2256,-0.1474,-0.1252,-0.094,-0.0538,-0.0359,0.0,0.0403,0.076,0.1429,0.214,0.214,0.2492,0.2932,0.276,0.3246,0.3822,0.3663,0.388,0.4136,0.4136,0.4799,0.5506,0.5678,0.6518,0.7612,0.8856,0.9488,0.9894,1.0407,1.1015,1.1706,1.2385,0.0,0.0,0.0,0.0,0.0,0.0,0.0,1.4982,0.0,1.4597,0.0,0.0,0.0,0.0,0.0,0.0,0.0,0.0,1.2881,0.0,1.1814,1.1814,1.1715,1.1466,1.1466,1.1724,1.2255,1.2657,1.3082,1.3521,1.4332,1.5274,1.6176,1.6786,1.685,1.6617,1.6676,1.6222,1.5552,1.5816,1.5924,1.607,-2.4841,-2.4804,-2.4844,-2.4957,-2.5096,-2.4797,-2.369,-2.1594,-1.9601,-1.8055,-1.5301,-1.3429,-1.3365,-1.2647,0.0,-1.1608,-1.0485,-0.928,-0.8,-0.7894,-0.7448,-0.6457,-0.7145,-0.7422,-0.7323,0.0,0.0,-0.741,-0.6722,-0.6487,-0.6665,-0.6203,-0.6194,-0.6587,-0.6215,-0.5609,-0.4805,-0.463,-0.3893,-0.282,-0.2478,-0.1784,-0.0895,-0.0627,-0.0314,0.0,0.0,0.0404,0.094,0.1163,0.1873,0.2719,0.2987,0.3422,0.3723,0.3208,0.369,0.4347,0.4008,0.4136,0.4434,0.4696,0.5485,0.6365,0.6906,0.7792,0.8718,0.9607,1.0218,1.0661,1.1116,1.1953,1.2686,1.312,1.3924,1.4721,0.0,0.0,0.0,0.0,0.0,0.0,0.0,1.5276,0.0,0.0,0.0,0.0,0.0,0.0,0.0,1.3228,1.3238,0.0,1.2236,1.2187,1.2325,1.255,1.2773,1.313,1.361,1.3967,1.4283,1.4538,1.5475,1.6219,1.6815,1.7572,1.7708,1.7427,1.7704,1.7297,1.6576,1.7104,1.7153,1.7054,-2.4261,-2.4157,0.0,0.0,-2.4348,0.0,-2.2635,-2.0299,-1.8135,-1.6518,-1.3424,-1.1686,-1.2445,-1.0839,-0.9614,-0.9402,0.0,0.0,0.0,-0.6529,-0.6204,-0.5487,-0.5433,-0.5668,-0.6088,-0.5987,-0.6097,-0.644,-0.525,-0.5132,-0.5931,-0.5433,-0.5307,-0.5487,-0.542,-0.491,-0.4019,-0.3959,-0.3449,-0.2583,-0.1962,-0.1385,-0.0761,-0.0225,0.0,0.0,0.0045,0.0448,0.1073,0.1652,0.2273,0.2854,0.3442,0.3965,0.4303,0.3751,0.4008,0.4434,0.4391,0.4478,0.4652,0.526,0.6327,0.7474,0.854,0.9242,0.9762,0.9814,1.0813,1.1765,1.1814,1.289,1.3815,1.3862,1.4858,1.5632,1.5676,0.0,0.0,0.0,0.0,0.0,0.0,1.5676,1.5676,0.0,0.0,0.0,0.0,0.0,1.4514,1.3862,1.3862,1.36,1.3017,1.3017,1.3286,1.3862,1.4422,1.4698,1.4698,1.4744,1.5107,1.5676,1.6219,1.6815,1.7504,1.8496,1.8518,1.805,1.9043,1.8579,1.7506,1.8623,1.8587,1.8162,0.0,0.0,-2.2392,-2.2392,-2.2134,-2.0954,-1.8133,-1.7118,-1.5447,-1.2001,-1.0691,-1.0,-0.9688,-0.9245,-0.8521,-0.7405,-0.7853,-0.7486,-0.5869,-0.576,-0.5437,-0.4787,-0.4732,-0.4927,-0.5371,-0.5244,-0.5074,-0.4939,-0.4631,-0.4759,-0.5291,-0.4649,-0.4721,-0.5479,-0.482,-0.4296,-0.3963,-0.3408,-0.2709,-0.1962,-0.134,-0.0761,-0.018,-0.0045,0.0,0.0045,0.0538,0.1073,0.1697,0.2273,0.2898,0.3398,0.3534,0.3965,0.4303,0.3751,0.4316,0.5,0.4517,0.5087,0.591,0.6446,0.7448,0.8338,0.8491,0.8799,0.9159,0.971,1.0466,1.1216,1.1715,1.289,1.3956,1.4422,1.5096,1.5764,1.6238,1.6423,0.0,0.0,1.638,1.6281,1.6281,1.6281,1.6281,0.0,0.0,0.0,0.0,1.6151,1.5611,1.4514,1.4468,1.4433,1.4294,1.4247,1.434,1.4468,1.4606,1.4698,1.4709,1.5186,1.5708,1.6262,1.6828,1.7612,1.8535,1.8817,1.8753,1.8584,1.9157,1.8874,1.8234,1.907,1.9285,1.918,-2.0659,-1.9996,-1.9829,-2.0721,-2.0056,-1.8385,-1.5412,-1.3632,-1.1666,-0.8989,-0.7548,-0.697,-0.7562,-0.7315,-0.6919,-0.6417,-0.7203,-0.6961,-0.5164,-0.4992,-0.4827,-0.4515,-0.4181,-0.4412,-0.5288,-0.4813,-0.4311,-0.3701,-0.3633,-0.3764,-0.4097,-0.4031,-0.4342,-0.4892,-0.418,-0.3729,-0.355,-0.2825,-0.2082,-0.1378,-0.1013,-0.0547,0.0,0.0,0.018,0.0448,0.0761,0.1474,0.2273,0.2583,0.3078,0.3581,0.3581,0.3965,0.4347,0.4049,0.4613,0.5303,0.5216,0.5862,0.6787,0.7716,0.8312,0.8696,0.8736,0.8796,0.9008,0.9666,1.0312,1.1015,1.1665,1.312,1.4329,1.4663,1.5421,1.6151,1.6466,1.6522,0.0,1.6522,1.6522,1.6522,1.6522,1.6522,1.6522,1.6522,0.0,0.0,1.6522,1.6522,1.6064,1.5141,1.5096,1.4971,1.4698,1.4971,1.5096,1.5096,1.5377,1.5522,1.5522,1.5876,1.6287,1.6828,1.7409,1.8145,1.893,1.9169,1.9328,1.9485,1.9967,1.983,1.9482,2.0428,2.0582,2.0358,-1.7976,-1.6626,-1.6111,-1.7353,-1.6246,-1.4315,-1.1738,-0.9162,-0.7068,-0.5876,-0.4191,-0.38,-0.5668,-0.5259,-0.5043,-0.5639,-0.6493,-0.6275,-0.4423,-0.4133,-0.4075,-0.4149,-0.3539,-0.3802,-0.4973,-0.4246,-0.3486,-0.2726,-0.263,-0.264,-0.28,-0.3383,-0.3761,-0.3902,-0.3433,-0.3096,-0.2897,-0.2172,-0.1478,-0.0904,-0.0809,-0.0465,0.0,0.0,0.0359,0.0895,0.0984,0.1741,0.2719,0.2807,0.317,0.3581,0.3581,0.3965,0.4434,0.4522,0.5038,0.569,0.6173,0.6833,0.7635,0.8741,0.8999,0.905,0.9242,0.9105,0.9159,0.9814,1.0415,1.1015,1.1665,1.3406,1.4698,1.4698,1.57,1.6522,1.6522,0.0,1.6547,1.6635,1.6572,1.6559,1.6635,1.6572,1.6522,1.6522,1.6522,1.6522,0.0,1.6522,1.6281,1.5764,1.5732,1.5499,1.4971,1.5466,1.5732,1.5732,1.6238,1.6552,1.6637,1.6637,1.6951,1.7585,1.8092,1.8598,1.908,1.9645,2.007,2.0348,2.0894,2.0933,2.0801,2.19,2.1904,2.1431,-1.6231,-1.3086,-0.9694,-0.77,-0.5831,-0.3761,-0.1381,-0.1865,-0.1757,0.0396,-0.1086,-0.2715,-0.3687,-0.3141,-0.299,-0.3692,-0.3873,-0.3808,-0.3361,-0.2828,-0.256,-0.2562,-0.2456,-0.2475,-0.2711,-0.2464,-0.2221,-0.1982,-0.1969,-0.2005,-0.2136,-0.2245,-0.2397,-0.249,-0.2419,-0.2304,-0.2136,-0.1519,-0.1121,-0.0857,-0.0334,-0.0093,0.0,0.0,0.0359,0.0984,0.1474,0.2097,0.2763,0.3306,0.3534,0.3581,0.3581,0.3965,0.4522,0.5,0.5893,0.6735,0.6868,0.7982,0.9039,0.8823,0.9563,1.0174,0.9722,0.9619,0.9814,1.0517,1.072,1.1015,1.1665,1.3406,1.4698,1.4698,1.57,1.6522,1.6522,0.0,1.6697,1.7187,1.681,1.671,1.72,1.681,1.6522,1.6522,1.6522,1.6522,1.6522,1.6522,1.6479,1.638,1.638,1.6337,1.6194,1.6293,1.638,1.638,1.6479,1.6752,1.7188,1.7188,1.7706,1.8688,1.9148,1.9434,1.9639,2.0465,2.0583,2.0382,2.1197,2.1486,2.1493,2.2084,2.2243,2.2073,-1.0771,-0.7334,-0.3902,-0.0815,0.2287,0.4835,0.625,0.5521,0.4438,0.3402,0.1404,-0.0213,-0.0872,-0.0701,-0.0926,-0.1926,-0.1432,-0.113,-0.1334,-0.1494,-0.1783,-0.2175,-0.1819,-0.163,-0.1707,-0.1567,-0.1174,-0.0459,-0.072,-0.0855,-0.0918,-0.1312,-0.1722,-0.2055,-0.1759,-0.1576,-0.1453,-0.0808,-0.0478,-0.0404,-0.0099,0.0,0.0046,0.0362,0.0851,0.1474,0.2051,0.2677,0.3214,0.349,0.3581,0.3581,0.3581,0.4184,0.4957,0.5216,0.6112,0.721,0.8113,0.8699,0.9203,0.974,1.0227,1.0579,1.0499,1.0433,1.0415,1.0762,1.1065,1.1408,1.1765,1.3406,1.4698,1.4698,1.57,0.0,0.0,1.6785,1.6974,1.6923,1.6961,1.7087,1.735,1.7137,1.7099,1.74,1.7149,1.6986,1.6986,1.6685,1.6522,1.6522,1.6522,1.6522,1.6522,1.6522,1.6522,1.6522,1.6795,1.7076,1.7312,1.7585,1.8185,1.893,1.914,1.9413,1.9726,2.0139,2.0296,2.0348,2.0732,2.1197,2.1628,2.1823,2.2077,2.226,-0.4383,-0.1067,0.2102,0.578,0.9318,1.1721,1.1735,1.1273,0.9514,0.5715,0.3614,0.2187,0.1341,0.1346,0.0929,-0.0178,0.0594,0.0948,0.0593,-0.0049,-0.0709,-0.1412,-0.1047,-0.0821,-0.0774,-0.0679,-0.0094,0.0978,0.0587,0.0401,0.0401,-0.0184,-0.0653,-0.1079,-0.0608,-0.0367,-0.0368,0.0055,0.0275,0.0265,0.0051,0.0099,0.0238,0.0728,0.134,0.2051,0.2539,0.3078,0.3581,0.3581,0.3581,0.3622,0.3751,0.4487,0.5346,0.548,0.6379,0.7651,0.9096,0.9261,0.9319,1.0574,1.0922,1.1058,1.137,1.1244,1.1065,1.1275,1.1575,1.1913,1.2209,1.3595,1.4744,1.488,0.0,0.0,0.0,1.7024,1.7262,1.6948,1.73,1.7614,1.7752,1.7652,1.7752,1.8179,1.7815,1.7513,1.7388,1.6961,1.666,1.6522,1.6522,1.6552,1.668,1.668,1.6752,1.6879,1.7312,1.7544,1.7706,1.8106,1.8574,1.9095,1.9177,1.9427,1.9711,2.0015,2.0261,2.0483,2.0682,2.1165,2.1764,2.1764,2.2003,2.231,0.174,0.4919,0.8832,1.3402,1.5594,1.6201,1.4489,1.3666,1.1967,0.8357,0.5627,0.3442,0.192,0.2328,0.2423,0.1655,0.17,0.1734,0.1663,0.1609,0.1356,0.0861,0.0237,0.0185,0.0719,0.0735,0.1077,0.1703,0.1698,0.165,0.165,0.1611,0.1567,0.1528,0.1707,0.1767,0.1725,0.125,0.1041,0.0952,0.0256,0.0345,0.0853,0.0864,0.1607,0.263,0.2672,0.3078,0.3581,0.3581,0.3581,0.3667,0.4176,0.4783,0.5394,0.5959,0.7214,0.8547,0.9296,0.974,1.0145,1.0733,1.1509,1.2095,1.2124,1.1948,1.1922,1.2618,1.2236,1.2209,1.3426,1.4236,1.488,1.5454,0.0,0.0,1.6522,1.7024,1.7551,1.8028,1.8116,1.8342,1.8857,1.8442,1.8166,1.8204,1.8166,1.7928,1.7413,1.7338,1.7074,1.6534,1.6522,1.6752,1.7229,1.7229,1.7504,1.7987,1.8027,1.8302,1.8779,1.8817,1.9132,1.9675,2.0054,2.0019,1.9782,2.0975,2.1275,2.1039,2.1857,2.218,2.2254,2.2254,2.2282,2.231,0.6886,1.1121,1.4987,1.681,1.8579,1.9038,1.6827,1.5609,1.3456,0.94,0.6454,0.4451,0.3705,0.3431,0.3089,0.241,0.2679,0.2773,0.2506,0.2704,0.2437,0.1552,0.1275,0.1404,0.1991,0.1641,0.1921,0.2904,0.2544,0.2361,0.2361,0.2361,0.214,0.1789,0.1847,0.1919,0.1965,0.1658,0.1653,0.1744,0.139,0.1397,0.1618,0.1978,0.237,0.2763,0.3126,0.3398,0.3581,0.3581,0.384,0.4136,0.4347,0.5087,0.6073,0.7198,0.799,0.8759,0.9882,1.036,1.0717,1.1518,1.1937,1.2305,1.2578,1.2551,1.2559,1.2822,1.2977,1.3188,1.3721,1.4595,1.532,1.5543,0.0,1.6751,1.7501,1.7479,1.7753,1.8662,1.8151,1.8042,1.8905,1.8494,1.848,1.9145,1.8581,1.8116,1.7903,1.7225,1.6748,1.6522,1.6837,1.6909,1.6795,1.7105,1.7394,1.7626,1.8302,1.8688,1.8893,1.9244,1.953,1.9726,1.9874,1.9965,2.0089,2.0601,2.0878,2.1023,2.1354,2.1645,2.1869,2.1869,2.2032,2.231,1.1871,1.561,1.8687,1.9171,2.0656,2.0957,1.8412,1.6828,1.4427,1.0098,0.7134,0.5236,0.4654,0.3991,0.3442,0.3034,0.3353,0.3529,0.3382,0.3612,0.3256,0.2129,0.1921,0.2139,0.2922,0.2395,0.2674,0.3836,0.3255,0.299,0.299,0.299,0.2765,0.237,0.2421,0.2503,0.2571,0.2331,0.2316,0.2462,0.2191,0.2132,0.2303,0.2745,0.2914,0.3034,0.3442,0.3711,0.3836,0.3836,0.4224,0.4739,0.4913,0.5869,0.7151,0.8281,0.898,0.96,1.0578,1.1168,1.1591,1.2095,1.2334,1.251,1.2812,1.2881,1.2881,1.2881,1.3372,1.3862,1.405,1.4903,1.5676,1.5864,1.6386,1.7053,1.7866,1.7956,1.82,1.8948,1.8513,1.8526,1.9488,1.9032,1.9147,2.0306,1.9336,1.857,1.8216,1.7137,1.6522,1.6522,1.7034,1.7105,1.6752,1.7463,1.7907,1.8066,1.8817,1.9169,1.9169,1.953,1.9782,1.9874,1.9874,2.0139,2.0516,2.0682,2.091,2.1213,2.1354,2.1584,2.1823,2.1823,2.2032,2.231,1.6691,1.8081,1.9552,2.0905,2.21,2.1949,1.9125,1.7338,1.4778,1.0549,0.7802,0.5746,0.456,0.3924,0.3581,0.3626,0.3626,0.3836,0.4391,0.4391,0.388,0.2775,0.2139,0.2359,0.3456,0.2978,0.3246,0.4387,0.388,0.3626,0.3581,0.3581,0.3581,0.3585,0.3727,0.3788,0.3765,0.3292,0.3129,0.3076,0.2489,0.2489,0.2901,0.2888,0.3196,0.3581,0.3626,0.3965,0.4387,0.4391,0.4826,0.5399,0.6007,0.7271,0.8612,0.9169,1.0302,1.1378,1.1378,1.2139,1.2773,1.2344,1.2559,1.2881,1.2929,1.2929,1.2929,1.2929,1.3372,1.4003,1.4606,1.5186,1.5808,1.6423,1.6999,1.7384,1.7334,1.8297,1.8977,1.8919,1.944,2.0066,2.0763,2.0207,2.0353,2.1608,2.0515,1.9322,1.8276,1.7124,1.6522,1.6522,1.7034,1.7312,1.7312,1.838,1.9169,1.969,1.969,1.969,1.969,1.969,1.9909,2.0314,2.0314,2.055,2.1023,2.143,2.1582,2.1658,2.2106,2.231,2.231,2.231,2.231,2.231,1.955,2.0752,2.2013,2.2743,2.2581,2.1591,1.9326,1.718,1.438,1.0472,0.815,0.6422,0.5174,0.4184,0.3751,0.4136,0.4176,0.457,0.5615,0.487,0.4631,0.512,0.3803,0.3214,0.3568,0.3778,0.3869,0.3836,0.4049,0.3965,0.3581,0.3581,0.3581,0.3581,0.3626,0.3925,0.4447,0.4403,0.4725,0.5207,0.4636,0.439,0.4394,0.3863,0.3654,0.3667,0.4008,0.4264,0.4495,0.5122,0.5715,0.6427,0.7698,0.8731,0.9542,0.9935,1.0722,1.1433,1.1619,1.2299,1.2852,1.2725,1.2783,1.3017,1.3409,1.3552,1.3647,1.4071,1.4641,1.5129,1.532,1.582,1.6281,1.6466,1.666,1.7355,1.901,1.8822,1.9285,2.132,2.0654,2.0385,2.135,2.09,2.0904,2.1655,2.0575,1.9234,1.7697,1.7607,1.7463,1.7076,1.7947,1.8419,1.8419,1.8727,1.8968,1.9132,1.953,1.969,1.969,1.969,1.9782,1.9909,2.0193,2.055,2.1023,2.143,2.1794,2.2106,2.2254,2.231,2.231,2.231,2.231,2.231,2.1729,2.2509,2.3369,2.3833,2.2929,2.1424,1.9328,1.6964,1.4138,1.0573,0.8623,0.7115,0.5963,0.4995,0.4523,0.4744,0.4957,0.5437,0.6136,0.5303,0.5173,0.6136,0.4748,0.414,0.4622,0.4482,0.4351,0.4272,0.4351,0.4136,0.3581,0.3581,0.3711,0.3921,0.3921,0.4369,0.5088,0.5264,0.5678,0.6242,0.5836,0.5411,0.5037,0.4484,0.4015,0.3667,0.422,0.4565,0.4898,0.5741,0.6711,0.7747,0.9219,1.0023,1.0554,1.0986,1.1506,1.2025,1.2171,1.2559,1.2881,1.2881,1.2881,1.3027,1.3372,1.3637,1.3909,1.4283,1.5005,1.5588,1.5588,1.6095,1.6597,1.6823,1.6861,1.7427,1.91,1.887,1.9195,2.0992,2.0712,2.0699,2.1614,2.1393,2.1355,2.1661,2.0823,1.9857,1.8831,1.8601,1.8494,1.8409,1.8711,1.9022,1.9281,1.9263,1.9207,1.9207,1.9566,1.9824,2.0094,1.9809,1.9918,2.036,2.0577,2.0901,2.1276,2.1802,2.2029,2.2032,2.2237,2.218,2.2049,2.2237,2.231,2.231,2.3322,2.3583,2.3927,2.427,2.3095,2.1334,1.9138,1.6679,1.395,1.082,0.9116,0.7842,0.6762,0.6127,0.5666,0.544,0.5933,0.6264,0.6264,0.5696,0.5653,0.6264,0.513,0.5053,0.63,0.5096,0.4739,0.5216,0.4652,0.4136,0.3581,0.3667,0.3924,0.4391,0.4535,0.5035,0.5784,0.6086,0.6365,0.656,0.6417,0.5925,0.5269,0.497,0.4421,0.3865,0.4437,0.5052,0.5701,0.6621,0.7907,0.9384,1.0533,1.1196,1.163,1.2136,1.2568,1.2881,1.2881,1.2881,1.2881,1.2881,1.2881,1.2929,1.2978,1.3467,1.392,1.401,1.4971,1.576,1.5808,1.6298,1.6823,1.73,1.7426,1.7664,1.8201,1.869,1.9057,1.9238,2.0203,2.1126,2.1831,2.1888,2.1845,2.1801,2.1288,2.0945,2.09,1.985,1.9517,2.0145,1.9512,1.9431,2.0038,1.993,1.9809,1.969,1.975,2.0109,2.0692,2.0124,2.0379,2.1301,2.1435,2.1544,2.173,2.2388,2.2304,2.1817,2.2168,2.2003,2.1658,2.2135,2.2265,2.2237,2.4173,2.444,2.4525,2.3954,2.2374,2.0443,1.8293,1.6157,1.3726,1.0798,0.9691,0.8654,0.7175,0.6474,0.6133,0.6316,0.6637,0.6816,0.6816,0.6301,0.6258,0.681,0.5733,0.5777,0.7191,0.5832,0.4957,0.4609,0.4478,0.4136,0.3626,0.4052,0.4303,0.4439,0.5715,0.6332,0.6493,0.7509,0.7959,0.7923,0.7553,0.7098,0.6622,0.6211,0.5722,0.5358,0.6184,0.6947,0.7709,0.9111,1.0277,1.1212,1.1513,1.2041,1.258,1.2686,1.2803,1.2881,1.2881,1.2881,1.2881,1.2881,1.2881,1.3017,1.3515,1.4061,1.4753,1.5649,1.6459,1.7132,1.7554,1.7734,1.7739,1.7438,1.7739,1.8236,1.8811,1.9389,2.0316,2.1693,2.2101,2.2512,2.3155,2.3213,2.2981,2.2538,2.1899,2.1348,2.0945,2.0556,2.0469,2.0724,2.0969,2.1164,2.1312,2.1281,2.0722,1.969,2.0228,2.0572,2.0722,2.1096,2.1273,2.1352,2.2307,2.2633,2.2483,2.3023,2.3126,2.2954,2.2502,2.2003,2.1658,2.2135,2.2077,2.1794,2.487,2.4955,2.4667,2.3475,2.167,1.9655,1.7492,1.5508,1.3371,1.0893,1.0456,0.9739,0.7941,0.7713,0.765,0.7481,0.7309,0.7235,0.7235,0.6594,0.6435,0.6979,0.6284,0.6361,0.7255,0.6523,0.5933,0.5459,0.4741,0.4395,0.4403,0.4395,0.486,0.5679,0.6705,0.7533,0.8134,0.9026,0.9296,0.9024,0.8666,0.8024,0.7235,0.6894,0.639,0.6044,0.68,0.7791,0.8923,1.0401,1.1297,1.1864,1.2187,1.2608,1.2881,1.2881,1.2881,1.2881,1.2881,1.2881,1.293,1.3135,1.3461,1.3734,1.3784,1.4457,1.5347,1.622,1.7125,1.779,1.7802,1.8028,1.8116,1.7815,1.8016,1.8374,1.8982,1.9316,1.988,2.0833,2.1693,2.26,2.3522,2.3317,2.3149,2.3127,2.2228,2.1863,2.2176,2.1857,2.1821,2.2186,2.1873,2.1844,2.2158,2.1859,2.1335,2.0647,2.1006,2.135,2.165,2.168,2.1807,2.2034,2.2889,2.3112,2.2931,2.3735,2.3566,2.2777,2.2807,2.2062,2.1102,2.1974,2.2003,2.1727,2.5325,2.5156,2.451,2.2903,2.1117,1.9119,1.6917,1.5087,1.3273,1.1408,1.1332,1.0762,0.884,0.8984,0.8997,0.8427,0.791,0.7567,0.7513,0.6799,0.6631,0.7052,0.6887,0.6905,0.7211,0.7127,0.6919,0.6606,0.5306,0.4972,0.5463,0.5184,0.5788,0.7233,0.7923,0.8844,0.9856,1.041,1.0302,0.9791,0.9572,0.8727,0.7621,0.745,0.7048,0.6666,0.7303,0.8539,1.0002,1.125,1.1803,1.208,1.2715,1.2881,1.2881,1.2881,1.2881,1.29,1.2969,1.2988,1.3096,1.3506,1.4043,1.4482,1.4238,1.503,1.5969,1.6575,1.7554,1.8229,1.7865,1.8166,1.8442,1.8355,1.8417,1.8606,1.8933,1.9067,1.9219,1.942,2.0975,2.2437,2.3496,2.3273,2.3274,2.3881,2.2775,2.2534,2.3731,2.3091,2.2986,2.358,2.2577,2.2278,2.2873,2.2293,2.2064,2.2169,2.2064,2.2274,2.2802,2.2445,2.2595,2.3086,2.3624,2.3719,2.3608,2.4541,2.3932,2.2491,2.3164,2.2165,2.0449,2.1777,2.1969,2.1826,2.5428,2.5041,2.4101,2.226,2.094,1.9322,1.6814,1.5363,1.4075,1.2725,1.2055,1.1189,0.9746,0.8961,0.852,0.8427,0.8063,0.7749,0.7527,0.7384,0.7364,0.7453,0.7397,0.7649,0.8183,0.7473,0.6919,0.6606,0.6175,0.6017,0.6113,0.7136,0.7736,0.8027,0.9993,1.0672,1.037,1.123,1.0923,0.9814,0.9769,0.9133,0.829,0.8501,0.837,0.8237,0.9126,1.0311,1.1621,1.2434,1.2725,1.2774,1.2881,1.2881,1.2881,1.2881,1.2881,1.2959,1.332,1.3418,1.3525,1.3945,1.4096,1.4487,1.5585,1.6477,1.7205,1.7757,1.8437,1.9032,1.9409,1.9535,1.9434,1.8995,1.9296,1.9459,1.9083,1.9397,2.0093,2.1107,2.2366,2.3308,2.3652,2.4028,2.4568,2.5299,2.4163,2.3749,2.4448,2.3347,2.2981,2.3595,2.343,2.3385,2.3475,2.3385,2.358,2.4045,2.358,2.3322,2.3319,2.4288,2.4644,2.4557,2.5317,2.5506,2.5278,2.5428,2.4762,2.3654,2.3671,2.2278,2.0444,2.1696,2.1889,2.1856,2.5253,2.4632,2.3474,2.1484,2.0036,1.831,1.583,1.4721,1.3747,1.2385,1.2325,1.1891,1.0517,0.9636,0.9015,0.8662,0.8679,0.8538,0.8031,0.8175,0.8299,0.8299,0.8472,0.8758,0.9242,0.8827,0.8623,0.8732,0.7032,0.6733,0.7734,0.7957,0.8651,0.9641,1.0862,1.1387,1.1471,1.2127,1.1633,1.0364,1.0364,0.968,0.8631,0.8758,0.8978,0.9322,1.0511,1.1325,1.1882,1.2666,1.2881,1.2881,1.2881,1.3037,1.3232,1.3232,1.3398,1.3623,1.3809,1.3857,1.3955,1.4394,1.4809,1.5347,1.6192,1.6941,1.7664,1.8458,1.9045,1.9447,1.9384,1.9874,2.01,1.9547,2.0175,2.0665,2.0439,2.0338,2.0627,2.1485,2.3013,2.3861,2.3568,2.4476,2.5069,2.4966,2.4515,2.4367,2.4597,2.4399,2.428,2.4134,2.4522,2.4717,2.4717,2.4717,2.4852,2.5104,2.5493,2.5211,2.4413,2.465,2.4853,2.507,2.5704,2.5938,2.583,2.6118,2.5296,2.3902,2.3836,2.2524,2.0824,2.1862,2.1851,2.1535]},{"header":{"parameterUnit":"m.s-1","parameterCategory":1,"la1":30.6,"la2":28.766,"lo1":-90.7593,"lo2":-88.6598,"dy":0.0162,"dx":0.0183,"nx":116,"ny":114,"refTime":"2023-09-09T06:00:00:Z","depth":0,"parameterNumber":3,"parameterNumberName":"V-component_of_WINDS"},"data":[0.0,0.0,0.0,0.0,0.0,0.0,0.0,0.0,0.0,0.0,0.0,0.0,0.0,0.0,0.0,0.0,0.0,0.0,0.0,0.0,0.0,0.0,0.0,0.0,0.0,0.0,0.0,0.0,0.0,0.0,0.0,0.0,0.0,0.0,0.0,0.0,0.0,0.0,0.0,0.0,0.0,0.0,0.0,0.0,0.0,0.0,0.0,0.0,0.0,0.0,0.0,0.0,0.0,0.0,0.0,0.0,0.0,0.0,0.0,0.0,0.0,0.0,0.0,0.0,0.0,0.0,0.0,0.0,0.0,0.0,0.0,0.0,0.0,0.0,0.0,0.0,0.0,0.0,0.0,0.0,0.0,0.0,0.0,0.0,0.0,0.0,0.0,0.0,0.0,0.0,0.0,0.0,0.0,0.0,0.0,0.0,0.0,0.0,0.0,0.0,0.0,0.0,0.0,0.0,0.0,0.0,0.0,0.0,0.0,0.0,0.0,0.0,0.0,0.0,0.0,0.0,0.0,0.0,0.0,0.0,0.0,0.0,0.0,0.0,0.0,0.0,0.0,0.0,0.0,0.0,0.0,0.0,0.0,0.0,0.0,0.0,0.0,0.0,0.0,0.0,0.0,0.0,0.0,0.0,0.0,0.0,0.0,0.0,0.0,0.0,0.0,0.0,0.0,0.0,0.0,0.0,0.0,0.0,0.0,0.0,0.0,0.0,0.0,0.0,0.0,0.0,0.0,0.0,0.0,0.0,0.0,0.0,0.0,0.0,0.0,0.0,0.0,0.0,0.0,0.0,0.0,0.0,0.0,0.0,0.0,0.0,0.0,0.0,0.0,0.0,0.0,0.0,0.0,0.0,0.0,0.0,0.0,0.0,0.0,0.0,0.0,0.0,0.0,0.0,0.0,0.0,0.0,0.0,0.0,0.0,0.0,0.0,0.0,0.0,0.0,0.0,0.0,0.0,0.0,0.0,0.0,0.0,0.0,0.0,0.0,0.0,0.0,0.0,0.0,0.0,0.0,0.0,0.0,0.0,0.0,0.0,0.0,0.0,0.0,0.0,0.0,0.0,0.0,0.0,0.0,0.0,0.0,0.0,0.0,0.0,0.0,0.0,0.0,0.0,0.0,0.0,0.0,0.0,0.0,0.0,0.0,0.0,0.0,0.0,0.0,0.0,0.0,0.0,0.0,0.0,0.0,0.0,0.0,0.0,0.0,0.0,0.0,0.0,0.0,0.0,0.0,0.0,0.0,0.0,0.0,0.0,0.0,0.0,0.0,0.0,0.0,0.0,0.0,0.0,0.0,0.0,0.0,0.0,0.0,0.0,0.0,0.0,0.0,0.0,0.0,0.0,0.0,0.0,0.0,0.0,0.0,0.0,0.0,0.0,0.0,0.0,0.0,0.0,0.0,0.0,0.0,0.0,0.0,0.0,0.0,0.0,0.0,0.0,0.0,0.0,0.0,0.0,0.0,0.0,0.0,0.0,0.0,0.0,0.0,0.0,0.0,0.0,0.0,0.0,0.0,0.0,0.0,0.0,0.0,0.0,0.0,0.0,0.0,0.0,0.0,0.0,0.0,0.0,0.0,0.0,0.0,0.0,0.0,0.0,0.0,0.0,0.0,0.0,0.0,0.0,0.0,0.0,0.0,0.0,0.0,0.0,0.0,0.0,0.0,0.0,0.0,0.0,0.0,0.0,0.0,0.0,0.0,0.0,0.0,0.0,0.0,0.0,0.0,0.0,0.0,0.0,0.0,0.0,0.0,0.0,0.0,0.0,0.0,0.0,0.0,0.0,0.0,0.0,0.0,0.0,0.0,0.0,0.0,0.0,0.0,0.0,0.0,0.0,0.0,0.0,0.0,0.0,0.0,0.0,0.0,0.0,0.0,0.0,0.0,0.0,0.0,0.0,0.0,0.0,0.0,0.0,0.0,0.0,0.0,0.0,0.0,0.0,0.0,0.0,0.0,0.0,0.0,0.0,0.0,0.0,0.0,0.0,0.0,0.0,0.0,0.0,0.0,0.0,0.0,0.0,0.0,0.0,0.0,0.0,0.0,0.0,0.0,0.0,0.0,0.0,0.0,0.0,0.0,0.0,0.0,0.0,0.0,0.0,0.0,0.0,0.0,0.0,0.0,0.0,0.0,0.0,0.0,0.0,0.0,0.0,0.0,0.0,0.0,0.0,0.0,0.0,0.0,0.0,0.0,0.0,0.0,0.0,0.0,0.0,0.0,0.0,0.0,0.0,0.0,0.0,0.0,0.0,0.0,0.0,0.0,0.0,0.0,0.0,0.0,0.0,0.0,0.0,0.0,0.0,0.0,0.0,0.0,0.0,0.0,0.0,0.0,0.0,0.0,0.0,0.0,0.0,0.0,0.0,0.0,0.0,0.0,0.0,0.0,0.0,0.0,0.0,0.0,0.0,0.0,0.0,0.0,0.0,0.0,0.0,0.0,0.0,0.0,0.0,0.0,0.0,0.0,0.0,0.0,0.0,0.0,0.0,0.0,0.0,0.0,0.0,0.0,0.0,0.0,0.0,0.0,0.0,0.0,0.0,0.0,0.0,0.0,0.0,0.0,0.0,0.0,0.0,0.0,0.0,0.0,0.0,0.0,0.0,0.0,0.0,0.0,0.0,0.0,0.0,0.0,0.0,0.0,0.0,0.0,0.0,0.0,0.0,0.0,0.0,0.0,0.0,0.0,0.0,0.0,0.0,0.0,0.0,0.0,0.0,0.0,0.0,0.0,0.0,0.0,0.0,0.0,0.0,0.0,0.0,0.0,0.0,0.0,0.0,0.0,0.0,0.0,0.0,0.0,0.0,0.0,0.0,0.0,0.0,0.0,0.0,0.0,0.0,0.0,0.0,0.0,0.0,0.0,0.0,0.0,0.0,0.0,0.0,0.0,0.0,0.0,0.0,0.0,0.0,0.0,0.0,0.0,0.0,0.0,0.0,0.0,0.0,0.0,0.0,0.0,0.0,0.0,0.0,0.0,0.0,0.0,0.0,0.0,0.0,0.0,0.0,0.0,0.0,0.0,0.0,0.0,0.0,0.0,0.0,0.0,0.0,0.0,0.0,0.0,0.0,0.0,0.0,0.0,0.0,0.0,0.0,0.0,0.0,0.0,0.0,0.0,0.0,0.0,0.0,0.0,0.0,0.0,0.0,0.0,0.0,0.0,0.0,0.0,0.0,0.0,0.0,0.0,0.0,0.0,0.0,0.0,0.0,0.0,0.0,0.0,0.0,0.0,0.0,0.0,0.0,0.0,0.0,0.0,0.0,0.0,0.0,0.0,0.0,0.0,0.0,0.0,0.0,0.0,0.0,0.0,0.0,0.0,0.0,0.0,0.0,0.0,0.0,0.0,0.0,0.0,0.0,0.0,0.0,0.0,0.0,0.0,0.0,0.0,0.0,0.0,0.0,0.0,0.0,0.0,0.0,0.0,0.0,0.0,0.0,0.0,0.0,0.0,0.0,0.0,0.0,0.0,0.0,0.0,0.0,0.0,0.0,0.0,0.0,0.0,0.0,0.0,0.0,0.0,0.0,0.0,0.0,0.0,0.0,0.0,0.0,0.0,0.0,0.0,0.0,0.0,0.0,0.0,0.0,0.0,0.0,0.0,0.0,0.0,0.0,0.0,0.0,0.0,0.0,0.0,0.0,0.0,0.0,0.0,0.0,0.0,0.0,0.0,0.0,0.0,0.0,0.0,0.0,0.0,0.0,0.0,0.0,0.0,0.0,0.0,0.0,0.0,0.0,0.0,0.0,0.0,0.0,0.0,0.0,0.0,0.0,0.0,0.0,0.0,0.0,0.0,0.0,0.0,0.0,0.0,0.0,0.0,0.0,0.0,0.0,0.0,0.0,0.0,0.0,0.0,0.0,0.0,0.0,0.0,0.0,0.0,0.0,0.0,0.0,0.0,0.0,0.0,0.0,0.0,0.0,0.0,0.0,0.0,0.0,0.0,0.0,0.0,0.0,0.0,0.0,0.0,0.0,0.0,0.0,0.0,0.0,0.0,0.0,0.0,0.0,0.0,0.0,0.0,0.0,0.0,0.0,0.0,0.0,0.0,0.0,0.0,0.0,0.0,0.0,0.0,0.0,0.0,0.0,0.0,0.0,0.0,0.0,0.0,0.0,0.0,0.0,0.0,0.0,0.0,0.0,0.0,0.0,0.0,0.0,0.0,0.0,0.0,0.0,0.0,0.0,0.0,0.0,0.0,0.0,0.0,0.0,0.0,0.0,0.0,0.0,0.0,0.0,0.0,0.0,0.0,0.0,0.0,0.0,0.0,0.0,0.0,0.0,0.0,0.0,0.0,0.0,0.0,0.0,0.0,0.0,0.0,0.0,0.0,0.0,0.0,0.0,0.0,0.0,0.0,0.0,0.0,0.0,0.0,0.0,0.0,0.0,0.0,0.0,0.0,0.0,0.0,0.0,0.0,0.0,0.0,0.0,0.0,0.0,0.0,0.0,0.0,0.0,0.0,0.0,0.0,0.0,0.0,0.0,0.0,0.0,0.0,0.0,0.0,0.0,0.0,0.0,0.0,0.0,0.0,0.0,0.0,0.0,0.0,0.0,0.0,0.0,0.0,0.0,0.0,0.0,0.0,0.0,0.0,0.0,0.0,0.0,0.0,0.0,0.0,0.0,0.0,0.0,0.0,0.0,0.0,0.0,0.0,0.0,0.0,0.0,0.0,0.0,0.0,0.0,0.0,0.0,0.0,0.0,0.0,0.0,0.0,0.0,0.0,0.0,0.0,0.0,0.0,0.0,0.0,0.0,0.0,0.0,0.0,0.0,0.0,0.0,0.0,0.0,0.0,0.0,0.0,0.0,0.0,0.0,0.0,0.0,0.0,0.0,0.0,0.0,0.0,0.0,0.0,0.0,0.0,0.0,0.0,0.0,0.0,0.0,0.0,0.0,0.0,0.0,0.0,0.0,0.0,0.0,0.0,0.0,0.0,0.0,0.0,0.0,0.0,0.0,0.0,0.0,0.0,0.0,0.0,0.0,0.0,0.0,0.0,0.0,0.0,0.0,0.0,0.0,0.0,0.0,0.0,0.0,0.0,0.0,0.0,0.0,0.0,0.0,0.0,0.0,0.0,0.0,0.0,0.0,0.0,0.0,0.0,0.0,0.0,0.0,0.0,0.0,0.0,0.0,0.0,0.0,0.0,0.0,0.0,0.0,0.0,0.0,0.0,0.0,0.0,0.0,0.0,0.0,0.0,0.0,0.0,0.0,0.0,0.0,0.0,0.0,0.0,0.0,0.0,0.0,0.0,0.0,0.0,0.0,0.0,0.0,0.0,0.0,0.0,0.0,0.0,0.0,0.0,0.0,0.0,0.0,0.0,0.0,0.0,0.0,0.0,0.0,0.0,0.0,0.0,0.0,0.0,0.0,0.0,0.0,0.0,0.0,0.0,0.0,0.0,0.0,0.0,0.0,0.0,0.0,0.0,0.0,0.0,0.0,0.0,0.0,0.0,0.0,0.0,0.0,0.0,0.0,0.0,0.0,0.0,0.0,0.0,0.0,0.0,0.0,0.0,0.0,0.0,0.0,0.0,0.0,0.0,0.0,0.0,0.0,0.0,0.0,0.0,0.0,0.0,0.0,0.0,0.0,0.0,0.0,0.0,0.0,0.0,0.0,0.0,0.0,0.0,0.0,0.0,0.0,0.0,0.0,0.0,0.0,0.0,0.0,0.0,0.0,0.0,0.0,0.0,0.0,0.0,0.0,0.0,0.0,0.0,0.0,0.0,0.0,0.0,0.0,0.0,0.0,0.0,0.0,0.0,0.0,0.0,0.0,0.0,0.0,0.0,0.0,0.0,0.0,0.0,0.0,0.0,0.0,0.0,0.0,0.0,0.0,0.0,0.0,0.0,0.0,0.0,0.0,0.0,0.0,0.0,0.0,0.0,0.0,0.0,0.0,0.0,0.0,0.0,0.0,0.0,0.0,0.0,0.0,0.0,0.0,0.0,0.0,0.0,0.0,0.0,0.0,0.0,0.0,0.0,0.0,0.0,0.0,0.0,0.0,0.0,0.0,0.0,0.0,0.0,0.0,0.0,0.0,0.0,0.0,0.0,0.0,0.0,0.0,-1.3965,0.0,0.0,0.0,0.0,0.0,0.0,0.0,0.0,0.0,0.0,0.0,0.0,0.0,0.0,0.0,0.0,0.0,0.0,0.0,0.0,0.0,0.0,0.0,0.0,0.0,0.0,0.0,0.0,0.0,0.0,0.0,0.0,0.0,0.0,0.0,0.0,0.0,0.0,0.0,-0.9913,-1.513,-2.134,-1.9793,-2.1161,-2.4896,0.0,0.0,0.0,0.0,0.0,0.0,0.0,0.0,0.0,0.0,0.0,0.0,0.0,0.0,0.0,0.0,0.0,0.0,0.0,0.0,0.0,0.0,0.0,0.0,0.0,0.0,0.0,0.0,0.0,0.0,0.0,0.0,0.0,0.0,0.0,0.0,0.0,0.0,0.0,0.0,0.0,0.0,0.0,0.0,0.0,0.0,0.0,0.0,0.0,0.0,0.0,0.0,0.0,0.0,0.0,0.0,0.0,0.0,0.0,0.0,0.0,0.0,0.0,0.0,0.0,0.0,0.0,0.0,0.0,0.0,0.0,-1.6291,0.0,0.0,0.0,0.0,0.0,0.0,0.0,0.0,0.0,0.0,0.0,0.0,0.0,0.0,0.0,0.0,0.0,0.0,0.0,0.0,0.0,0.0,0.0,0.0,0.8752,0.8646,0.8857,0.0,0.0,0.0,0.0,0.0,0.0,0.0,0.0,-0.5263,-0.6486,-0.7725,-1.3685,-2.0448,-2.7765,-2.6745,-2.6358,-2.652,-2.6287,0.0,0.0,0.0,0.0,0.0,0.0,0.0,0.0,0.0,0.0,0.0,0.0,0.0,0.0,0.0,0.0,0.0,0.0,0.0,0.0,0.0,0.0,0.0,0.0,0.0,0.0,0.0,0.0,0.0,0.0,0.0,0.0,0.0,0.0,0.0,0.0,0.0,0.0,0.0,0.0,0.0,0.0,0.0,0.0,0.0,0.0,0.0,0.0,0.0,0.0,0.0,0.0,0.0,0.0,0.0,0.0,0.0,0.0,0.0,0.0,0.0,0.0,0.0,0.0,-1.9104,-2.288,-2.5382,-2.5356,-2.3389,-2.1557,-1.9449,-1.7365,0.0,0.0,0.0,0.0,0.0,0.0,0.0,0.0,0.0,0.0,0.0,0.0,0.0,0.0,0.0,0.0,0.0,0.0,0.0,0.0,0.0,0.0,0.8315,0.8533,0.7889,0.8981,0.8817,0.0,0.0,0.0,0.0,0.0,0.0,-0.1832,-0.453,-0.6781,-0.8535,-1.7407,-2.2129,-2.2997,-2.6777,-2.9011,-2.9779,-2.9747,-2.9214,-2.8238,0.0,0.0,0.0,0.0,0.0,0.0,0.0,0.0,0.0,0.0,0.0,0.0,0.0,0.0,0.0,0.0,0.0,0.0,0.0,0.0,0.0,0.0,0.0,0.0,0.0,0.0,0.0,0.0,0.0,0.0,0.0,0.0,0.0,0.0,0.0,0.0,0.0,0.0,0.0,0.0,0.0,-0.922,-1.0234,0.0,0.0,0.0,0.0,0.0,0.0,0.0,0.0,0.0,0.0,0.0,0.0,0.0,0.0,-1.9872,-1.9626,-2.0048,-2.1186,-2.3057,-2.3817,-2.3757,-2.5667,-2.6659,-2.6863,-2.5209,0.0,-2.1155,-1.9875,0.0,0.0,0.0,0.0,0.0,0.0,0.0,0.0,0.0,0.0,0.0,0.0,0.0,0.0,0.0,0.0,0.0,0.0,0.0,0.0,0.0,1.0188,1.0312,0.948,1.1314,1.1356,0.849,0.0,0.0,0.0,0.0,0.1167,-0.3077,-0.4477,-0.7311,-1.1735,-1.8792,-2.2921,-2.4193,-2.6564,-2.9986,-3.425,-3.4816,-3.281,-2.921,-3.2464,0.0,0.0,0.0,0.0,0.0,0.0,0.0,0.0,0.0,0.0,0.0,0.0,0.0,0.0,0.0,0.0,0.0,0.0,0.0,0.0,0.0,0.0,0.0,0.0,0.0,0.0,0.0,0.0,0.0,0.0,0.0,0.0,0.0,0.0,0.0,0.0,0.0,0.0,0.0,-1.0894,-1.2389,-1.5838,-1.5386,-1.4395,0.0,0.0,0.0,0.0,0.0,0.0,0.0,0.0,0.0,-1.8276,-1.9964,-2.1222,-2.2004,-2.1985,-2.2046,-2.2189,-2.4746,-2.5701,-2.5392,-2.575,-2.6312,-2.6887,-2.5659,-2.4272,-2.2793,-2.1098,-1.9937,-1.9196,0.0,0.0,0.0,0.0,0.0,-1.7733,0.0,0.0,0.0,0.0,0.0,0.0,0.0,0.0,0.0,0.0,0.0,0.0,1.0897,1.1655,1.1727,1.0865,1.2672,1.2759,1.0025,0.9887,0.0,0.0,0.4349,0.1555,-0.3519,-0.5278,-0.8826,-1.4192,-1.9404,-2.3133,-2.5438,-2.6611,-3.0192,-3.5734,-3.8094,-3.6293,-3.176,-3.6084,-3.3203,-2.5677,0.0,0.0,0.0,0.0,0.0,0.0,0.0,0.0,0.0,0.0,0.0,0.0,0.0,0.0,0.0,0.0,0.0,0.0,0.0,0.0,0.0,0.0,0.0,0.0,0.0,0.0,0.0,0.0,0.0,0.0,0.0,0.0,0.0,0.0,0.0,0.0,0.0,-1.1043,-1.4512,-2.0522,-1.8944,-1.6825,0.0,0.0,0.0,0.0,0.0,0.0,-1.7968,-1.9295,-2.0449,-2.1521,-2.2775,-2.3391,-2.341,-2.3195,-2.3102,-2.316,-2.482,-2.565,-2.5617,-2.5031,-2.5229,-2.5915,-2.4623,-2.4082,-2.3962,-2.1829,-2.0913,-2.0729,-2.0241,-2.0135,-2.011,-1.9135,-1.9125,-1.9539,0.0,0.0,0.0,0.0,0.0,0.0,0.0,0.0,0.0,0.0,0.0,1.0867,1.1485,1.1906,1.1767,1.1064,1.1467,1.1428,1.0577,0.9713,0.8546,0.7007,0.3978,0.1209,-0.1202,-0.7422,-1.194,-1.4473,-1.9575,-2.282,-2.4357,-2.73,-2.9635,-3.156,-3.7697,-3.9594,-3.7889,-3.2985,-2.8882,-2.5696,-2.5685,0.0,0.0,0.0,0.0,0.0,0.0,0.0,0.0,0.0,0.0,0.0,0.0,0.0,0.0,0.0,0.0,0.0,0.0,0.0,0.0,0.0,0.0,0.0,0.0,0.0,0.0,0.0,0.0,0.0,0.0,0.0,0.0,0.0,0.0,0.0,0.0,0.0,0.0,-2.1989,-1.8577,0.0,0.0,0.0,0.0,-1.7493,-1.928,-2.1727,-2.5025,-2.5242,-2.4924,-2.4262,-2.4255,-2.4316,-2.4369,-2.35,-2.3104,-2.3086,-2.3202,-2.323,-2.3279,-2.3268,-2.3719,-2.4512,-2.2461,-2.3055,-2.5315,-2.2353,-2.1054,-2.0878,-2.0868,-2.1101,-2.1343,-2.0778,-2.0928,-2.1187,0.0,0.0,0.0,0.0,0.0,0.0,0.0,0.0,0.0,1.1215,1.1912,1.26,1.3543,1.41,1.422,1.3654,1.4253,1.3653,1.1266,1.0951,1.0038,0.838,0.5351,0.087,-0.5079,-0.9537,-1.2636,-1.441,-1.8564,-2.2012,-2.4765,-2.7183,-2.9971,-3.3168,-3.6077,-3.8284,-3.9727,-3.7735,-3.3749,-2.8548,-2.652,-2.7041,0.0,0.0,0.0,0.0,0.0,0.0,0.0,0.0,0.0,0.0,0.0,0.0,0.0,0.0,0.0,0.0,0.0,0.0,0.0,0.0,0.0,0.0,0.0,0.0,0.0,0.0,0.0,0.0,0.0,0.0,0.0,0.0,0.0,0.0,0.0,0.0,0.0,-2.2569,-1.8573,0.0,-2.0012,-2.0335,-2.0632,-2.121,-2.1869,-2.3216,-2.5579,-2.5686,-2.5585,-2.5289,-2.5229,-2.5249,-2.5277,-2.4234,-2.3473,-2.3092,-2.3115,-2.3063,-2.3127,-2.3127,-2.3092,-2.3063,-2.2086,-2.199,-2.2331,-2.1642,-2.2083,-2.3176,-2.3084,-2.2478,-2.1559,-2.1013,-2.1344,-2.1888,0.0,0.0,0.0,0.0,0.0,0.0,0.0,0.0,1.1299,1.2628,1.3535,1.441,1.5259,1.5597,1.5384,1.4506,1.4498,1.3411,1.0716,1.0503,0.9894,0.8397,0.521,0.0783,-0.497,-0.8602,-1.1662,-1.4014,-1.7361,-2.0937,-2.4912,-2.6661,-2.9255,-3.2521,-3.5789,-3.7824,-3.8803,-3.8793,-3.5989,-3.1306,-2.8442,-2.7974,-2.8766,0.0,0.0,0.0,0.0,0.0,0.0,0.0,0.0,0.0,0.0,0.0,0.0,0.0,0.0,0.0,0.0,0.0,0.0,0.0,0.0,0.0,0.0,0.0,0.0,0.0,0.0,0.0,0.0,0.0,0.0,0.0,0.0,0.0,0.0,0.0,-2.0923,-2.2866,-2.0117,-1.9326,-2.2767,-2.3409,-2.3423,-2.3088,-2.3363,-2.4137,-2.5382,-2.5635,-2.5738,-2.5738,-2.5738,-2.5668,-2.5508,-2.4703,-2.3945,-2.3313,-2.3222,-2.3135,-2.3135,-2.2988,-2.2654,-2.2109,-2.183,-2.125,-2.0595,-2.0767,-2.1833,-2.3495,-2.375,-2.3343,-2.2504,-2.1851,-2.201,-2.2535,0.0,0.0,0.0,0.0,0.0,0.0,0.0,1.1984,1.3253,1.4514,1.5497,1.6222,1.6453,1.6065,1.513,1.3528,1.1813,1.023,0.892,0.8454,0.7892,0.7167,0.3549,0.092,-0.0387,-0.4704,-0.8979,-1.3051,-1.5863,-1.9768,-2.4616,-2.59,-2.7345,-2.9214,-3.6866,-3.8561,-3.5664,-3.5552,-3.4864,-3.3654,-3.1456,-2.8461,-2.5346,0.0,0.0,0.0,0.0,0.0,0.0,0.0,0.0,0.0,0.0,0.0,0.0,0.0,0.0,0.0,0.0,0.0,0.0,0.0,0.0,0.0,0.0,0.0,0.0,0.0,0.0,0.0,0.0,0.0,0.0,0.0,0.0,0.0,-1.6276,-1.9691,-2.2076,-2.2944,-2.3063,-2.3073,-2.3092,-2.3931,-2.4048,-2.3212,-2.388,-2.4513,-2.4848,-2.5398,-2.5732,-2.5713,-2.5713,-2.5508,-2.5049,-2.4977,-2.4552,-2.3779,-2.335,-2.3135,-2.3125,-2.2715,-2.2295,-2.1865,-2.1435,-2.0996,-2.0527,-1.9963,-2.0451,-2.1551,-2.258,-2.3517,-2.4141,-2.3364,-2.3125,-2.3072,0.0,0.0,0.0,0.0,0.0,0.0,0.0,1.257,1.3559,1.3993,1.6599,1.7801,1.6328,1.6982,1.6792,1.488,1.2315,1.0593,1.0016,0.8865,0.8063,0.7669,0.4488,0.1834,-0.0072,-0.24,-0.5081,-0.8223,-1.5292,-1.9675,-2.1497,-2.493,-2.8033,-3.0908,-3.4268,-3.7038,-3.8982,-3.6528,-3.5321,-3.4976,-3.4347,-3.0558,-2.5876,0.0,0.0,0.0,0.0,0.0,0.0,0.0,0.0,0.0,0.0,0.0,0.0,0.0,0.0,0.0,0.0,0.0,0.0,0.0,0.0,0.0,0.0,0.0,0.0,0.0,0.0,0.0,0.0,0.0,0.0,0.0,0.0,-1.348,-1.6606,-1.8329,-2.0072,-2.2289,-2.2863,-2.3299,-2.3724,-2.4018,-2.4067,-2.4026,-2.4111,-2.4373,-2.4883,-2.543,-2.5479,-2.5129,-2.5234,-2.5039,-2.46,-2.4291,-2.4016,-2.3779,-2.335,-2.3135,-2.3135,-2.3018,-2.2568,-2.1875,-2.1758,-2.1279,-2.0653,-2.1105,-2.1583,-2.2015,-2.152,-2.1939,-2.2873,-2.3019,-2.3107,-2.301,0.0,0.0,0.0,0.0,0.0,0.0,0.0,1.305,1.4196,1.4492,1.6831,1.7887,1.6382,1.6515,1.5955,1.4055,1.167,1.003,0.9458,0.9047,0.8951,0.9369,0.6475,0.3586,0.0957,-0.0525,-0.245,-0.4935,-1.2505,-1.7713,-2.0774,-2.4705,-2.846,-3.2084,-3.4567,-3.6689,-3.8285,-3.6481,-3.5638,-3.5456,-3.498,-3.2771,-3.0064,-3.2662,-3.1069,-2.7447,-2.7618,-2.7928,-2.8411,-2.9289,0.0,0.0,0.0,0.0,0.0,0.0,0.0,0.0,0.0,0.0,0.0,0.0,0.0,0.0,0.0,0.0,0.0,0.0,0.0,0.0,0.0,0.0,0.0,0.0,-1.2866,-1.4405,-1.6778,-1.7976,-1.9582,-2.2313,-2.2892,-2.332,-2.3869,-2.4065,-2.4261,-2.4404,-2.4619,-2.4765,-2.4954,-2.5478,-2.5518,-2.4964,-2.4791,-2.451,-2.416,-2.3677,-2.3473,-2.3516,-2.3262,-2.3135,-2.3125,-2.2773,-2.2344,0.0,-2.1494,-2.1045,-2.0663,-2.1406,-2.1642,0.0,0.0,0.0,0.0,0.0,-2.1691,-2.1606,0.0,0.0,0.0,0.0,0.0,0.0,0.0,1.3517,1.496,1.5454,1.6694,1.7222,1.6313,1.5441,1.409,1.2095,1.0473,0.927,0.8691,0.9453,1.0472,1.1588,0.8865,0.5887,0.2748,0.0912,-0.1247,-0.375,-0.9728,-1.565,-2.1463,-2.5166,-2.9034,-3.2904,-3.6141,-3.7035,-3.6074,-3.6175,-3.5758,-3.4935,-3.3923,-3.4486,-3.557,-3.2102,-3.0784,-3.0769,-3.079,-2.8817,-2.7119,-3.2827,0.0,0.0,0.0,0.0,0.0,0.0,0.0,0.0,0.0,0.0,0.0,0.0,0.0,0.0,0.0,0.0,0.0,0.0,0.0,0.0,0.0,0.0,0.0,0.0,-1.4184,-1.4981,-1.7169,-1.8385,-2.0121,-2.2639,-2.3086,-2.3379,-2.3818,-2.4238,-2.4512,-2.456,-2.5293,-2.5566,-2.5166,0.0,0.0,0.0,0.0,-2.3903,-2.3721,-2.3345,-2.3063,-2.3135,-2.3135,-2.3135,-2.3105,-2.2314,-2.1934,-2.1836,-2.1006,-2.0605,-2.0682,-2.1207,-2.1111,-2.062,-2.2185,-2.1849,-2.0473,-1.9993,-1.9973,0.0,0.0,0.0,0.0,0.0,0.0,0.0,0.0,1.4182,1.5229,1.4915,1.7322,1.7912,1.4807,1.532,1.4689,1.1778,1.0246,1.0219,1.1841,1.2094,1.2476,1.3214,1.0355,0.7718,0.5585,0.186,-0.2564,-0.7821,-1.4247,-1.8773,-2.1531,-2.6963,-3.1053,-3.3923,-3.4745,-3.6752,-3.9457,-3.815,-3.5451,-3.2009,-3.1804,-3.3265,-3.5423,-3.3759,-3.3141,-3.3134,-3.3138,-3.272,-3.1955,-3.0684,-2.8426,-2.5524,-2.2123,-2.076,0.0,0.0,0.0,0.0,0.0,0.0,0.0,0.0,0.0,0.0,0.0,0.0,0.0,0.0,0.0,0.0,0.0,0.0,0.0,-1.4035,-1.4541,-1.5803,-1.864,-1.9298,-1.9957,-2.1471,-2.2796,-2.3828,-2.4258,-2.4687,-2.5098,-2.5459,-2.5635,-2.5703,-2.5615,-2.5352,0.0,-2.456,-2.4088,-2.366,-2.3271,-2.3154,-2.3115,-2.3135,0.0,0.0,-2.3125,-2.2617,-2.2207,-2.1855,-2.1338,-2.0898,-2.0653,-2.1496,-2.1035,-1.9922,-2.078,-2.0616,-1.9969,-1.9829,-2.0917,-2.2193,0.0,0.0,0.0,0.0,0.0,0.0,0.0,1.4054,1.479,1.5096,1.6397,1.64,1.4045,1.4001,1.3333,1.1233,1.1538,1.2875,1.5148,1.5972,1.6786,1.7687,1.4231,0.9146,0.2573,-0.1127,-0.7007,-1.5421,-1.9888,-2.2924,-2.4611,-2.9516,-3.2906,-3.4919,-3.5383,-3.6523,-3.8003,-3.7296,-3.4812,-3.1356,-3.1358,-3.141,-3.161,-3.2254,-3.1575,-3.026,-3.0242,-3.0267,-3.0016,-2.8381,-2.733,-2.6306,-2.3945,-2.2493,-2.1633,0.0,0.0,0.0,0.0,0.0,0.0,0.0,0.0,0.0,0.0,0.0,0.0,0.0,0.0,-1.2163,0.0,0.0,-1.4474,-1.5184,-1.5239,-1.5958,-1.8249,-1.9131,-2.0133,-2.2031,-2.315,-2.3955,-2.4375,-2.4814,-2.5254,-2.5703,-2.5742,-2.5742,-2.5742,-2.5312,-2.4863,-2.4424,-2.4004,-2.3584,-2.3144,-2.3135,-2.3135,-2.3135,-2.3135,-2.3135,-2.3125,-2.2705,-2.2285,-2.1865,-2.1426,-2.0859,-2.0242,-2.0216,-2.04,-2.0466,-1.9621,-1.9863,-2.0665,-2.0637,-2.1335,-2.2075,0.0,0.0,0.0,0.0,0.0,0.0,0.0,0.0,1.4503,1.5487,1.5326,1.4769,1.3727,1.278,1.182,1.0921,1.3099,1.5571,1.7889,1.9426,2.0795,2.2103,1.8109,1.086,0.026,-0.5324,-1.2882,-2.2608,-2.6153,-2.8007,-2.8465,-3.2228,-3.4728,-3.604,-3.6508,-3.6236,-3.5451,-3.5595,-3.4058,-3.1502,-3.1518,-2.994,-2.7798,-2.9743,-2.8918,-2.6703,-2.6685,-2.6705,-2.6702,-2.6716,-2.6705,-2.6685,-2.6686,-2.5146,-2.2971,-2.1019,-1.8413,0.0,0.0,0.0,0.0,0.0,0.0,0.0,0.0,0.0,-1.0107,-1.0401,-1.1838,-1.3112,-1.3543,-1.4435,-1.5304,-1.6111,-1.5819,-1.6109,-1.7832,-1.8864,-2.0404,-2.2775,-2.3525,-2.3955,-2.4375,-2.4814,-2.5254,-2.5703,-2.5742,-2.5742,-2.5742,-2.5234,-2.4775,-2.4424,-2.3926,-2.3496,-2.3144,-2.3135,-2.3135,-2.3135,-2.3135,-2.3096,-2.2998,-2.2578,-2.2158,-2.1728,-2.1211,-2.0556,-1.9821,-1.8987,-1.9527,-2.0831,-1.9136,-1.9668,-2.1342,-2.1666,-2.1675,-2.1326,0.0,0.0,0.0,0.0,0.0,0.0,0.0,0.0,0.0,1.5588,1.5392,1.4882,1.3799,1.2969,1.214,1.1317,1.3835,1.6574,1.9226,2.0601,2.1943,2.3348,1.9654,1.368,0.5494,-0.8752,-1.9162,-2.5428,-3.2688,-3.4502,-3.1241,-3.4592,-3.665,-3.7518,-3.6786,-3.5824,-3.4806,-3.4516,-3.3275,-3.149,-3.1509,-2.9913,-2.7615,-2.791,-2.7443,-2.671,-2.6707,-2.6688,-2.6702,-2.6714,-2.6705,-2.6702,-2.67,-2.4728,-2.2539,-2.3011,-2.121,-1.861,-1.6508,-1.333,-1.0655,-1.1041,-1.0521,-1.0313,0.0,0.0,-1.1316,-1.161,-1.2956,-1.3901,-1.3352,-1.4618,-1.5713,-1.5504,-1.5685,-1.6619,-1.894,-1.9397,-2.0404,-2.2775,-2.3525,-2.3955,-2.4375,-2.4814,-2.5254,-2.5703,-2.5742,-2.5742,-2.5742,-2.4941,-2.4473,-2.4414,-2.3633,-2.3184,-2.3135,-2.3135,-2.3135,-2.3135,-2.3135,-2.2939,-2.2568,-2.2148,-2.1719,-2.126,-2.042,-1.9992,-1.9851,-1.8943,-1.8942,-1.956,-2.0084,-2.0459,-2.0876,-2.2372,-2.2297,-2.133,0.0,0.0,0.0,0.0,0.0,0.0,0.0,0.0,0.0,0.0,1.5234,1.4782,1.4318,1.3608,1.2938,1.2241,1.5452,1.849,2.0855,2.3426,2.5703,2.7588,2.486,1.923,1.063,-1.4961,-2.867,-2.9556,-3.1674,-3.349,-3.4991,-3.6226,-3.669,-3.6502,-3.5847,-3.5677,-3.5691,-3.4053,-3.3547,-3.3754,-3.2124,-3.0234,-2.829,-2.6667,-2.5476,-2.4607,-2.4272,-2.4133,0.0,-2.5003,-2.4746,-2.4132,-2.4142,-2.4466,-2.4921,-2.5307,-2.3203,-1.9765,-1.5018,-1.2251,0.0,0.0,-1.121,-1.1228,-1.2102,-1.1963,-1.1717,-1.1844,-1.27,-1.3425,-1.3454,-1.4227,-1.4929,0.0,-1.5498,-1.645,-1.9099,-1.9497,-2.0326,-2.2448,-2.3154,-2.3584,-2.4014,-2.4443,-2.4766,-2.4951,-2.5205,-2.5234,-2.498,-2.4619,-2.4307,-2.4062,-2.3457,-2.3135,-2.3135,-2.3135,-2.3135,-2.3135,-2.3135,-2.292,-2.251,-2.2334,-2.1738,-2.0801,-1.9922,-1.9407,-1.9083,-1.8508,-1.837,-1.8654,-1.9497,-1.9814,-2.0139,-2.2286,-2.241,-2.1443,0.0,0.0,0.0,0.0,0.0,0.0,0.0,0.0,0.0,0.0,0.0,1.5363,1.5316,1.4756,1.4279,1.396,1.698,1.9777,2.1812,2.5274,2.8138,3.0142,2.9237,2.3908,1.3682,-1.8205,-3.3842,-3.1913,-3.1091,-3.2355,-3.5624,-3.6091,-3.5752,-3.4799,-3.4643,-3.4923,-3.5392,-3.3948,-3.3743,-3.4312,-3.2801,-3.12,-2.9526,-2.7492,-2.513,-2.2931,-2.2846,-2.3572,-2.4653,-2.5297,-2.4324,-2.2825,-2.2834,-2.4156,-2.5862,-2.6507,-2.4138,-1.9989,-1.4068,0.0,0.0,-1.1483,-1.1619,-1.1859,-1.243,-1.2346,-1.2091,-1.2004,-1.2466,-1.2852,-1.3206,-1.3587,-1.4135,-1.501,-1.5224,-1.6303,-1.9066,-1.9406,-2.0179,-2.2437,-2.2754,-2.3008,-2.3555,-2.3994,-2.4287,-2.4404,-2.4707,-2.4746,-2.4434,-2.4307,-2.4102,-2.3799,-2.3359,-2.3135,-2.3135,-2.3135,-2.3135,-2.3135,-2.3018,-2.2744,-2.2334,-2.209,-2.1328,-2.0176,-1.9551,-1.8906,-1.8281,-1.8086,-1.8065,-1.8292,-1.9257,-1.9673,-1.9995,-2.208,-2.2122,-2.1188,0.0,0.0,0.0,0.0,0.0,0.0,0.0,0.0,0.0,0.0,0.0,0.0,0.0,1.6472,1.6359,1.674,1.8154,1.9753,2.1567,2.509,2.7772,2.9284,3.1266,2.6394,1.368,-1.6187,-3.15,-3.1234,-3.3322,-3.3221,-3.1141,-3.3474,-3.3923,-3.2813,-3.3264,-3.3177,-3.2788,-3.4048,-3.3417,-3.1774,-3.3446,-3.3014,-3.1422,-3.1317,-2.7555,-2.2481,-2.371,-2.6734,-3.0015,-2.9152,-2.6753,-2.4147,-2.4159,-2.3761,-2.3739,-2.6014,-2.3692,-1.9331,-1.4525,0.0,-1.3091,-1.2151,-1.1908,-1.2084,-1.2959,-1.2933,-1.2714,-1.2345,-1.2532,-1.2741,-1.2392,-1.2832,-1.352,-1.4402,-1.479,-1.6055,-1.9125,-1.9093,-1.9892,-2.2707,-2.2412,-2.2246,0.0,-2.3555,-2.3975,-2.4385,-2.4424,-2.4434,-2.4414,-2.4033,-2.3799,-2.3789,-2.3359,-2.3135,-2.3135,-2.3135,-2.3135,-2.3135,-2.2725,-2.2314,-2.1875,-2.1016,-2.0156,-1.9326,-1.9297,-1.8574,-1.7451,-1.7842,-1.8201,-1.8733,-2.0017,-2.0728,-2.1033,-2.1959,-2.1427,-2.0354,0.0,0.0,0.0,0.0,0.0,0.0,0.0,0.0,0.0,0.0,0.0,0.0,0.0,0.0,0.0,0.0,1.9359,2.0835,2.2064,2.4443,2.6738,2.8873,3.1703,2.7965,1.6703,-1.928,-3.2272,-2.0716,-2.2601,-2.4865,-2.7353,-2.8168,-2.9778,-3.1925,-3.0664,-3.0281,-3.0694,-3.199,-3.3203,-3.4272,-3.4897,-3.4159,-3.2438,-2.9437,-2.6697,-2.4294,0.0,-2.4694,-2.69,-2.6098,-2.6934,-2.7832,-2.5081,-2.5515,-2.6788,-2.5526,-2.2651,-1.9045,-1.5528,-1.4182,-1.3507,-1.2459,-1.2458,-1.2839,-1.314,-1.2819,-1.2311,-1.1817,-1.165,-1.155,-1.145,-1.1917,-1.2612,-1.3507,-1.4222,-1.5471,-1.7681,-1.8691,-1.9711,-2.0915,-2.2007,0.0,0.0,0.0,0.0,-2.3535,-2.3838,-2.3877,-2.3584,-2.3711,-2.3662,-2.3369,-2.3213,-2.3135,-2.3135,-2.3135,-2.3135,-2.3135,-2.2432,-2.2021,-2.1855,-2.0967,-2.0098,-1.9287,-1.9287,-1.8721,-1.7812,-1.7949,-1.8045,-1.8288,-1.8965,-1.9306,-1.9548,-2.0629,-2.0523,-1.9897,0.0,0.0,0.0,0.0,0.0,0.0,0.0,0.0,0.0,0.0,0.0,0.0,0.0,0.0,0.0,0.0,0.0,2.1614,2.2426,2.3975,2.5499,2.6958,3.0626,2.8025,1.8193,-1.1215,-2.3803,-1.8333,-1.7477,-1.9029,-2.2883,-2.4476,-2.6089,-2.7693,-2.7443,-2.8184,-2.9633,-3.0474,-3.2111,-3.4203,-3.5214,-3.3121,-2.9162,-2.6708,-2.52,0.0,-2.2806,-2.273,-2.3404,-2.3985,-2.5983,-2.772,-2.5033,-2.6407,-2.8337,-2.496,-2.2381,-2.0027,-1.7348,-1.5671,-1.4408,-1.3568,-1.3297,-1.318,-1.3073,-1.2498,-1.1824,-1.1236,-1.0882,-1.0648,-1.0548,-1.0915,-1.1536,-1.2432,-1.322,-1.4448,-1.658,-1.7702,-1.8789,-2.0285,-2.1367,0.0,0.0,0.0,0.0,-2.3105,-2.3398,-2.3437,-2.3154,-2.3408,-2.3428,-2.3144,-2.3135,-2.3135,-2.3135,-2.3135,-2.3066,-2.291,-2.2217,-2.1807,-2.1631,-2.0898,-2.0098,-1.9287,-1.9287,-1.8711,-1.7803,-1.7949,-1.8113,-1.8278,-1.8651,-1.8956,-1.9293,-2.0065,-2.0081,-1.9738,0.0,0.0,0.0,0.0,0.0,0.0,0.0,0.0,0.0,0.0,0.0,0.0,0.0,0.0,0.0,0.0,0.0,0.0,2.2559,2.3653,2.4156,2.3789,2.8129,2.6604,1.8057,0.6354,-0.7069,-2.2209,-1.6519,-1.5174,-1.7956,-2.1799,-2.2311,-2.0152,-2.3501,-2.641,-2.8752,-2.8982,-2.9837,-3.1274,-3.3855,-2.9851,-2.2435,-2.3547,-2.3217,-2.218,-2.2178,-2.1106,-2.0124,-2.2995,-2.3971,-2.3984,-2.4133,-2.6346,-2.813,-2.4277,-2.2861,-2.2045,-1.9863,-1.7812,-1.6045,-1.5431,-1.4258,-1.3178,-1.2849,-1.2004,-1.1196,-1.0635,-1.0267,-0.9967,-0.9693,-0.99,-1.0401,-1.1283,-1.1957,-1.332,-1.5973,-1.6234,-1.7455,0.0,0.0,0.0,0.0,0.0,0.0,-2.3105,0.0,-2.3135,-2.3135,-2.3135,-2.3135,-2.3135,-2.3135,-2.3125,-2.3105,-2.3105,-2.292,-2.2539,-2.2119,-2.1689,-2.125,-2.081,-2.0117,-1.9287,-1.9287,-1.8574,-1.7451,-1.7842,-1.8211,-1.8615,-1.9013,-1.9503,-2.0041,-2.0052,-1.9915,-1.9683,0.0,0.0,0.0,0.0,0.0,0.0,0.0,0.0,0.0,0.0,0.0,0.0,0.0,0.0,0.0,0.0,0.0,0.0,2.2459,2.2825,2.3126,2.3259,2.4884,2.2849,1.6647,0.8801,0.2052,-0.3487,0.4466,0.0,-1.5998,-1.1647,-1.039,-1.2033,-1.7453,-1.8861,-1.7387,-2.0785,-2.3136,-2.4684,-2.5404,-2.4343,-2.2186,-2.1215,-2.0669,-2.0347,-2.0353,-2.0063,-1.9827,-2.0586,-2.0845,-2.1199,-2.3139,-2.5363,-2.666,-2.3492,-2.335,-2.3622,-2.0802,-1.9707,-1.8702,-1.5709,-1.4528,-1.3773,-1.243,-1.1243,-1.0347,-0.998,-0.9499,-0.9118,-0.9045,-0.9626,-1.0401,-1.1283,-1.2478,0.0,-1.6391,-1.7071,0.0,-2.0597,0.0,-2.1415,-2.2504,-2.2861,0.0,0.0,-2.3135,-2.3135,-2.3135,-2.3135,-2.3135,-2.3135,-2.3135,-2.2988,-2.2676,-2.2676,-2.2773,-2.2969,-2.2549,-2.2129,-2.1709,-2.1269,-2.041,-1.9287,-1.9287,-1.874,-1.7852,-1.7969,-1.8075,-1.8108,-1.7571,-1.7466,-1.7656,-1.8111,-1.8233,-1.8282,0.0,0.0,0.0,0.0,0.0,0.0,0.0,0.0,0.0,0.0,0.0,0.0,0.0,0.0,0.0,0.0,0.0,0.0,0.0,2.2576,2.2213,2.1643,2.1913,1.9774,1.4744,1.38,1.1476,0.7572,1.0036,0.4426,-0.8533,-0.4442,-0.41,-0.711,-1.1853,-1.2894,-1.1351,-1.5094,-1.7909,0.0,0.0,-2.0323,-2.1051,-2.0063,-1.9717,-1.9698,-1.9697,-1.9693,-1.9809,0.0,0.0,-2.0346,-2.4159,-2.6156,-2.6757,-2.5097,0.0,-2.6893,-2.2822,-2.1132,-1.9841,-1.6522,-1.4759,-1.3323,-1.1649,-1.0309,-0.936,-0.908,-0.8906,-0.8804,-0.8804,-0.9212,-0.9786,0.0,0.0,0.0,-1.4996,-1.5841,-1.7033,0.0,-2.0086,0.0,-2.1898,-2.264,-2.3135,0.0,-2.3135,-2.3135,-2.3135,-2.3135,-2.3135,-2.3135,-2.3135,-2.3027,-2.2793,-2.2783,-2.2812,-2.2861,-2.2441,-2.2012,-2.1582,-2.1143,-2.0332,-1.9287,0.0,-1.8799,-1.8008,-1.8008,-1.8008,-1.7959,-1.748,-1.7426,-1.7677,-1.768,-1.8059,-1.8573,0.0,0.0,0.0,0.0,0.0,0.0,0.0,0.0,0.0,0.0,0.0,0.0,0.0,0.0,0.0,0.0,0.0,0.0,0.0,0.0,2.1662,2.0229,2.0074,1.8205,1.4226,1.9249,1.9364,1.4148,0.8399,0.3909,0.0573,0.0162,-0.1584,-0.4635,-0.7136,-0.8457,-0.8999,-1.174,-1.4292,-1.6537,-1.6808,-1.8031,-1.9691,0.0,-1.9829,-2.0029,-1.9756,-1.9683,-1.9968,-2.1858,-2.1719,-2.1542,-2.6143,-2.7856,-2.8108,-2.8098,-2.9967,-3.0817,-2.5373,-2.2142,-1.9743,-1.7579,-1.4963,-1.2439,-1.0823,-0.9448,-0.8443,-0.8329,0.0,-0.8758,-0.8798,-0.8838,-0.9072,-0.9699,0.0,-1.1693,-1.3348,-1.4126,-1.5417,-1.7665,-1.868,-1.977,-2.1051,-2.2236,-2.2969,-2.3096,-2.3067,-2.3135,-2.3135,-2.3135,-2.3115,-2.3057,-2.296,-2.296,-2.296,-2.2998,-2.2812,-2.25,-2.207,-2.1641,-2.1221,-2.0771,-2.0098,-1.9287,0.0,0.0,-1.8008,-1.8008,-1.8008,-1.7998,-1.7881,-1.8124,-1.855,-1.7949,-1.843,-1.9261,0.0,0.0,0.0,0.0,0.0,0.0,0.0,0.0,0.0,0.0,2.4917,2.4734,0.0,0.0,0.0,0.0,0.0,0.0,0.0,0.0,0.0,2.2582,2.213,2.1482,2.0684,2.0163,2.0154,2.0688,1.4463,0.877,0.3678,0.1154,-0.1598,-0.4497,-0.5031,-0.6545,-0.8962,-1.1749,-1.4286,-1.6675,-1.8438,-1.9381,-1.9715,-1.9701,0.0,0.0,-2.0212,-1.9695,-2.0081,-2.2524,-2.4628,-2.6378,-2.7319,-2.9061,-3.0807,-3.0839,-3.2691,-3.3524,-2.7582,-2.2408,-1.8461,-1.783,-1.5245,-1.2478,-1.0942,-0.9138,0.0,0.0,-0.8599,-0.8524,-0.8764,-0.9005,-0.9439,-1.0274,0.0,0.0,0.0,0.0,-1.6005,0.0,0.0,0.0,0.0,0.0,0.0,0.0,0.0,0.0,-2.3135,-2.3135,-2.2978,-2.2627,-2.2512,-2.2407,-2.2407,-2.2181,-2.2142,-2.2291,-2.1752,-2.1428,-2.1221,-2.0771,-2.0098,-1.9268,0.0,0.0,-1.8008,-1.8008,-1.8008,-1.7939,-1.7236,-1.6983,-1.7121,-1.7507,-1.7192,-1.6848,0.0,0.0,0.0,0.0,0.0,0.0,0.0,2.4837,2.5304,2.5297,2.5157,2.4996,2.482,2.4962,2.5129,0.0,0.0,0.0,0.0,0.0,0.0,0.0,0.0,0.0,0.0,2.1717,0.0,0.0,0.0,0.9998,0.0,0.0,0.0,0.0,-0.5358,-0.7518,-0.8957,-1.1725,-1.3563,-1.4911,-1.8318,-1.9031,0.0,0.0,0.0,0.0,0.0,-2.027,-2.11,-2.1467,-2.3335,-2.5985,-2.8779,-2.9543,-2.9758,-3.1099,-3.1999,-3.1919,-2.9008,-2.4537,-2.031,-1.8461,-1.6363,-1.3674,-0.9657,0.0,0.0,0.0,-0.8162,-0.8644,-0.8784,-0.8925,0.0,-0.978,0.0,0.0,0.0,0.0,0.0,0.0,0.0,0.0,0.0,0.0,0.0,0.0,0.0,0.0,-2.3135,-2.3135,-2.2969,-2.2853,-2.2748,-2.2745,-2.2745,-2.2556,-2.2304,-2.1846,-2.1539,-2.1092,-2.0537,-2.0322,-1.9756,-1.8936,-1.873,0.0,-1.7988,-1.7773,-1.7812,-1.792,-1.707,-1.6908,-1.7245,-1.6912,-1.7032,-1.7458,0.0,0.0,0.0,0.0,0.0,0.0,0.0,2.4687,2.5126,2.5275,2.5298,2.5189,2.4947,2.5138,2.5302,0.0,0.0,0.0,0.0,0.0,0.0,0.0,0.0,0.0,0.0,0.0,0.0,0.0,0.0,0.0,0.0,0.0,0.0,0.0,0.0,0.0,0.0,-1.1997,-1.344,0.0,0.0,0.0,0.0,0.0,0.0,0.0,0.0,-2.059,-2.1538,-2.0146,-2.1073,-2.3507,-2.7643,-2.7969,-2.724,-2.9873,-3.0452,-2.993,-2.8711,-2.5769,-2.2257,-1.8564,-1.6885,-1.4561,-0.8742,-0.7079,0.0,-0.702,-0.7996,-0.8804,-0.8804,-0.8804,-0.8898,0.0,-0.9679,-1.0534,0.0,0.0,0.0,0.0,0.0,0.0,0.0,0.0,0.0,0.0,0.0,0.0,-2.3125,-2.2978,-2.2945,-2.2954,-2.3058,-2.2952,-2.2531,-2.2531,-2.2118,-2.124,-2.1252,-2.0781,-1.9912,-1.9824,-1.9316,-1.8496,-1.8408,0.0,0.0,-1.748,-1.7529,-1.7666,-1.6992,-1.7026,-1.7359,-1.6497,-1.6884,-1.7855,0.0,0.0,0.0,0.0,0.0,0.0,0.0,2.4247,2.4554,2.5227,2.53,2.53,2.5245,2.5291,2.5302,0.0,0.0,0.0,0.0,0.0,0.0,0.0,0.0,0.0,0.0,0.0,0.0,0.0,0.0,0.0,0.0,0.0,0.0,0.0,0.0,0.0,0.0,0.0,0.0,0.0,0.0,0.0,0.0,0.0,0.0,0.0,0.0,0.0,-1.9918,0.0,0.0,-2.0145,-2.0655,-2.2226,-2.4498,-2.7145,0.0,0.0,-2.5139,-2.3392,-2.1983,-1.7195,-1.5587,-1.3895,-0.9361,0.0,-0.5479,-0.8078,-0.8699,-0.8804,-0.8804,-0.8804,-0.8898,-0.9137,-0.9512,-1.0227,0.0,0.0,0.0,0.0,0.0,0.0,0.0,0.0,0.0,0.0,0.0,0.0,0.0,-2.264,-2.2413,-2.2383,-2.2835,-2.2389,-2.087,-2.087,-2.0761,-2.0703,-2.0703,-2.0381,-1.9902,-1.9521,-1.8877,-1.8047,0.0,0.0,0.0,-1.7236,-1.7178,-1.6782,-1.6758,-1.6547,-1.6246,-1.6434,-1.5925,-1.5376,0.0,0.0,0.0,0.0,0.0,0.0,2.3654,2.3302,2.2779,2.2018,2.2397,2.3289,2.482,2.5009,2.5077,2.5281,0.0,0.0,0.0,0.0,0.0,0.0,0.0,0.0,0.0,0.0,0.0,0.0,0.0,0.0,0.0,0.0,0.0,0.0,0.0,0.0,0.0,0.0,0.0,0.0,0.0,0.0,0.0,0.0,0.0,0.0,0.0,0.0,0.0,0.0,0.0,0.0,-1.927,-1.9509,0.0,0.0,-2.5603,-2.3329,-2.3144,-2.094,-1.8242,-1.6277,-1.5137,-1.2997,-0.7368,0.0,-0.7187,-0.7436,-0.8176,-0.8804,-0.8818,-0.8811,-0.8671,-0.8359,-0.8799,0.0,-0.9995,0.0,0.0,0.0,0.0,0.0,0.0,0.0,0.0,0.0,0.0,0.0,0.0,-2.2409,-2.2439,-2.2727,-2.3032,-2.2271,-2.0624,-2.0614,-2.0371,-1.9831,-1.9956,-1.972,-1.9141,-1.8975,-1.8574,-1.7988,0.0,0.0,0.0,-1.6738,-1.665,-1.668,-1.6143,-1.5986,-1.6066,-1.5918,-1.581,-1.5915,0.0,0.0,0.0,0.0,0.0,2.3967,2.3295,2.2485,2.1467,2.0246,2.061,2.1852,2.4078,2.4701,2.5,2.5139,2.5418,0.0,0.0,0.0,0.0,0.0,0.0,0.0,0.0,0.0,2.4938,2.5006,1.9029,0.0,0.0,0.0,0.0,0.0,0.0,0.0,0.0,0.0,0.0,0.0,0.0,0.0,0.0,0.0,0.0,0.0,0.0,0.0,0.0,0.0,0.0,0.0,-1.5453,-1.5414,-1.5526,0.0,-2.0544,-1.693,-1.9697,-1.707,-1.3474,-1.3268,-1.2482,-1.0527,0.0,0.0,-0.7225,-0.6218,-0.6781,-0.7512,-0.7526,-0.7872,-0.7991,-0.7461,-0.783,-0.8386,-0.9017,0.0,0.0,0.0,0.0,0.0,0.0,0.0,0.0,0.0,0.0,0.0,0.0,-2.1798,-2.2171,-2.3099,-2.2608,-2.1547,-1.986,-1.9832,-1.962,-1.9144,-1.9341,-1.9161,-1.8633,-1.8506,-1.8154,-1.7607,0.0,0.0,0.0,-1.6331,-1.6172,-1.6289,-1.5791,-1.5713,-1.583,-1.5527,-1.5668,-1.6012,0.0,0.0,0.0,0.0,0.0,0.0,2.329,2.196,2.1016,2.0996,2.0999,2.1562,2.3055,2.4464,2.5158,2.4834,2.5108,0.0,0.0,0.0,0.0,0.0,0.0,0.0,0.0,0.0,2.3945,2.3821,2.4992,2.0784,1.134,0.0,0.0,0.0,0.0,0.0,0.0,0.0,0.0,0.0,0.0,0.0,0.0,0.0,0.0,0.0,0.0,0.0,0.0,0.0,0.0,0.0,0.0,-0.8885,-0.9883,-1.5091,-1.4607,-1.2626,-1.3865,-1.1203,-0.7938,-0.7304,-0.6783,-0.608,0.0,0.0,-0.4515,-0.4544,-0.4541,-0.4541,-0.4541,-0.5671,-0.6642,-0.6588,-0.6642,-0.7271,-0.9162,0.0,0.0,0.0,0.0,0.0,0.0,0.0,0.0,0.0,0.0,0.0,0.0,-2.0589,-2.1379,-2.3067,-2.1527,-1.9817,-1.8058,-1.8055,-1.8328,-1.8899,-1.8908,-1.8778,-1.8623,-1.8203,-1.7549,0.0,0.0,0.0,0.0,-1.5889,-1.5811,-1.5469,-1.5889,-1.5791,-1.542,-1.541,-1.5146,-1.4851,0.0,0.0,0.0,0.0,0.0,0.0,0.0,2.1948,2.161,2.0998,2.164,2.2436,2.3124,2.3719,2.4159,2.4443,2.5054,0.0,0.0,0.0,0.0,0.0,0.0,0.0,0.0,0.0,2.478,2.4273,2.1782,1.8681,1.4771,0.2572,-0.5651,0.0,0.0,0.0,0.0,0.0,0.0,0.0,0.0,0.0,0.0,0.0,0.0,0.0,0.0,0.0,0.0,0.0,0.0,0.0,0.0,0.0,0.0,-0.1645,-0.441,-0.7262,-0.8464,-0.5718,-0.2485,-0.2328,-0.2114,-0.2417,-0.4116,-0.4494,-0.4512,-0.4505,-0.4508,-0.4168,-0.3137,-0.4136,-0.5144,-0.5089,-0.5688,-0.6303,0.0,0.0,0.0,0.0,0.0,0.0,0.0,0.0,0.0,0.0,0.0,0.0,0.0,0.0,-2.0871,-2.1369,-1.9691,-1.8526,-1.8036,-1.8394,-1.848,-1.8276,-1.8276,-1.8105,-1.7764,-1.7334,0.0,0.0,0.0,0.0,0.0,-1.5684,-1.5537,-1.54,-1.5244,-1.5283,-1.5342,-1.4756,-1.4639,-1.4746,0.0,0.0,0.0,0.0,0.0,0.0,0.0,2.1564,2.168,2.1259,2.1908,2.2642,2.3175,2.3472,2.3708,2.3898,2.4354,0.0,0.0,0.0,0.0,0.0,0.0,0.0,0.0,2.5324,2.518,2.4452,2.2158,2.0257,1.8551,0.9219,-0.2057,-1.4641,-1.8325,0.0,0.0,0.0,0.0,0.0,0.0,0.0,2.4314,0.0,0.0,0.0,0.0,0.0,0.0,0.0,0.0,0.0,0.0,0.0,0.0,0.0,0.3831,0.0117,-0.1696,-0.0272,0.1732,0.1728,0.0856,0.0,0.0,-0.4487,-0.42,-0.3012,-0.279,-0.2619,-0.205,-0.2713,-0.3437,-0.355,-0.4316,-0.5037,0.0,0.0,0.0,0.0,0.0,0.0,0.0,0.0,0.0,0.0,0.0,0.0,0.0,0.0,-1.8124,-1.959,-1.8566,-1.7768,-1.7307,-1.793,-1.8062,-1.7793,-1.7561,-1.7393,-1.7119,-1.668,0.0,0.0,0.0,0.0,0.0,-1.5283,-1.5176,-1.5166,-1.5059,-1.499,-1.4883,-1.4512,-1.4346,-1.4268,0.0,0.0,0.0,0.0,0.0,0.0,0.0,2.0951,2.1381,2.1698,2.1935,2.2399,2.3285,2.357,2.3587,2.3233,0.0,0.0,0.0,0.0,0.0,0.0,0.0,0.0,2.5263,2.544,2.5132,2.434,2.5165,2.4383,2.199,1.5724,0.2195,-1.6853,-1.8099,-1.4916,0.0,0.0,0.0,0.0,0.0,0.0,0.0,0.0,0.0,0.0,0.0,0.0,0.0,0.0,0.0,0.0,0.0,0.0,0.0,0.0,0.0,0.0,0.0,0.4744,0.4478,0.4504,0.0,0.0,-0.348,-0.4188,0.0,-0.0556,0.0,-0.0278,-0.1226,-0.1393,-0.1561,-0.2063,-0.2792,0.0,0.0,0.0,0.0,0.0,0.0,0.0,0.0,0.0,0.0,0.0,0.0,0.0,0.0,0.0,-1.3915,-1.7442,-1.7642,-1.7229,-1.6171,-1.6794,-1.7164,-1.7334,-1.6894,-1.668,-1.667,-1.6191,0.0,0.0,0.0,0.0,0.0,-1.4736,-1.4736,-1.4775,-1.5137,-1.4805,-1.418,-1.4521,-1.416,-1.3506,0.0,0.0,0.0,0.0,0.0,0.0,0.0,0.0,0.0,0.0,2.2601,2.3203,2.3975,2.3355,2.2753,0.0,0.0,0.0,0.0,0.0,0.0,0.0,0.0,0.0,2.3865,2.4408,2.4388,2.3791,2.415,2.2957,2.0251,1.4293,0.2414,-1.4173,-2.09,-1.8548,0.0,0.0,0.0,0.0,0.0,0.0,0.0,0.0,0.0,0.0,1.6074,1.4,0.0,0.0,0.0,0.0,0.0,0.0,0.0,0.0,1.1618,1.1572,0.9802,0.0,0.4512,0.4492,0.3948,0.2669,0.0,-0.1064,-0.0835,0.0,0.0,0.0,0.0,-0.0335,-0.0558,-0.1228,-0.2565,0.0,0.0,0.0,0.0,0.0,0.0,0.0,0.0,0.0,0.0,0.0,0.0,0.0,0.0,0.0,-1.2545,-1.3135,-1.4134,-1.5343,-1.6882,-1.684,-1.6811,-1.6885,-1.6436,-1.6221,-1.6201,-1.543,0.0,0.0,0.0,0.0,-1.4287,-1.4287,-1.4287,-1.4268,-1.4043,-1.4033,-1.4009,-1.3525,-1.3398,-1.3467,0.0,0.0,0.0,0.0,0.0,0.0,0.0,0.0,0.0,0.0,0.0,0.0,0.0,0.0,0.0,0.0,0.0,0.0,0.0,0.0,0.0,0.0,0.0,2.2682,2.231,2.3142,2.387,2.4464,2.4081,2.2459,1.9405,0.7856,-0.2898,-1.2869,-2.1101,-1.9929,0.0,0.0,0.0,0.0,2.1405,0.0,0.0,0.0,0.0,0.0,1.5195,1.3765,0.0,1.0889,0.9607,0.8725,0.0,0.0,0.0,0.0,1.1942,1.2682,1.1971,0.9607,0.6913,0.4969,0.4501,0.4084,0.2434,0.0998,0.0,0.0,0.0,0.0,0.0,0.0,-0.0112,-0.0503,-0.2008,0.0,0.0,0.0,0.0,0.0,0.0,0.0,0.0,0.0,0.0,0.0,0.0,0.0,0.0,0.0,-1.2032,-1.2283,-1.2521,-1.3483,-1.5164,-1.5258,-1.5458,-1.5845,-1.5223,-1.5176,-1.5449,-1.4785,0.0,0.0,0.0,0.0,-1.3795,-1.3795,-1.3795,-1.3848,-1.3809,-1.3701,-1.3525,-1.3262,-1.3193,-1.3184,0.0,0.0,0.0,0.0,0.0,0.0,0.0,0.0,0.0,0.0,0.0,0.0,0.0,0.0,0.0,0.0,0.0,0.0,0.0,0.0,0.0,0.0,0.0,2.1053,2.0524,2.1572,2.2828,2.4195,2.4086,2.2648,1.9679,0.384,-0.7345,-1.4383,-2.1007,-2.0221,0.0,0.0,0.0,0.0,1.7734,0.0,0.0,0.0,0.0,0.0,0.0,0.0,0.0,1.0003,0.9096,0.8947,0.8336,0.0,0.0,0.0,0.0,0.0,1.2969,1.2113,1.0229,0.6413,0.5317,0.5043,0.4587,0.2546,0.0667,0.0669,0.0,0.0,0.0,0.0112,0.0,0.0,0.0,0.0,0.0,0.0,0.0,0.0,0.0,0.0,0.0,0.0,0.0,0.0,0.0,0.0,0.0,0.0,0.0,-1.2358,-1.1736,-1.1684,-1.2409,-1.3131,-1.3908,-1.459,-1.3977,-1.4054,-1.4678,-1.4238,-1.3848,0.0,0.0,0.0,-1.3408,-1.3408,-1.3408,-1.3447,-1.3799,-1.3506,-1.293,-1.3281,-1.3184,-1.2881,0.0,0.0,0.0,0.0,0.0,0.0,0.0,0.0,0.0,0.0,0.0,0.0,0.0,0.0,0.0,0.0,0.0,0.0,0.0,0.0,0.0,2.1111,2.0675,1.9746,1.8324,1.9441,1.9468,1.8306,2.2559,2.3915,2.2354,1.7545,0.1397,-2.3639,-2.4678,-2.0657,-1.254,-0.4147,0.5098,1.4349,1.7338,0.0,0.0,0.0,0.0,0.0,0.0,0.0,0.0,1.1648,1.0948,1.045,1.0348,0.0,0.0,0.0,0.0,0.0,1.3362,1.3113,1.2162,1.0283,0.9004,0.7481,0.5039,0.4149,0.3825,0.3808,0.0,0.0,0.0,0.056,0.0,0.0,0.0,0.0,0.0,0.0,0.0,0.0,0.0,0.0,0.0,0.0,0.0,0.0,0.0,0.0,0.0,0.0,0.0,-0.9612,-1.0091,-1.0282,-1.0192,-1.2192,-1.3247,-1.3358,-1.3798,-1.4067,-1.4165,-1.3799,-1.3574,0.0,0.0,-1.2978,-1.2978,-1.2978,-1.2978,-1.2988,-1.3047,-1.2998,-1.2891,-1.2959,-1.2939,-1.2881,0.0,0.0,0.0,0.0,0.0,0.0,0.0,0.0,0.0,0.0,0.0,0.0,0.0,0.0,0.0,0.0,0.0,0.0,0.0,0.0,0.0,2.0259,1.9502,1.8447,1.7139,1.5894,1.4699,1.3607,1.6786,1.8278,1.8121,1.4723,0.3193,-1.4698,-1.7432,-1.5462,-0.9747,-0.4549,0.2591,1.0719,0.0,0.0,0.0,0.0,0.0,0.0,0.0,0.0,0.0,0.0,1.1616,1.1266,1.0914,0.0,0.0,0.0,0.0,0.0,1.3218,1.3074,1.2492,1.0939,1.0041,0.8884,0.6244,0.5027,0.4488,0.4477,0.0,0.0,0.0,0.0,0.0,0.0,0.0,0.0,0.0,0.0,0.0,0.0,0.0,0.0,0.0,0.0,0.0,0.0,0.0,0.0,0.0,0.0,0.0,0.0,-0.9545,-0.9579,-0.9446,-1.0678,-1.1523,-1.1911,-1.2366,-1.2813,-1.3237,-1.3198,-1.3174,-1.3164,0.0,-1.2881,-1.2881,-1.2881,-1.2881,-1.2881,-1.2881,-1.2881,-1.2881,-1.2881,-1.2881,-1.2881,0.0,0.0,0.0,0.0,0.0,0.0,0.0,0.0,0.0,0.0,0.0,0.0,0.0,0.0,0.0,0.0,0.0,0.0,0.0,0.0,1.949,1.8958,1.8151,1.7355,1.6534,1.4041,1.1734,0.9599,1.0567,1.1059,1.1115,0.7558,0.2377,-0.4127,-0.9429,-0.9704,-0.6098,-0.3832,0.0775,0.6837,0.0,0.0,0.0,0.0,0.0,0.0,0.0,0.0,0.0,0.0,0.0,0.0,0.0,0.0,0.0,1.2395,1.2916,1.3398,1.3229,1.2809,1.2072,1.068,1.021,0.9518,0.727,0.5766,0.4754,0.4522,0.0,0.0,0.0,0.0,0.0,0.0,0.0,0.0,0.0,0.0,0.0,0.0,0.0,0.0,0.0,0.0,0.0,0.0,0.0,0.0,0.0,0.0,0.0,0.0,-0.88,-0.8857,-0.8857,-0.9323,-0.9909,-1.0672,-1.1001,-1.1505,-1.2086,-1.2304,-1.2412,-1.2412,-1.2412,-1.251,-1.2657,-1.2657,-1.2725,-1.2881,-1.2881,-1.2881,-1.2881,-1.2881,-1.2881,-1.2881,0.0,0.0,0.0,0.0,0.0,0.0,0.0,0.0,0.0,0.0,0.0,0.0,0.0,0.0,0.0,0.0,0.0,0.0,0.0,0.0,1.8824,1.6797,1.6665,1.6566,1.6503,1.6266,1.2968,0.6452,0.5896,0.4593,0.2572,0.1189,0.0221,-0.0608,-0.602,-0.6036,-0.1983,-0.2582,-0.005,0.4599,0.7665,0.0,0.0,0.0,0.0,0.0,0.0,0.0,0.0,0.0,0.0,0.0,0.0,0.0,1.3055,1.4143,1.3474,1.2533,1.3685,1.2701,1.1122,1.0389,1.0019,0.9386,0.7729,0.6549,0.5579,0.4677,0.0,0.0,0.0,0.0,0.0,0.0,0.0,0.0,0.0,0.0,0.0,0.0,0.0,0.0,0.0,0.0,0.0,0.0,0.0,0.0,0.0,0.0,0.0,0.0,0.0,-0.78,-0.78,-0.854,-0.9232,-0.9881,-1.0514,-1.0854,-1.0905,-1.0931,-1.0973,-1.0973,-1.0973,-1.1316,-1.1864,-1.1864,-1.2286,-1.2881,-1.2881,-1.2881,-1.2881,-1.2881,-1.2881,-1.2881,0.0,0.0,0.0,0.0,0.0,0.0,0.0,0.0,0.0,0.0,0.0,0.0,0.0,0.0,0.0,0.0,0.0,0.0,0.0,1.7702,1.6666,1.4362,1.263,1.1714,1.1724,1.4393,1.2439,0.5609,0.1923,-0.1393,-0.4383,-0.9789,-0.7916,-0.0244,-0.593,-0.5787,-0.1344,-0.3031,-0.1209,0.306,0.5108,0.7037,0.0,0.0,0.0,0.0,0.0,0.0,0.0,0.0,1.2881,1.2881,1.2881,1.3152,1.3552,1.4014,1.3979,1.3804,1.3885,1.2909,1.1724,1.1087,1.0246,0.9184,0.7896,0.7281,0.6789,0.5987,0.516,0.0,0.0,0.0,0.0,0.0,0.0,0.0,0.0,0.0,0.0,0.0,0.0,0.0,0.0,0.0,0.0,0.0,0.0,0.0,0.0,0.0,0.0,0.0,0.0,-0.702,-0.702,-0.7289,-0.7771,-0.8508,-0.9644,-1.0167,-1.021,-1.0618,-1.0813,-1.0813,-1.0813,-1.0965,-1.1216,-1.1616,-1.1724,-1.1584,-1.1584,-1.1584,-1.1584,-1.1584,-1.1584,-1.1584,0.0,0.0,0.0,0.0,0.0,0.0,0.0,0.0,0.0,0.0,0.0,0.0,0.0,0.0,0.0,0.0,0.0,0.0,1.6498,1.5775,1.4654,1.295,1.1078,0.9897,0.9453,1.2823,1.1817,0.6039,-0.0578,-0.5327,-0.8279,-1.3134,-1.0777,-0.2571,-0.5438,-0.4787,-0.158,-0.3329,-0.2199,0.0871,0.2609,0.4334,0.0,0.0,0.0,0.0,0.0,0.0,0.0,0.0,1.2881,1.2881,1.2881,1.32,1.3552,1.3721,1.3648,1.3475,1.3263,1.2377,1.1344,1.066,0.9977,0.9264,0.8157,0.7823,0.7509,0.675,0.6199,0.5542,0.0,0.0,0.0,0.0,0.0,0.0,0.0,0.0,0.0,0.0,0.0,0.0,0.0,0.0,0.0,0.0,0.0,0.0,0.0,0.0,0.0,0.0,0.0,0.0,-0.6163,-0.6589,-0.7034,-0.7534,-0.8656,-0.9322,-0.951,-0.9961,-1.0167,-1.0167,-1.0167,-1.0269,-1.0517,-1.0965,-1.1166,-1.1116,-1.1116,-1.1275,-1.1434,-1.1216,-1.1275,-1.1434,0.0,0.0,0.0,0.0,0.0,0.0,0.0,0.0,0.0,0.0,0.0,0.0,0.0,0.0,0.0,0.0,0.0,0.0,1.6517,1.4222,1.2932,1.2938,1.292,1.2269,1.0869,1.2174,1.113,0.7612,-0.1404,-0.6838,-0.8675,-0.6754,-0.6484,-0.7475,-0.4041,-0.2414,-0.2225,-0.3222,-0.3037,-0.1991,0.022,0.1539,0.2415,0.0,0.0,0.0,0.0,0.0,0.0,0.0,1.2929,1.2929,1.2929,1.2929,1.3017,1.3647,1.245,1.1092,1.1743,1.094,0.9681,0.8791,0.0,0.0,0.8639,0.8067,0.7503,0.675,0.6642,0.6588,0.6583,0.0,0.0,0.0,0.0,0.0,0.0,0.0,0.0,0.0,0.0,0.0,0.0,0.0,0.0,0.0,0.0,0.0,0.0,0.0,0.0,0.0,0.0,0.0,-0.5276,-0.6616,-0.7206,-0.7092,-0.7637,-0.8187,-0.8798,-0.8804,-0.8804,-0.8804,-0.8804,-0.9159,-0.9814,-0.9814,-1.0568,-1.1765,-1.1765,-1.2236,-1.2774,-1.203,-1.2236,-1.2783,0.0,0.0,0.0,0.0,0.0,0.0,0.0,0.0,0.0,0.0,0.0,0.0,0.0,0.0,0.0,0.0,0.0,0.0,1.6512,1.4246,1.3264,1.4131,1.4179,1.3577,1.2292,1.0677,0.7722,0.3256,-0.0115,-0.2574,-0.4167,-0.4609,-0.3923,-0.2312,-0.284,-0.2445,-0.153,-0.2828,-0.2923,-0.2112,-0.0941,0.0332,0.1658,0.0,0.0,0.0,0.0,0.0,0.0,0.0,0.0,0.0,1.3552,1.3826,1.4107,1.3873,1.3704,1.3507,1.3305,1.223,0.0,1.1508,0.0,0.0,0.0,0.9929,0.0,0.0,0.77,0.718,0.6425,0.0,0.0,0.0,0.0,0.0,0.0,0.0,0.0,0.0,0.0,0.0,0.0,0.0,0.0,0.0,0.0,0.0,0.0,0.0,0.0,0.0,0.0,0.0,-0.4386,-0.4785,-0.5201,-0.5678,-0.6266,-0.7133,-0.8196,-0.841,-0.8504,-0.8517,-0.8717,-0.891,-0.9113,-0.9113,-0.9614,-1.0364,-0.9865,-0.9821,-0.9976,-0.9769,-0.9821,-0.9976,0.0,0.0,0.0,0.0,0.0,0.0,0.0,0.0,0.0,0.0,0.0,0.0,0.0,0.0,0.0,0.0,0.0,0.0,0.0,1.4424,1.3861,1.4446,1.4471,1.4084,1.3283,1.1308,0.8294,0.4277,0.2546,0.0808,-0.091,-0.1808,-0.1237,0.0353,-0.1301,-0.14,-0.0341,-0.1871,-0.2196,-0.1724,-0.0944,-0.0111,0.0887,0.0,0.0,0.0,0.0,0.0,0.0,0.0,0.0,0.0,1.4097,1.4422,1.4528,1.3555,1.3324,1.315,1.2371,1.1498,0.0,1.1439,1.0903,1.0573,1.1572,0.0,0.0,0.0,0.0,0.0,0.0,0.0,0.0,0.0,0.0,0.0,0.0,0.0,0.0,0.0,0.0,0.0,0.0,0.0,0.0,0.0,0.0,0.0,0.0,0.0,0.0,0.0,0.0,0.0,-0.3587,-0.4021,-0.447,-0.482,-0.5428,-0.6132,-0.6995,-0.7814,-0.8323,-0.855,-0.8611,-0.8697,-0.8798,-0.8684,-0.9099,-0.9762,-0.9361,-0.9361,-0.9562,-0.9309,-0.9361,-0.9562,0.0,0.0,0.0,0.0,0.0,0.0,0.0,0.0,0.0,0.0,1.6522,0.0,0.0,0.0,0.0,0.0,0.0,0.0,0.0,0.0,1.462,1.423,1.4183,1.401,1.37,1.3062,1.1353,0.8604,0.5862,0.3417,0.1323,0.1246,0.1205,0.1171,0.0361,0.0479,0.1103,-0.0406,-0.1026,-0.0832,-0.0167,0.0167,0.05,0.2558,0.0,0.0,0.0,0.0,0.0,0.0,0.0,0.0,1.4606,1.4789,1.4519,1.3119,1.2071,1.1136,1.025,0.9886,0.9758,0.9755,1.052,0.0,1.1625,1.1262,1.068,1.0069,0.0,0.0,0.0,0.0,0.0,0.0,0.0,0.0,0.0,0.0,0.0,0.0,0.0,0.0,0.0,0.0,0.0,0.0,0.0,0.0,0.0,0.0,0.0,0.0,0.0,0.0,-0.2733,-0.3854,-0.4377,0.0,-0.4865,-0.5247,-0.5513,-0.7025,-0.8088,-0.8646,-0.8457,-0.8484,-0.8704,-0.8444,-0.8882,-0.9629,-0.9629,-1.0023,-1.0471,-0.987,-1.0023,-1.0479,0.0,0.0,0.0,0.0,0.0,0.0,0.0,0.0,0.0,0.0,0.0,0.0,0.0,0.0,0.0,0.0,0.0,0.0,0.0,0.0,1.5367,1.5287,1.4801,1.4043,1.2875,1.2289,1.0914,0.8697,0.6897,0.4933,0.2819,0.2261,0.198,0.1977,0.175,0.18,0.1914,0.0954,0.0614,0.0665,0.0777,0.1548,0.2642,0.3111,0.4494,0.0,0.0,0.0,0.0,0.0,0.0,0.0,1.5231,1.541,1.5229,1.444,1.3465,1.2677,1.292,1.2088,0.0,0.0,1.1604,1.1398,1.0976,1.114,1.1315,0.0,0.0,0.0,0.0,0.0,0.0,0.0,0.0,0.0,0.0,0.0,0.0,0.0,0.0,0.0,0.0,0.0,0.0,0.0,0.0,0.0,0.0,0.0,0.0,0.0,0.0,-0.1362,-0.1349,-0.2072,-0.265,0.0,-0.3635,-0.4296,-0.5042,-0.5964,-0.6877,-0.7617,-0.7905,-0.8063,-0.8116,-0.8049,-0.8111,-0.8304,-0.8304,-0.8394,-0.849,-0.8352,-0.8394,-0.8525,0.0,0.0,0.0,0.0,0.0,0.0,0.0,0.0,0.0,0.0,0.0,0.0,0.0,0.0,0.0,0.0,0.0,0.0,0.0,0.0,1.5708,1.5959,1.5959,1.546,1.4451,1.3627,1.2201,1.014,0.8709,0.6749,0.4358,0.361,0.3099,0.2792,0.3108,0.3437,0.3773,0.3366,0.3194,0.3194,0.3194,0.3684,0.4395,0.4758,0.5597,0.6691,0.7374,0.0,0.0,0.0,0.0,0.0,0.0,0.0,1.5849,1.4785,1.3905,1.3076,1.2373,0.0,0.0,1.2189,0.0,1.1871,1.1518,1.1338,1.1346,0.0,0.0,0.0,0.0,0.0,0.0,0.0,0.0,0.0,0.0,0.0,0.0,0.0,0.0,0.0,0.0,0.0,0.0,0.0,0.0,0.0,0.0,0.0,0.0,0.0,0.0576,-0.0044,-0.0044,-0.0932,-0.1511,-0.1866,-0.2399,-0.3131,-0.3969,-0.5433,-0.6266,-0.6568,-0.7066,-0.7367,-0.7529,-0.7676,-0.7796,-0.7882,-0.7882,-0.7732,-0.7535,-0.7535,-0.7535,-0.7561,0.0,0.0,0.0,0.0,0.0,0.0,0.0,0.0,0.0,0.0,0.0,0.0,0.0,0.0,0.0,0.0,0.0,0.0,0.0,0.0,0.0,1.6777,1.7164,1.7014,1.6181,1.5071,1.3543,1.1536,1.0292,0.8469,0.604,0.5166,0.4439,0.3788,0.4449,0.511,0.5701,0.5837,0.5873,0.5873,0.5977,0.603,0.6093,0.6563,0.6799,0.6858,0.7509,0.858,1.0023,1.2147,0.0,0.0,0.0,0.0,1.6373,1.514,1.4266,1.3323,1.1628,0.0,1.1618,1.223,1.2368,0.0,1.2233,1.1644,0.0,0.0,0.0,0.0,0.0,0.0,0.0,0.0,0.0,0.0,0.0,0.0,0.0,0.0,0.0,0.0,0.0,0.0,0.0,0.0,0.0,0.0,0.0,0.0,0.3155,0.3155,0.1995,0.1328,0.1328,0.0177,-0.0532,-0.0754,-0.147,-0.218,-0.291,-0.4763,-0.558,-0.554,-0.6146,-0.6527,-0.6801,-0.7031,-0.7263,-0.7442,-0.7442,-0.7201,-0.6766,-0.6766,-0.6866,-0.6966,0.0,0.0,0.0,0.0,0.0,0.0,0.0,0.0,0.0,0.0,0.0,0.0,0.0,0.0,0.0,0.0,0.0,0.0,1.5632,0.0,0.0,1.8422,1.8015,1.6943,1.5229,1.4238,1.278,1.0839,1.012,0.9266,0.8246,0.6918,0.5896,0.5265,0.6009,0.6337,0.6475,0.7084,0.7334,0.7382,0.7992,0.8266,0.8193,0.7664,0.7528,0.7563,0.767,0.858,1.0058,1.2549,1.4293,0.0,0.0,0.0,1.6973,1.6804,1.5597,1.4409,1.458,0.0,1.2771,0.0,1.2169,1.1886,0.0,0.0,0.0,0.0,0.0,0.0,0.0,0.0,0.0,0.0,0.0,0.0,0.0,0.0,0.0,0.0,0.0,0.0,0.0,0.0,0.0,0.0,0.0,0.0,0.0,0.5043,0.4952,0.4952,0.376,0.3143,0.3143,0.1999,0.0935,-0.0133,-0.1247,-0.2148,-0.2742,-0.3024,-0.3764,-0.4848,-0.5301,-0.5499,-0.5525,-0.5581,-0.563,-0.5657,-0.5657,-0.5613,-0.5525,-0.5525,-0.5881,-0.6357,0.0,0.0,0.0,0.0,0.0,0.0,0.0,0.0,0.0,0.0,0.0,0.0,0.0,0.0,0.0,1.5522,1.5478,1.5644,1.6003,1.745,1.8636,1.9426,1.9441,1.8781,1.7369,1.5823,1.4124,1.2387,1.1423,1.0332,0.9283,0.9037,0.7941,0.6145,0.7261,0.7794,0.7847,0.8528,0.9044,0.9438,0.9746,0.9751,0.9522,0.9431,0.93,0.9141,0.9364,1.0316,1.1724,1.3491,1.4911,1.6298,1.8025,0.0,0.0,0.0,1.6069,1.4886,1.4587,1.3808,1.3006,0.0,1.272,1.2508,1.2246,0.0,0.0,0.0,0.0,0.0,0.0,0.0,0.0,0.0,0.0,0.0,0.0,0.0,0.0,0.0,0.0,0.0,0.0,0.0,0.0,0.0,0.0,0.0,0.6716,0.6367,0.6193,0.6193,0.5386,0.4962,0.4962,0.3494,0.2001,0.0491,-0.0357,-0.1114,-0.1697,-0.2051,-0.2881,-0.4119,-0.4604,-0.4783,-0.4826,-0.5173,-0.5303,-0.5303,-0.5303,-0.5087,-0.4826,-0.5173,-0.548,-0.5755,0.0,0.0,0.0,0.0,0.0,0.0,0.0,0.0,0.0,0.0,0.0,0.0,0.0,0.0,0.0,0.0,1.4698,1.5174,1.6348,1.7946,1.9179,1.9878,2.0215,1.9919,1.8884,1.6915,1.521,1.3716,1.2434,1.124,1.025,1.0788,0.982,0.7688,0.8783,0.9252,0.9304,0.9997,1.0618,1.1057,1.1122,1.0868,1.0494,1.067,1.0432,1.0099,1.0508,1.1496,1.2835,1.4225,1.5552,1.6915,1.8584,1.8235,0.0,0.0,0.0,0.0,0.0,0.0,1.3467,1.3218,1.3344,1.334,0.0,0.0,0.0,0.0,0.0,0.0,0.0,0.0,0.0,0.0,0.0,0.0,0.0,0.0,0.0,0.0,0.0,0.0,0.0,0.0,0.0,0.0,0.0,0.0,0.8407,0.7939,0.7647,0.7539,0.701,0.6642,0.6536,0.4651,0.3008,0.156,0.0801,0.0134,-0.0446,-0.107,-0.1916,-0.2943,-0.3642,-0.4041,-0.422,-0.47,-0.4874,-0.4874,-0.4874,-0.4613,-0.4264,-0.47,-0.4957,-0.513,0.0,0.0,0.0,0.0,0.0,0.0,0.0,0.0,0.0,0.0,0.0,0.0,1.5576,1.5107,1.4744,1.4698,1.4698,1.5174,1.6348,1.733,1.8394,1.9555,1.9626,0.0,1.7918,1.6342,1.4982,1.3815,1.2453,1.1756,1.1706,1.1715,1.1316,1.0602,1.0661,1.0712,1.0712,1.1408,1.1715,1.1778,1.2026,1.1752,1.1098,1.0758,1.0154,0.9584,1.0034,1.1048,1.2463,1.4538,1.6106,1.7464,0.0,0.0,0.0,0.0,0.0,0.0,0.0,1.5015,0.0,1.3346,1.3718,0.0,0.0,0.0,0.0,0.0,0.0,0.0,0.0,0.0,0.0,0.0,0.0,0.0,0.0,0.0,0.0,0.0,0.0,0.0,0.0,0.0,0.0,0.0,0.0,0.0,0.9993,0.9973,0.9731,0.9288,0.8671,0.8149,0.7706,0.5477,0.4038,0.3365,0.2224,0.1379,0.0798,0.0178,-0.0444,-0.1108,-0.2266,-0.312,-0.3622,-0.3667,-0.3667,-0.3667,-0.3667,-0.3667,-0.3667,-0.3667,-0.4008,-0.4434,0.0,0.0,0.0,0.0,0.0,0.0,0.0,0.0,0.0,0.0,0.0,0.0,0.0,1.4835,1.4387,1.361,1.3873,1.4079,1.3917,1.584,1.7192,1.7533,1.8215,1.8095,1.7036,1.5897,1.4789,1.3815,1.3331,1.3082,1.3082,1.3501,1.3538,1.3243,1.1994,1.1466,1.1466,1.1715,1.208,1.2472,1.2299,1.1914,1.1445,1.1303,1.0891,0.0,0.0,0.0,0.0,0.0,0.0,0.0,0.0,0.0,0.0,0.0,0.0,0.0,0.0,0.0,0.0,1.4746,1.4398,1.415,0.0,0.0,0.0,0.0,0.0,0.0,0.0,0.0,0.0,0.0,0.0,0.0,0.0,0.0,0.0,0.0,0.0,0.0,0.0,0.0,0.0,0.0,0.0,0.0,1.2013,1.1725,1.1516,1.1333,1.0479,0.946,0.827,0.7162,0.5905,0.4599,0.4164,0.3296,0.2039,0.1818,0.1196,0.0221,-0.0221,-0.1154,-0.2455,-0.2455,-0.2455,-0.2455,-0.2455,-0.2677,-0.3031,-0.3025,-0.3598,-0.4387,0.0,0.0,0.0,0.0,0.0,0.0,0.0,0.0,0.0,1.7502,0.0,0.0,0.0,0.0,1.3695,1.2598,1.2909,1.2888,1.2282,1.4116,1.5302,1.543,1.6096,1.6213,1.5622,1.4806,1.4109,1.3505,1.3684,1.3815,1.3815,1.4422,1.4698,1.4652,1.3348,1.2677,1.2453,1.2276,1.2589,1.314,1.2329,1.2173,1.2387,1.1875,0.0,0.0,0.0,0.0,0.0,0.0,0.0,0.0,0.0,0.0,0.0,0.0,0.0,0.0,1.6348,0.0,0.0,0.0,0.0,0.0,0.0,0.0,0.0,0.0,0.0,0.0,0.0,0.0,0.0,0.0,0.0,0.0,0.0,0.0,0.0,0.0,0.0,0.0,0.0,0.0,0.0,0.0,0.0,0.0,1.3703,1.3413,1.3082,1.2659,1.1818,1.0631,0.9068,0.856,0.7532,0.6073,0.5699,0.4938,0.3832,0.3447,0.2827,0.2075,0.2067,0.0793,-0.1202,-0.1202,-0.1335,-0.1514,-0.1514,-0.1869,-0.2406,-0.2401,-0.302,-0.3814,0.0,0.0,0.0,0.0,0.0,0.0,0.0,0.0,1.7907,1.7394,0.0,0.0,0.0,0.0,0.0,1.1864,1.1756,1.1747,1.1603,1.2089,1.2691,1.3325,1.3372,1.3449,1.3533,1.306,1.2803,1.2881,1.3505,1.3815,1.3815,1.4468,1.4744,1.4744,1.4744,1.4376,1.3815,1.319,1.3286,1.3695,0.0,1.2644,1.3901,0.0,0.0,0.0,1.3227,1.3891,0.0,1.5255,0.0,0.0,0.0,0.0,0.0,0.0,0.0,0.0,0.0,0.0,0.0,0.0,0.0,0.0,0.0,0.0,0.0,0.0,0.0,0.0,0.0,0.0,0.0,0.0,0.0,0.0,0.0,0.0,0.0,0.0,0.0,0.0,0.0,0.0,0.0,0.0,0.0,1.5704,1.5079,1.5049,1.4453,1.3196,1.2693,1.1757,1.0321,0.9703,0.8901,0.7903,0.678,0.6198,0.6114,0.5005,0.4496,0.4448,0.4406,0.2789,0.0177,0.0133,-0.0266,-0.0797,-0.0797,-0.1199,-0.1739,-0.1695,-0.2095,-0.2672,0.0,0.0,0.0,0.0,0.0,0.0,1.9479,1.8688,1.8066,0.0,0.0,0.0,1.541,1.4272,1.3044,1.1818,1.1314,1.0452,0.8888,0.9387,0.986,1.0027,1.0473,1.1245,1.2299,1.2132,1.2325,1.2881,1.3931,1.4468,1.4468,1.5522,1.602,1.5976,1.5555,1.5276,1.5039,1.4468,0.0,1.4367,1.3674,1.342,0.0,0.0,0.0,0.0,0.0,1.3361,1.437,0.0,1.6425,1.7961,0.0,0.0,0.0,0.0,0.0,0.0,1.7329,0.0,0.0,0.0,0.0,0.0,0.0,0.0,0.0,0.0,0.0,0.0,0.0,0.0,0.0,0.0,0.0,0.0,0.0,0.0,0.0,0.0,0.0,0.0,0.0,0.0,0.0,0.0,1.7162,1.6938,1.6331,1.6028,1.5447,1.4516,1.3683,1.312,1.2805,1.1662,1.0914,1.0549,0.9897,0.8972,0.781,0.751,0.6935,0.6211,0.6187,0.5744,0.4881,0.3221,0.1936,0.1112,0.1551,0.0797,-0.04,0.0488,-0.04,-0.2095,0.0,0.0,0.0,0.0,0.0,1.9369,1.9369,1.8855,1.8341,0.0,0.0,0.0,1.532,1.4365,1.3215,1.18,1.1165,1.0069,0.8256,0.8541,0.8738,0.8764,0.9117,0.9974,1.1366,1.1366,1.1882,1.2881,1.4118,1.4698,1.4744,1.5932,1.6522,1.6466,1.6151,0.0,1.5964,0.0,0.0,0.0,1.4077,0.0,0.0,1.3244,1.2995,0.0,0.0,0.0,1.4963,1.5045,1.6525,0.0,0.0,0.0,0.0,0.0,0.0,0.0,0.0,0.0,0.0,0.0,0.0,0.0,1.7426,1.7101,0.0,0.0,0.0,0.0,0.0,0.0,0.0,0.0,0.0,0.0,0.0,0.0,0.0,0.0,0.0,0.0,0.0,0.0,0.0,0.0,1.8374,1.807,1.7658,1.6885,1.6289,1.5965,1.5122,1.4463,1.4014,1.3057,1.2424,1.2177,1.1311,1.0507,0.9782,0.9355,0.8742,0.7947,0.8367,0.8093,0.7217,0.6305,0.4838,0.3259,0.3604,0.2816,0.1548,0.2255,0.1456,-0.0088,0.0,0.0,1.3957,1.552,1.7456,1.8817,1.8817,1.8765,1.8535,0.0,1.7011,1.5915,1.4926,1.4143,1.3158,1.18,1.0981,1.0005,0.8745,0.8586,0.8593,0.8699,0.8699,0.9309,1.0661,1.0762,1.1434,1.2774,1.4061,1.4698,1.4744,1.5932,1.6522,1.6522,0.0,0.0,0.0,0.0,0.0,1.5509,1.4036,1.4334,0.0,0.0,1.3962,1.474,1.4246,1.4999,1.6021,1.5073,1.6578,0.0,0.0,0.0,0.0,0.0,2.0356,0.0,0.0,0.0,0.0,0.0,0.0,0.0,1.8041,1.7855,0.0,0.0,0.0,0.0,0.0,0.0,0.0,0.0,0.0,0.0,0.0,0.0,0.0,0.0,0.0,0.0,0.0,0.0,1.9273,1.9801,1.9433,1.9116,1.9005,1.7806,1.7268,1.7534,1.678,1.5836,1.4715,1.4119,1.3631,1.3262,1.1965,1.1508,1.1752,1.0835,1.0156,0.973,1.0606,0.9983,0.8431,0.9168,0.7885,0.5392,0.5477,0.4762,0.3695,0.3821,0.3413,0.2618,0.0,0.0,1.4132,1.5433,1.7076,1.8263,1.8263,1.7907,1.7585,1.7463,1.6476,1.5664,1.5454,1.395,1.2657,1.176,1.0097,0.8797,0.799,0.7343,0.7289,0.7883,0.7937,0.856,0.9961,1.0517,1.1216,1.2021,1.3841,1.4698,1.4744,1.5932,1.6522,1.6522,1.6522,0.0,0.0,0.0,0.0,1.5653,1.536,0.0,1.4965,1.4225,1.4001,1.4096,1.3978,1.4523,1.5444,0.0,1.7101,1.8322,0.0,0.0,0.0,0.0,0.0,0.0,0.0,0.0,0.0,0.0,0.0,0.0,1.9565,1.9819,1.9765,0.0,0.0,0.0,0.0,0.0,0.0,0.0,0.0,0.0,0.0,0.0,0.0,0.0,0.0,0.0,0.0,0.0,1.9494,2.0083,2.0177,2.0209,2.0189,1.9662,1.9275,1.9099,1.8055,1.7384,1.7195,1.5827,1.5125,1.5081,1.4491,1.3716,1.2783,1.261,1.207,1.1335,1.1531,1.1712,1.1826,1.1015,0.9059,0.6617,0.71,0.6289,0.4966,0.5882,0.5276,0.3855,0.8721,1.0917,1.3017,1.4599,1.6182,1.7354,1.7666,1.7706,1.7585,1.7353,1.6318,1.5588,1.5588,1.3939,1.2512,1.1751,1.0222,0.8967,0.8315,0.7883,0.7883,0.8209,0.8262,0.8883,1.0261,1.0618,1.1325,1.2344,1.3627,1.4422,1.4709,1.5644,1.6089,1.612,1.6396,1.6358,0.0,0.0,1.6599,1.6057,1.5505,0.0,1.4437,1.3883,1.3758,1.3901,1.3901,1.4406,1.5281,1.6578,1.7655,0.0,0.0,1.9755,2.0443,0.0,2.0735,2.0735,0.0,0.0,0.0,2.137,0.0,0.0,0.0,1.9956,1.9718,0.0,0.0,0.0,0.0,0.0,0.0,0.0,0.0,0.0,0.0,0.0,0.0,0.0,0.0,0.0,0.0,0.0,2.0195,2.0951,2.1335,2.1533,2.1489,2.0858,2.0522,2.0552,1.9639,1.8817,1.815,1.7144,1.6483,1.6181,1.5374,1.4762,1.4318,1.3971,1.3289,1.2472,1.2742,1.2864,1.2826,1.2091,1.102,0.9828,0.8972,0.81,0.7353,0.7931,0.7435,0.6377,0.8898,1.0598,1.2273,1.3928,1.5432,1.6574,1.7063,1.7504,1.7572,1.705,1.6058,1.5365,1.5264,1.3564,1.2236,1.1725,1.0427,0.9411,0.9018,0.8871,0.8804,0.8804,0.8804,0.9316,1.0415,1.0669,1.1384,1.251,1.3351,1.4097,1.4698,1.532,1.5678,1.5869,1.6208,1.6212,0.0,0.0,0.0,1.6399,0.0,1.4841,1.4324,1.3647,1.3715,1.4179,1.4254,1.4707,1.5521,1.6858,0.0,1.898,1.8939,1.9991,0.0,0.0,0.0,0.0,0.0,0.0,0.0,0.0,0.0,2.0994,0.0,0.0,0.0,0.0,0.0,0.0,0.0,0.0,0.0,0.0,0.0,0.0,0.0,0.0,0.0,0.0,0.0,0.0,0.0,0.0,2.1338,2.2036,2.2555,2.2775,2.2733,2.1899,2.1569,2.1899,2.1185,2.0257,1.911,1.8493,1.7871,1.7264,1.6083,1.5617,1.573,1.5138,1.4337,1.3485,1.3985,1.3937,1.3493,1.2948,1.3074,1.3398,1.1072,0.9982,0.9725,0.9993,0.9761,0.9292,0.9475,1.1701,1.3678,1.4471,1.5652,1.6509,1.6595,1.6637,1.6497,1.5852,1.5231,1.4606,0.0,0.0,0.0,0.0,0.0,0.0,0.9552,0.0,0.8804,0.8804,0.8804,0.8857,0.9008,1.021,1.0872,1.1023,1.288,1.4097,1.4698,1.532,1.5872,1.6409,1.5982,0.0,0.0,0.0,1.6474,0.0,1.6172,1.5898,0.0,1.4387,1.4458,1.5167,1.5472,1.5826,1.6283,0.0,1.8054,1.9147,0.0,2.0598,2.066,0.0,0.0,0.0,0.0,0.0,0.0,0.0,2.3846,0.0,0.0,0.0,0.0,0.0,0.0,0.0,0.0,0.0,0.0,0.0,0.0,0.0,0.0,0.0,0.0,0.0,0.0,0.0,0.0,0.0,0.0,2.3119,2.3416,2.3566,2.3566,2.3178,2.2976,2.3018,2.2299,2.1834,2.1661,2.0266,1.9384,1.8991,1.7901,1.7043,1.639,1.613,1.5577,1.4793,1.5155,1.5502,1.5697,1.4198,1.4633,1.603,1.351,1.1812,1.0979,1.2079,1.2175,1.178,1.023,1.1859,1.348,1.4503,1.5421,1.6095,1.6436,1.681,1.681,1.6188,1.5544,0.0,0.0,0.0,0.0,0.0,0.0,0.9775,0.0,0.0,0.8804,0.8804,0.8804,0.0,0.9969,1.0517,1.1174,1.1999,1.2842,1.3789,1.4709,1.4971,1.5445,1.6032,1.6026,0.0,1.6322,0.0,1.7093,0.0,0.0,0.0,0.0,1.4897,1.4692,1.5261,1.5887,1.6163,1.6414,0.0,1.8327,0.0,0.0,0.0,0.0,0.0,0.0,0.0,0.0,0.0,0.0,0.0,0.0,0.0,0.0,0.0,2.3046,0.0,0.0,0.0,0.0,0.0,0.0,0.0,0.0,0.0,0.0,0.0,0.0,0.0,0.0,0.0,0.0,0.0,0.0,0.0,0.0,2.429,2.4155,2.4023,2.3806,2.3482,2.3177,2.2718,2.2118,2.1001,2.0141,1.9583,1.8468,1.7757,1.7406,1.7146,1.6684,1.6119,1.6259,1.6529,1.6815,1.5752,1.6087,1.7179,1.6177,1.4736,1.3285,1.3979,1.3816,1.3355,1.0712,0.0,0.0,1.4514,1.5332,1.6008,1.6423,1.6873,1.6942,1.6331,0.0,0.0,1.5066,1.3549,0.0,0.0,1.1285,1.0339,0.0,0.0,0.9061,0.0,0.0,0.0,0.0,1.0965,1.1575,1.2608,1.2774,1.3525,1.4698,1.4698,1.5222,1.614,0.0,1.6319,1.6364,0.0,0.0,1.7185,1.7597,1.7378,1.6732,1.5408,1.5049,1.5345,1.605,1.6421,1.6701,1.7445,1.8701,0.0,1.9224,0.0,0.0,0.0,0.0,0.0,2.4083,0.0,0.0,0.0,0.0,0.0,0.0,0.0,0.0,0.0,0.0,0.0,0.0,0.0,0.0,0.0,0.0,0.0,0.0,0.0,0.0,0.0,0.0,0.0,0.0,0.0,0.0,0.0,2.4045,0.0,2.426,2.4423,2.4335,2.3923,2.3878,2.3485,2.2749,2.1911,2.1103,2.039,1.9225,1.8577,1.8387,1.8061,1.771,1.7325,1.7429,1.7573,1.7665,1.7116,1.7357,1.8042,1.7931,1.7115,1.5971,1.5982,1.5547,1.5101,1.0813,1.2357,0.0,0.0,0.0,1.6466,1.6522,1.6534,1.6306,0.0,0.0,0.0,0.0,0.0,0.0,0.0,0.0,1.0353,1.0094,0.0,0.9762,0.0,0.0,1.0762,0.0,0.0,1.1765,1.1814,1.2559,1.3525,1.4698,1.4698,1.5608,1.7218,1.6731,1.7153,1.8268,1.7437,1.7181,1.7282,1.7312,1.6926,1.6302,0.0,1.5795,1.5649,1.6133,0.0,0.0,1.8413,1.9221,0.0,0.0,0.0,0.0,0.0,0.0,0.0,0.0,0.0,0.0,2.5284,0.0,0.0,0.0,0.0,2.5298,0.0,0.0,0.0,0.0,0.0,0.0,2.2876,0.0,0.0,0.0,0.0,0.0,0.0,0.0,0.0,0.0,0.0,0.0,2.2736,2.334,2.3705,2.3643,2.4241,2.4554,2.4495,2.4284,2.4266,2.4422,2.3418,2.2606,2.1906,2.0712,1.9792,1.9151,1.8888,1.8643,1.8463,1.8783,1.8749,1.8443,1.802,1.829,1.8886,1.819,1.8333,1.8879,1.8159,1.7659,1.7356,0.0,0.0,0.0,0.0,0.0,1.7034,1.7034,1.7084,0.0,0.0,0.0,0.0,0.0,1.5279,1.4364,0.0,0.0,1.1581,1.1691,1.0492,0.0,0.0,0.0,1.1015,0.0,0.0,0.0,0.0,0.0,1.4097,1.5276,1.5276,1.6015,1.7286,0.0,1.7534,0.0,0.0,0.0,0.0,0.0,1.7324,1.7309,0.0,0.0,1.613,1.6757,1.7215,0.0,1.821,1.9182,2.0153,1.9968,2.0838,2.194,2.2011,2.2772,0.0,0.0,0.0,2.4567,2.4567,0.0,0.0,0.0,0.0,0.0,0.0,0.0,0.0,0.0,0.0,2.298,2.291,2.1476,0.0,0.0,0.0,0.0,0.0,0.0,0.0,0.0,0.0,0.0,2.2769,2.3589,2.4243,0.0,2.4812,2.4858,2.4699,2.4625,2.4623,2.47,2.3795,2.2936,2.22,2.1246,2.0377,1.9582,1.9511,1.9428,1.9372,1.9475,1.9489,1.9418,1.9389,1.9526,1.9781,1.9623,1.9669,1.976,1.9193,1.8818,1.8606,1.1715,0.0,0.0,0.0,0.0,0.0,0.0,0.0,0.0,0.0,1.7264,0.0,1.7288,0.0,1.5229,0.0,1.3211,1.2373,1.2097,1.1079,0.0,1.1166,1.1425,0.0,0.0,0.0,0.0,0.0,0.0,1.4411,1.5588,1.5796,1.6579,1.7853,0.0,1.8335,1.8192,0.0,1.8066,0.0,0.0,1.7471,0.0,0.0,1.7113,1.7082,0.0,1.7636,1.795,1.8399,1.92,1.9908,1.9526,2.0421,2.1575,2.1356,2.2422,2.3599,2.3353,2.3949,0.0,2.4658,2.4705,0.0,2.5381,0.0,0.0,0.0,0.0,0.0,0.0,0.0,0.0,2.2494,2.1266,2.0342,0.0,2.0179,0.0,0.0,0.0,0.0,0.0,0.0,2.1857,2.1941,2.3117,2.3984,0.0,0.0,2.5043,2.4878,2.4828,2.4826,2.4864,2.4257,2.3442,2.24,2.1863,2.101,1.9915,1.9936,1.9964,2.0,2.0,2.0044,2.0077,2.016,2.023,2.0279,2.0336,2.0328,2.0243,1.9959,1.9776,1.9649,0.0,0.0,0.0,0.0,1.6133,0.0,0.0,0.0,1.7656,0.0,1.7111,1.6874,1.6841,1.6278,1.53,1.3827,1.3295,0.0,1.1497,1.1626,0.0,0.0,1.255,1.292,1.29,0.0,0.0,0.0,0.0,0.0,1.572,1.6219,1.7301,1.8867,1.9375,0.0,1.94,1.9066,1.8297,1.7296,1.7304,1.7361,1.7441,1.7743,0.0,1.841,1.7912,1.7945,1.8336,1.8992,1.9213,1.9302,1.97,1.9922,2.0184,2.1062,2.2038,2.299,2.3908,2.4723,2.5356,2.5381,0.0,0.0,0.0,0.0,2.5537,0.0,0.0,0.0,0.0,0.0,0.0,2.1803,2.0901,2.0287,2.0117,0.0,0.0,0.0,0.0,0.0,0.0,2.0146,2.0241,2.0428,2.2012,2.2952,0.0,0.0,0.0,2.5014,2.4851,2.4855,2.5027,2.4862,2.4072,2.2668,2.2584,2.1694,2.0188,2.0205,2.0274,2.041,2.0391,2.0395,2.0398,2.0398,2.0402,2.039,2.0328,2.0348,2.0391,2.0462,2.0488,2.0404,1.1814,1.2337,1.3338,0.0,1.6126,1.6935,0.0,0.0,0.0,0.0,1.835,1.8002,1.7669,1.6852,1.5922,1.4821,1.3465,0.0,0.0,0.0,0.0,1.2608,1.3218,1.3398,1.2966,1.3786,0.0,1.4554,0.0,0.0,1.6883,1.7008,1.7892,1.9411,0.0,0.0,1.967,1.9464,1.8546,1.732,1.7522,1.807,0.0,0.0,1.8805,1.9239,1.8387,1.8457,1.8975,1.9136,1.9465,1.9823,1.9973,2.0111,2.0392,2.1326,2.2228,2.2993,2.3242,2.3921,2.444,2.3851,2.3776,2.3963,0.0,0.0,0.0,0.0,0.0,0.0,0.0,0.0,0.0,0.0,2.1491,0.0,0.0,0.0,0.0,2.1303,0.0,0.0,0.0,1.9798,2.0085,2.0871,2.1943,2.2814,0.0,0.0,0.0,2.5156,2.4586,2.4622,2.5363,2.4697,2.4193,2.3869,2.3195,2.2313,2.127,2.0638,2.0374,2.0391,2.0347,2.0352,2.0405,2.0352,2.0365,2.0391,2.0382,2.0318,2.0277,2.0386,2.0247,1.9909,1.1416,0.0,0.0,1.4903,0.0,0.0,1.7663,0.0,0.0,1.8435,1.8301,0.0,1.7474,1.7055,1.6326,1.5279,1.4053,0.0,0.0,0.0,0.0,1.3286,1.3636,1.3712,1.3409,1.396,0.0,1.5149,0.0,0.0,1.7666,1.8104,1.8881,1.9893,0.0,2.0883,0.0,1.9894,1.9149,1.8386,1.8172,0.0,0.0,1.8686,1.8945,1.934,1.8823,1.8875,1.9228,1.9388,1.9726,2.0054,2.0157,2.0262,2.0444,2.0982,2.2021,2.3007,2.3049,2.3656,2.4198,2.3761,2.3417,2.3379,2.4219,2.4394,2.4648,0.0,0.0,0.0,0.0,0.0,0.0,0.0,0.0,0.0,0.0,0.0,0.0,0.0,0.0,0.0,0.0,2.017,2.0236,2.0519,2.1661,2.2403,0.0,0.0,0.0,2.4592,2.4555,2.4824,2.542,2.4963,2.4555,2.4215,2.3745,2.2869,2.1634,2.117,2.0761,2.0409,2.0351,2.0365,2.0393,2.0302,2.0281,2.0284,2.0089,1.9942,1.9859,1.98,1.964,1.9397,0.0,0.0,0.0,0.0,0.0,0.0,0.0,1.7798,0.0,1.7725,0.0,1.7241,1.6721,1.6781,1.6451,1.5407,0.0,1.4264,1.3856,1.3825,1.3793,1.3683,1.3839,1.389,1.3822,1.3901,0.0,0.0,0.0,0.0,1.8327,1.9229,1.9963,0.0,0.0,0.0,0.0,2.0315,1.9763,0.0,1.8926,1.866,1.868,1.8734,1.8895,1.9115,1.925,1.9273,1.9331,1.9705,1.9964,2.0145,2.0274,2.0361,2.0402,2.0425,2.1578,2.2874,2.2929,2.3441,2.3991,2.4062,2.3418,2.3027,2.4004,2.4238,2.4489,2.5405,2.5547,0.0,0.0,0.0,0.0,0.0,0.0,0.0,0.0,0.0,0.0,0.0,0.0,0.0,0.0,0.0,2.0567,1.9969,2.1386,0.0,0.0,0.0,0.0,0.0,2.4361,0.0,2.5289,0.0,2.4896,2.423,2.4218,2.3404,2.1937,2.1882,2.139,2.0534,2.0554,2.0467,2.0332,2.021,2.0147,2.0041,1.9585,1.9363,1.9295,1.8984,1.8822,1.8754,0.0,0.0,0.0,0.0,0.0,1.5902,1.7003,1.7384,1.7343,1.6752,1.7061,1.694,1.5915,1.5787,1.5739,1.5541,1.5005,0.0,0.0,0.0,0.0,1.315,1.3659,1.3754,1.3232,1.4511,1.5361,0.0,0.0,0.0,1.9353,1.9843,2.067,0.0,0.0,0.0,2.0986,2.0383,0.0,1.8818,1.8914,1.8998,1.9123,1.9346,1.9532,1.967,1.9695,1.9688,1.9736,1.9973,2.0149,2.0294,2.0429,2.0475,2.0486,2.0542,2.1287,2.2107,2.2108,2.2206,2.2324,2.2324,2.168,2.1445,2.2976,2.3322,2.3742,2.5204,2.5517,2.5434,2.5233,0.0,0.0,0.0,0.0,0.0,0.0,0.0,0.0,0.0,0.0,0.0,0.0,0.0,0.0,0.0,0.0,0.0,0.0,0.0,0.0,0.0,0.0,0.0,0.0,0.0,0.0,2.5007,2.4457,2.4044,2.3722,2.3067,2.2236,2.1313,2.1371,2.0855,1.9988,2.002,1.9829,1.9495,1.9081,1.8915,1.8851,1.8427,1.7924,1.7577,0.0,0.0,0.0,0.0,0.0,0.0,0.0,1.6429,0.0,1.6323,1.6284,1.6028,1.5487,1.551,1.5804,1.6429,1.5664,1.5171,1.5207,1.467,1.4359,1.4359,1.4157,0.0,1.435,1.4761,1.5545,1.675,0.0,0.0,2.0317,2.0733,2.1332,2.2107,0.0,2.2437,0.0,0.0,0.0,2.0192,1.9577,1.935,1.9429,1.9625,1.9738,1.9802,1.988,1.9934,1.9974,2.0076,2.0218,2.0361,2.0475,2.0516,2.0563,2.0586,2.1211,2.1894,2.1894,2.1894,2.1894,2.1852,2.1186,2.0869,2.209,2.2721,2.3389,2.4577,2.5168,2.5362,2.5128,2.4504,0.0,0.0,0.0,0.0,0.0,0.0,0.0,0.0,0.0,0.0,0.0,0.0,0.0,0.0,0.0,0.0,0.0,0.0,0.0,0.0,0.0,0.0,0.0,0.0,0.0,2.4988,2.4667,2.4265,2.3823,2.3439,2.2748,2.1866,2.1904,2.1502,2.0815,2.0606,2.0044,1.9255,1.8931,1.8464,1.7938,1.7552,1.6987,1.6459,0.0,1.074,0.0,0.0,1.1528,0.0,1.4029,1.5508,1.6308,1.6093,1.5745,1.5483,1.54,1.5599,1.6188,1.7216,1.6676,1.6358,1.6594,1.5885,1.5488,1.5573,1.4816,1.4683,1.5286,1.4938,1.5641,0.0,0.0,0.0,0.0,2.1543,0.0,0.0,0.0,0.0,0.0,0.0,2.1316,2.1546,2.0378,1.9825,1.9695,1.979,1.9877,1.992,2.0021,2.0107,2.0145,2.0186,2.0293,2.0432,2.0508,2.0562,2.0605,2.0585,2.1054,2.16,2.1599,2.1579,2.1576,2.152,2.0987,2.0742,2.1729,2.2494,2.327,2.4237,2.4896,2.5207,2.4814,2.4607,0.0,0.0,0.0,0.0,0.0,0.0,0.0,0.0,0.0,0.0,0.0,0.0,0.0,0.0,0.0,0.0,0.0,0.0,0.0,0.0,0.0,2.373,2.4239,0.0,2.4682,0.0,2.4775,2.4431,2.3776,2.3776,2.3281,2.2436,2.2384,2.2017,2.1384,2.0918,2.0053,1.895,1.8697,1.7979,1.7052,1.6674,1.6154,1.5662,0.0,0.0,0.0,0.0,0.0,0.0,0.0,1.5074,1.6213,1.5718,1.6025,1.612,1.5603,1.6039,1.6604,1.7216,1.8037,1.8134,1.7267,1.7472,1.6987,1.5572,1.5414,1.5145,1.4617,1.5196,1.5891,0.0,0.0,0.0,0.0,0.0,0.0,0.0,0.0,0.0,0.0,2.2803,2.2312,2.1155,2.1016,2.0551,1.9954,1.9983,2.0097,2.0257,2.0276,2.0276,2.0299,2.0412,2.048,2.0508,2.0565,2.0586,2.0586,2.0536,2.057,2.0623,2.0552,2.0542,2.0538,2.0535,2.0476,2.0826,2.2423,2.285,2.3345,2.4888,2.5116,2.493,2.4588,2.4512,2.4319,0.0,0.0,0.0,0.0,0.0,0.0,0.0,0.0,0.0,0.0,0.0,0.0,0.0,0.0,0.0,0.0,0.0,0.0,2.1803,0.0,2.2522,2.4007,2.4063,0.0,2.4528,2.4716,2.4766,2.4691,2.4691,2.4137,2.3185,2.3005,2.2008,2.0498,2.0093,1.9278,1.8275,1.7985,1.7476,1.6747,1.6001,1.5662,1.5519,0.0,0.0,0.0,0.0,0.0,0.0,0.0,1.3367,1.4966,1.5935,1.6262,1.6421,1.6566,1.6725,1.7316,1.8579,1.9154,1.9451,1.936,1.89,1.8283,1.7513,1.7119,1.6598,1.6009,1.6423,1.7058,0.0,0.0,0.0,0.0,0.0,0.0,0.0,0.0,2.349,2.343,2.2278,2.1817,2.174,2.0812,2.0279,2.0071,2.0146,2.0244,2.0355,2.0366,2.0398,2.0429,2.048,2.0508,2.0511,2.0585,2.0565,2.0539,2.051,2.0475,2.0435,2.0414,2.041,2.0383,2.0347,2.0332,2.0646,2.1794,2.237,2.2997,2.4164,2.4562,2.4648,2.451,2.4229,2.3883,0.0,0.0,0.0,0.0,0.0,0.0,0.0,0.0,0.0,0.0,0.0,2.0437,0.0,0.0,0.0,0.0,0.0,0.0,2.146,0.0,2.2663,2.3498,2.3705,2.3885,2.402,2.4099,2.4025,2.3852,2.3852,2.3608,2.3213,2.2683,2.2052,2.1362,2.0787,1.989,1.8833,1.8065,1.7196,1.6248,1.5297,1.4788,1.454,0.8551,0.0,0.7313,0.0,0.637,0.7267,0.9961,1.193,1.3925,1.6303,1.6902,1.7179,1.7437,1.7809,1.8484,1.9637,2.0217,2.0686,2.1045,2.0518,2.0004,1.9527,1.9055,0.0,1.761,1.7791,1.812,1.8586,1.959,0.0,0.0,0.0,0.0,0.0,2.3199,2.3646,2.3844,2.2323,2.1834,2.1973,2.09,2.0353,2.0178,2.0299,2.0352,2.0391,2.0425,2.047,2.049,2.0502,2.0505,2.0505,2.0566,2.0516,2.0472,2.0441,2.0414,2.0361,2.0362,2.0376,2.0366,2.0308,2.0424,2.0785,2.1615,2.2312,2.3025,2.384,2.4123,2.4229,2.4265,2.3864,2.3437,2.3117,0.0,0.0,0.0,0.0,0.0,0.0,2.0915,2.1302,2.0562,0.0,0.0,0.0,0.0,0.0,0.0,0.0,0.0,0.0,0.0,0.0,0.0,2.33,2.3477,2.3544,2.3544,2.3414,2.3189,2.3189,2.3076,2.2838,2.2327,2.191,2.1513,2.0863,1.9869,1.8627,1.7659,1.6623,1.5503,1.4653,1.4149,1.3868,0.8199,0.7709,0.71,0.6182,0.5827,0.6598,0.919,1.1151,1.3482,1.6757,1.8113,1.8617,1.8131,1.933,2.011,2.0002,2.1278,2.2029,2.191,2.2501,2.2341,0.0,0.0,2.0483,1.9011,1.9181,1.8895,1.8104,0.0,0.0,2.1239,0.0,2.3547,2.285,2.3984,2.3794,2.2664,2.3435,2.2889,2.1504,2.1564,2.1062,2.0299,2.0366,2.041,2.0414,2.0477,2.0508,2.0495,2.0502,2.0508,2.0508,2.0508,2.0467,2.0398,2.0316,2.0294,2.0295,2.0304,2.0292,2.0292,2.0292,2.0747,2.142,2.2288,2.3007,2.3681,2.434,2.3969,2.3551,2.3696,2.3437,2.3093,2.2772,0.0,0.0,0.0,0.0,0.0,0.0,2.0915,2.1302,2.0562,0.0,0.0,0.0,0.0,0.0,0.0,0.0,0.0,2.2276,2.231,0.0,2.2695,2.2721,2.2873,2.3212,2.3212,2.3189,2.3189,2.3189,2.2813,2.2124,2.2107,2.1423,2.028,1.9798,1.8614,1.7055,1.6508,1.5565,1.4483,1.4065,1.3901,1.3756,0.4174,0.3978,0.3607,0.2811,0.2633,0.3814,0.7587,0.9915,1.2676,1.6484,1.8848,2.0244,2.041,2.0719,2.1093,0.0,2.2522,2.3234,0.0,2.3539,2.332,2.2611,2.2844,2.196,1.9793,2.0311,1.9967,1.8717,0.0,0.0,0.0,2.3061,2.3484,2.3165,2.3618,2.368,2.3359,2.2421,2.1847,2.1526,2.0933,2.0599,2.0435,2.047,2.0506,2.054,2.0563,2.0547,2.0504,2.0494,2.0438,2.0357,2.0357,2.0297,2.0218,2.0282,2.021,2.0129,2.0257,2.0197,2.0106,2.0106,2.0581,2.1292,2.2155,2.3305,2.4141,2.4004,2.3783,2.3595,2.3374,2.3093,2.2729,2.2344,0.0,0.0,0.0,0.0,0.0,0.0,0.0,2.062,0.0,2.056,0.0,0.0,0.0,0.0,0.0,0.0,0.0,0.0,2.231,0.0,2.2695,2.2695,2.2746,2.2873,2.2873,2.2764,2.2571,2.2258,2.1989,2.1744,2.1148,2.0454,1.9798,1.931,1.8389,1.7132,1.6245,1.5394,1.4566,1.3389,1.2953,1.2897,0.0379,0.0162,0.0,-0.0436,-0.0274,0.1517,0.6292,0.9111,1.2307,1.6837,1.9672,2.1387,2.1703,2.2017,0.0,2.2538,2.3275,2.3864,2.4262,2.4296,2.4172,2.3889,2.412,2.3361,2.1419,0.0,0.0,1.9687,2.0385,2.1218,2.2144,2.3148,2.3736,2.3955,2.4033,2.3821,2.3358,2.2258,2.1526,2.1062,2.0554,2.0391,2.0508,2.0537,2.0564,2.0605,2.0605,2.0562,2.0506,2.0475,2.0383,2.0307,2.0289,2.0181,2.0088,2.0255,2.0153,2.0022,2.0152,2.0106,2.0003,1.9943,2.0651,2.1662,2.2765,2.3631,2.4117,2.3777,2.35,2.3259,2.3045,2.26,2.2197,2.1943,2.1442,2.0927,0.0,0.0,0.0,0.0,0.0,0.0,0.0,2.055,0.0,0.0,0.0,0.0,0.0,0.0,0.0,2.2015,2.2032,0.0,2.2537,2.2563,2.2466,2.2296,2.2124,2.196,2.1781,2.1507,2.1275,2.1054,2.0351,1.9763,1.9259,1.8598,1.7785,1.6902,1.5802,1.4904,1.4094,1.3065,1.2577,1.2447,-0.3356,-0.3664,0.0,0.0,-0.3151,0.0,0.5278,0.8512,1.2232,1.7791,2.0672,2.2211,2.2221,2.3112,2.3648,2.3417,0.0,0.0,0.0,2.4799,2.4883,2.501,2.5022,2.455,2.3542,2.2741,2.18,2.0742,2.1055,2.1586,2.2331,2.3301,2.419,2.501,2.4965,2.4134,2.2793,2.2744,2.1779,2.0305,2.0374,2.0441,2.0513,2.0585,2.0605,2.0605,2.0586,2.0542,2.048,2.0422,2.0342,2.0308,2.0296,2.0161,2.0031,2.0241,2.0152,2.0003,2.0012,1.9993,1.9953,1.9802,2.0858,2.2337,2.3787,2.3921,2.3714,2.3692,2.3189,2.2721,2.2695,2.2102,2.1582,2.1552,2.083,2.028,2.0246,0.0,0.0,0.0,0.0,0.0,0.0,2.0246,2.0246,0.0,0.0,0.0,0.0,0.0,2.1118,2.1552,2.1552,2.1764,2.2209,2.2209,2.2003,2.1552,2.1181,2.0991,2.0991,2.0959,2.0698,2.0246,1.9763,1.9259,1.8688,1.7706,1.6969,1.6323,1.5215,1.4192,1.3312,1.304,1.2715,1.2366,0.0,0.0,-0.8539,-0.8539,-0.8719,-0.5713,0.3648,0.6528,1.0766,1.9584,2.2166,2.3275,2.3533,2.3773,2.4063,2.4409,2.4351,2.4487,2.4924,2.4949,2.5041,2.5214,2.5224,2.4769,2.3736,2.2943,2.176,2.0186,2.0259,2.1031,2.2471,2.2852,2.3734,2.4972,2.4511,2.3755,2.2763,2.2142,2.1293,2.0374,2.0444,2.0513,2.0585,2.0586,2.0605,2.0586,2.054,2.048,2.0418,2.0342,2.0302,2.0304,2.03,2.0161,2.0031,2.0241,2.0088,1.9869,1.9964,1.9847,1.9638,1.9407,2.0464,2.1863,2.3015,2.3692,2.4016,2.3735,2.3369,2.2996,2.2746,2.2102,2.1491,2.1181,2.0682,2.0177,1.9874,1.9747,0.0,0.0,1.9782,1.9839,1.9839,1.9839,1.9839,0.0,0.0,0.0,0.0,1.9945,2.0345,2.1118,2.115,2.1197,2.1291,2.1323,2.126,2.115,2.1055,2.0991,2.1007,2.0616,2.0196,1.9728,1.9273,1.8559,1.7666,1.7394,1.6738,1.5802,1.5102,1.4417,1.3741,1.2802,1.2404,1.2278,-1.2413,-1.2923,-1.3249,-1.3456,-1.3401,-0.952,0.1722,0.5199,1.0276,2.0797,2.3403,2.411,2.3624,2.3742,2.3739,2.3535,2.4123,2.4682,2.5099,2.5094,2.5126,2.5284,2.5321,2.5024,2.4354,2.3656,2.2441,2.0727,2.0342,2.0815,2.2104,2.2573,2.3429,2.4596,2.4648,2.4226,2.3404,2.3011,2.2129,2.1029,2.1089,2.0891,2.0605,2.0605,2.0585,2.0542,2.0513,2.0435,2.0342,2.0305,2.0295,2.0312,2.0312,2.0161,2.0022,2.0124,1.9982,1.979,1.9813,1.9632,1.9435,1.9464,2.0445,2.1659,2.2609,2.3527,2.4094,2.3774,2.3437,2.3093,2.2772,2.1943,2.1244,2.1039,2.0465,1.9945,1.9711,1.969,0.0,1.969,1.969,1.969,1.969,1.969,1.969,1.969,0.0,0.0,1.969,1.969,2.0015,2.0649,2.0682,2.0797,2.0991,2.0797,2.0682,2.0682,2.0499,2.0413,2.0413,2.0139,1.9758,1.9273,1.875,1.8066,1.7271,1.7034,1.6435,1.5569,1.4978,1.4275,1.3515,1.2827,1.2428,1.2232,-1.6836,-1.7368,-1.7582,-1.7969,-1.727,-1.2499,-0.0128,0.4103,1.0048,2.1739,2.4389,2.469,2.3385,2.3481,2.3228,2.2205,2.3413,2.4482,2.5082,2.5032,2.5022,2.5129,2.5182,2.5065,2.472,2.4082,2.2979,2.1429,2.0673,2.0751,2.1636,2.2303,2.3094,2.3962,2.4822,2.4768,2.4025,2.4219,2.3332,2.1798,2.1801,2.1323,2.0605,2.0605,2.0563,2.0508,2.0484,2.0414,2.0307,2.0295,2.0301,2.0312,2.0312,2.0161,2.0003,1.9983,1.9839,1.9682,1.9577,1.9295,1.9139,1.9519,2.0451,2.145,2.2175,2.3262,2.4016,2.3692,2.3392,2.3093,2.2772,2.177,2.0991,2.0991,2.0277,1.969,1.969,0.0,1.972,1.9824,1.975,1.9735,1.9824,1.975,1.969,1.969,1.969,1.969,0.0,1.969,1.9839,2.0177,2.0227,2.0382,2.0797,2.0431,2.0227,2.0227,1.9874,1.9639,1.9566,1.9566,1.9244,1.8612,1.8092,1.7572,1.7105,1.6484,1.5964,1.5543,1.4835,1.3987,1.3188,1.2964,1.2646,1.2373,-1.9955,-2.0541,-2.0909,-2.0871,-2.017,-1.4944,-0.099,0.2676,0.8831,2.2711,2.4879,2.4793,2.3956,2.3857,2.3502,2.267,2.2838,2.3383,2.43,2.4348,2.4358,2.4377,2.4388,2.4053,2.3339,2.2502,2.1585,2.0588,2.0452,2.0822,2.1692,2.1818,2.2333,2.3207,2.4019,2.3932,2.3242,2.3975,2.3332,2.18,2.1853,2.1367,2.0605,2.0605,2.0563,2.0484,2.0435,2.0381,2.0301,2.0299,2.03,2.0312,2.0312,2.0161,1.9983,1.9869,1.9582,1.9287,1.9261,1.8806,1.843,1.8707,1.9717,2.0745,2.1089,2.2524,2.3692,2.3346,2.3253,2.3093,2.2772,2.177,2.0991,2.0991,2.0277,1.969,1.969,0.0,1.9899,2.0483,2.0034,1.9914,2.0498,2.0034,1.969,1.969,1.969,1.969,1.969,1.969,1.9726,1.9782,1.9782,1.9818,1.9909,1.9854,1.9782,1.9782,1.9726,1.9442,1.9006,1.9006,1.8496,1.7504,1.6941,1.6672,1.6552,1.5421,1.5231,1.5499,1.4365,1.382,1.3627,1.3074,1.2842,1.2744,-2.2084,-2.2404,-2.2417,-2.1957,-2.2226,-1.7144,-0.1215,0.3654,1.0146,2.311,2.4726,2.4354,2.3499,2.2958,2.2325,2.1476,2.1848,2.2511,2.3497,2.3585,2.3996,2.4866,2.4483,2.4066,2.3669,2.2406,2.1511,2.105,2.0612,2.0607,2.1015,2.1444,2.1885,2.2367,2.3665,2.405,2.3764,2.4674,2.4331,2.316,2.2754,2.207,2.125,2.0739,2.051,2.0435,2.0366,2.0332,2.0294,2.0308,2.0312,2.0312,2.0312,2.0116,1.988,1.9813,1.9535,1.9157,1.8771,1.855,1.8458,1.871,1.9646,2.0651,2.1173,2.2374,2.3392,2.3212,2.3069,2.288,2.2721,2.177,2.0991,2.0991,2.0277,0.0,0.0,2.0004,2.0228,2.0168,2.0213,2.0363,2.0677,2.0423,2.0378,2.0737,2.0438,2.0243,2.0243,1.9884,1.969,1.969,1.969,1.969,1.969,1.969,1.969,1.969,1.9406,1.9132,1.8893,1.8612,1.8027,1.7271,1.7008,1.6727,1.6479,1.5876,1.5644,1.5543,1.4994,1.4365,1.3779,1.3505,1.32,1.2852,-2.3362,-2.3276,-2.2872,-2.2149,-2.1952,-1.6661,-0.1208,0.4931,1.1748,2.271,2.4184,2.3806,2.2734,2.201,2.1269,2.0409,2.0929,2.1718,2.2648,2.2558,2.3212,2.4862,2.3981,2.3501,2.364,2.2236,2.1445,2.1325,2.0695,2.0406,2.0406,2.1034,2.1357,2.1477,2.3215,2.4001,2.4079,2.5195,2.5174,2.4315,2.3496,2.2656,2.1776,2.0847,2.0444,2.0366,2.0311,2.0295,2.0312,2.0312,2.0312,2.0285,2.0241,2.0031,1.9778,1.9762,1.9634,1.93,1.8445,1.8473,1.8793,1.8881,1.9805,2.0798,2.1384,2.2307,2.3069,2.2989,2.284,2.2643,2.2485,2.1652,2.0959,2.0862,0.0,0.0,0.0,2.0288,2.0572,2.0198,2.0617,2.0991,2.1156,2.1036,2.1156,2.1665,2.1231,2.0872,2.0722,2.0213,1.9854,1.969,1.969,1.9639,1.953,1.953,1.9442,1.9332,1.8893,1.865,1.8496,1.8106,1.7626,1.7118,1.6967,1.674,1.6466,1.6064,1.5688,1.5365,1.5096,1.4411,1.36,1.36,1.3286,1.2881,-2.3412,-2.2895,-2.2278,-2.1657,-1.7549,-1.0979,-0.1108,0.5487,1.2446,2.108,2.3214,2.3381,2.1947,2.1692,2.1269,2.046,2.0457,2.0866,2.1733,2.1032,2.1402,2.3207,2.1737,2.123,2.1961,2.1061,2.0558,2.0496,2.0437,2.0402,2.0402,2.0464,2.0487,2.0568,2.2318,2.3097,2.3217,2.489,2.5096,2.4239,2.3436,2.2595,2.1702,2.0822,2.0425,2.0319,2.0294,2.0295,2.0312,2.0312,2.0312,2.0277,2.0078,1.9922,1.9786,1.9643,1.9822,1.9775,1.8543,1.871,1.9181,1.8971,2.0035,2.1162,2.1213,2.2005,2.266,2.2415,2.2537,2.2485,2.1803,2.1306,2.0862,2.0416,0.0,0.0,1.969,2.0288,2.0917,2.1485,2.159,2.1859,2.2473,2.1979,2.165,2.1695,2.165,2.1365,2.0752,2.0662,2.0348,1.9705,1.969,1.9442,1.8968,1.8968,1.8688,1.8224,1.8185,1.7907,1.7435,1.7394,1.7076,1.6509,1.5952,1.5996,1.638,1.4687,1.4283,1.4663,1.3525,1.3065,1.2978,1.2978,1.2929,1.2881,-2.2178,-2.125,-1.9888,-1.8027,-1.4192,-0.7934,0.2215,1.0529,1.7222,2.1619,2.2694,2.2633,2.1559,2.107,2.0669,2.0366,2.0352,2.0714,2.1574,2.1254,2.1385,2.2192,2.1623,2.1419,2.1666,2.0853,2.0418,2.0341,2.0349,2.0332,2.0332,2.0332,2.0357,2.0449,2.166,2.2496,2.3041,2.3712,2.4397,2.4939,2.3572,2.2848,2.2442,2.153,2.0803,2.0301,2.0308,2.0304,2.0312,2.0312,2.0225,2.0106,2.0022,1.9847,1.9711,1.9911,2.0027,2.0024,1.9712,1.9797,2.005,2.0255,2.078,2.1312,2.1786,2.2184,2.2426,2.2321,2.2141,2.1948,2.1642,2.1039,2.0516,2.0348,0.0,1.97,1.9695,2.0286,2.0513,2.0012,2.0607,2.1218,2.1557,2.1654,2.2024,2.2817,2.2143,2.159,2.1335,2.0528,1.9959,1.969,1.9369,1.9281,1.9406,1.908,1.8817,1.8574,1.7907,1.7504,1.7312,1.6951,1.668,1.6479,1.6238,1.6095,1.5908,1.5174,1.4824,1.4652,1.4201,1.3789,1.3467,1.3467,1.3238,1.2881,-2.0458,-1.9277,-1.7733,-1.6015,-1.1157,-0.455,0.4208,1.2912,1.9233,2.141,2.212,2.2023,2.0994,2.0534,2.0296,2.0302,2.0311,2.0539,2.1058,2.102,2.1157,2.1614,2.1418,2.124,2.1127,2.0623,2.0313,2.0205,2.0268,2.0308,2.0308,2.0308,2.032,2.041,2.1249,2.1967,2.2569,2.3145,2.4049,2.4996,2.3845,2.3203,2.2873,2.1958,2.1069,2.0302,2.0296,2.0269,2.0205,2.0205,2.0088,1.9933,1.989,1.9813,1.9782,1.9993,2.0289,2.0587,2.0761,2.0894,2.102,2.1162,2.1363,2.1667,2.2192,2.231,2.231,2.231,2.1928,2.1552,2.143,2.0797,2.0246,2.0124,2.0056,1.9879,1.9497,2.0206,2.0302,1.9114,2.0203,2.1032,2.0898,2.1418,2.2123,2.2951,2.2243,2.1743,2.171,2.0423,1.969,1.969,1.9169,1.908,1.9442,1.8727,1.8302,1.8145,1.7394,1.7034,1.7034,1.668,1.638,1.6238,1.6238,1.5876,1.532,1.5096,1.4778,1.4376,1.4201,1.3884,1.3505,1.3505,1.3238,1.2881,-1.8375,-1.7009,-1.6046,-1.626,-0.8373,-0.0431,0.4152,1.1421,1.7379,2.005,2.1437,2.1633,2.0154,2.0188,2.0312,2.0304,2.0304,2.0205,2.0012,2.0012,2.0436,2.1442,2.0789,2.0313,2.0115,2.0231,2.021,1.9993,2.0197,2.0304,2.0312,2.0312,2.0312,2.0331,2.1139,2.1485,2.1628,2.3422,2.4173,2.418,2.4189,2.3678,2.2804,2.194,2.1068,2.0312,2.0304,2.0161,1.9993,2.0012,1.9912,1.9804,1.9649,1.9842,2.0045,1.9775,2.0551,2.1512,2.1512,2.19,2.2124,2.138,2.1752,2.231,2.2282,2.2282,2.2282,2.2282,2.1928,2.146,2.1055,2.0616,2.0143,1.9747,2.0258,2.0264,1.9084,2.0056,2.0439,1.9252,2.0755,2.1613,2.0945,2.1481,2.1826,2.1702,2.1808,2.184,2.1685,2.0408,1.969,1.969,1.9169,1.8893,1.8893,1.7827,1.7034,1.6522,1.6522,1.6522,1.6522,1.6522,1.6194,1.5588,1.5588,1.5276,1.4652,1.405,1.3815,1.3732,1.3152,1.2881,1.2881,1.2881,1.2881,1.2881,-1.5551,-1.3801,-1.1643,-0.9654,-0.3375,0.313,0.8403,1.4225,1.8656,2.0442,2.137,2.134,2.0006,2.0116,2.0241,2.0106,2.0078,1.9992,1.9744,1.9901,2.0058,2.0161,2.0271,2.0294,2.0235,2.0137,2.0139,2.0205,2.0124,2.0161,2.0312,2.0312,2.0312,2.0312,2.0562,2.0924,2.1378,2.1886,2.2717,2.3732,2.385,2.34,2.2604,2.2483,2.1548,2.0277,2.0152,2.006,2.0069,2.0543,2.0609,2.0541,2.0726,2.0694,2.0699,2.1185,2.1389,2.1616,2.2202,2.2302,2.226,2.204,2.2141,2.2209,2.1882,2.1794,2.1735,2.1462,2.1007,2.0634,2.0516,2.0158,1.9839,1.9711,1.9854,1.9876,1.96,1.9834,1.9796,1.9113,1.9859,2.0385,2.0261,2.0809,2.1272,2.1655,2.0938,2.0626,2.0998,1.9469,1.8727,1.9132,1.8263,1.7787,1.7787,1.7463,1.7229,1.7076,1.668,1.6522,1.6522,1.6522,1.638,1.6194,1.5776,1.5276,1.4652,1.405,1.3552,1.3152,1.2978,1.2881,1.2881,1.2881,1.2881,1.2881,-1.2482,-1.1407,-0.9205,-0.5557,-0.015,0.5992,1.2732,1.6817,1.9639,2.1092,2.1478,2.1263,2.0294,2.0413,2.0403,1.9952,1.988,1.9774,1.9609,1.979,1.9824,1.9609,1.9971,2.0125,2.002,2.0012,2.0041,2.0098,2.0041,2.0106,2.0312,2.0312,2.0269,2.0169,2.0169,2.0556,2.1195,2.1514,2.2357,2.3501,2.3626,2.3206,2.249,2.2288,2.1404,2.0277,2.0069,1.9973,2.0015,2.0703,2.0964,2.0999,2.0952,2.1013,2.1167,2.1562,2.1754,2.1918,2.2417,2.2426,2.231,2.231,2.231,2.2225,2.1928,2.1718,2.1521,2.1275,2.0748,2.0314,2.0314,1.9965,1.9779,2.0049,2.0094,2.0047,1.9866,1.9626,1.9364,1.9068,1.9314,1.9642,1.998,2.0301,2.0623,2.1009,2.0553,2.0384,2.0732,1.9262,1.8656,1.923,1.799,1.7431,1.7668,1.7193,1.6993,1.6993,1.6637,1.6635,1.6861,1.6622,1.6492,1.6414,1.6077,1.5326,1.4351,1.4158,1.3765,1.3238,1.2968,1.3065,1.3248,1.2968,1.2881,1.2881,-0.9482,-0.9409,-0.7832,-0.3141,0.2021,0.8296,1.6417,1.8936,2.0392,2.182,2.174,2.1401,2.0968,2.102,2.0784,1.9955,1.9712,1.9569,1.9569,1.9701,1.9713,1.9569,1.9836,1.9896,1.968,1.9885,1.9933,1.9813,1.9953,2.0106,2.0312,2.0277,2.0188,2.0012,2.004,2.0383,2.1036,2.1945,2.2759,2.3455,2.3535,2.312,2.2376,2.1744,2.1025,2.0359,2.0222,2.0077,2.0045,2.0685,2.1148,2.1327,2.0784,2.1056,2.1532,2.1341,2.1769,2.231,2.231,2.231,2.231,2.231,2.231,2.2282,2.2254,2.1869,2.1538,2.1573,2.0893,2.0354,2.0416,2.0127,2.0049,2.0617,2.0767,2.059,2.0038,1.961,1.9308,1.9238,1.9256,1.9443,1.9917,1.9969,2.0017,2.0065,2.0468,2.0763,2.0809,1.9592,1.9179,1.971,1.8195,1.765,1.8201,1.7173,1.6622,1.6522,1.6572,1.6873,1.7363,1.6886,1.6576,1.6419,1.6373,1.5438,1.391,1.4331,1.4209,1.3699,1.3123,1.3286,1.3732,1.3104,1.292,1.2968,-0.862,-0.6663,-0.3447,0.0732,0.5527,1.0642,1.5902,1.9001,2.1035,2.1896,2.2025,2.197,2.1758,2.1854,2.1567,2.0658,1.9837,1.9383,1.9383,1.9536,1.955,1.9365,1.967,1.9982,2.0307,2.0007,1.988,1.9963,1.9993,2.0106,2.0304,2.0143,2.0031,2.0022,2.0264,2.055,2.091,2.212,2.2791,2.3175,2.3955,2.34,2.2177,2.2782,2.2124,2.0906,2.139,2.138,2.118,2.1594,2.2038,2.2366,2.2235,2.2176,2.2122,2.2084,2.2175,2.231,2.231,2.231,2.231,2.231,2.231,2.2209,2.184,2.1446,2.1167,2.1342,2.0973,2.0783,2.1295,2.1323,2.1141,2.0782,2.1141,2.1258,2.0619,2.0883,2.0946,2.0496,2.043,2.027,1.9864,1.9826,2.0065,2.0562,2.0332,2.0348,2.0763,1.9678,1.9088,1.9158,1.839,1.8075,1.8202,1.7937,1.7388,1.6522,1.6974,1.7262,1.7388,1.7702,1.7304,1.6384,1.6282,1.5483,1.4254,1.3902,1.3691,1.3521,1.3057,1.3286,1.3732,1.3104,1.32,1.3552,-0.54,-0.3175,0.0161,0.4086,0.9479,1.415,1.6892,1.9584,2.1608,2.2459,2.217,2.2003,2.2425,2.2401,2.2216,2.1881,2.0639,1.9877,1.9877,1.9707,1.9513,1.9305,1.9931,2.0173,1.9932,2.0532,2.069,2.0375,2.0133,2.0031,2.0069,2.0031,1.9863,1.9645,2.0185,2.0558,2.0916,2.1926,2.2723,2.3356,2.3491,2.314,2.2601,2.2727,2.2285,2.1612,2.1898,2.2001,2.1947,2.1807,2.2171,2.2669,2.2563,2.2398,2.231,2.231,2.231,2.231,2.231,2.231,2.2395,2.275,2.2627,2.2302,2.1741,2.1535,2.1417,2.133,2.1242,2.1201,2.1216,2.1485,2.159,2.1231,2.147,2.1704,2.1645,2.1452,2.1413,2.1668,2.0948,2.026,1.9825,2.0629,2.0935,2.0372,2.0638,2.0657,2.032,1.9508,1.9136,1.9371,1.8599,1.8329,1.8593,1.8342,1.7903,1.7325,1.7626,1.7915,1.8166,1.8191,1.7977,1.7605,1.717,1.6334,1.525,1.4831,1.4512,1.4302,1.3502,1.3786,1.4503,1.3334,1.3286,1.3842,-0.1826,-0.0,0.2955,0.7442,1.2751,1.6915,1.8301,2.0203,2.1874,2.288,2.224,2.2066,2.3029,2.2806,2.2696,2.2997,2.1585,2.0649,2.0503,2.003,1.9674,1.9507,2.0289,2.0489,1.9947,2.13,2.1615,2.0792,2.0516,2.0318,2.0212,2.0225,2.002,1.9607,2.0243,2.071,2.1135,2.1824,2.2736,2.3638,2.2968,2.2884,2.3112,2.2592,2.2353,2.2327,2.2312,2.2392,2.2464,2.1843,2.2082,2.2599,2.236,2.231,2.231,2.231,2.231,2.2344,2.2462,2.2496,2.2682,2.3393,2.3257,2.2732,2.203,2.1972,2.1979,2.1698,2.1774,2.1724,2.1291,2.165,2.1979,2.1874,2.1949,2.2173,2.2664,2.1934,2.1723,2.2738,2.1531,2.0469,2.0156,2.1608,2.1894,2.0217,2.1053,2.1198,2.0001,1.9548,1.9459,1.9786,1.8945,1.8694,1.9108,1.8706,1.8432,1.8275,1.8432,1.8607,1.8797,1.8339,1.8216,1.8446,1.7883,1.6996,1.5924,1.5785,1.5541,1.517,1.4195,1.4532,1.541,1.3873,1.3529,1.3905,-0.0277,0.0929,0.425,1.1465,1.3729,1.5647,1.8921,2.0387,2.1366,2.2152,2.2435,2.2814,2.353,2.3192,2.2941,2.2997,2.2152,2.129,2.0539,2.0425,2.037,2.0338,2.0462,2.116,2.2483,2.2173,2.1615,2.0792,2.1534,2.1883,2.1857,2.1483,2.1253,2.1187,2.1308,2.1523,2.1864,2.2401,2.3029,2.3692,2.3584,2.3335,2.3088,2.3676,2.3474,2.2941,2.3317,2.316,2.2685,2.2317,2.2265,2.2349,2.231,2.231,2.231,2.231,2.231,2.2446,2.3071,2.3241,2.3427,2.4154,2.4292,2.3993,2.3106,2.2575,2.2421,2.2933,2.2768,2.2682,2.3131,2.3281,2.3161,2.2637,2.2996,2.3191,2.2742,2.3014,2.3319,2.3545,2.3364,2.2705,2.1484,2.2115,2.2219,2.1322,2.1471,2.129,2.0605,2.0565,2.0332,1.9798,1.966,1.9623,1.9698,1.9623,1.9265,1.8618,1.9265,1.9055,1.8056,1.7809,1.7176,1.6331,1.6599,1.6015,1.4964,1.4978,1.5026,1.5142,1.5007,1.524,1.5546,1.5121,1.4488,1.3857,0.022,0.2155,0.5962,1.2279,1.4624,1.6705,1.9901,2.0927,2.1579,2.2344,2.2466,2.2721,2.3346,2.3407,2.3485,2.3639,2.2757,2.2099,2.1915,2.1297,2.0934,2.0934,2.137,2.1676,2.1772,2.2553,2.2464,2.1476,2.1968,2.2021,2.169,2.1567,2.1277,2.0912,2.1318,2.1529,2.1574,2.2219,2.2832,2.3414,2.3414,2.3515,2.3712,2.4061,2.3855,2.3365,2.3199,2.2965,2.2704,2.2388,2.231,2.231,2.231,2.2581,2.2919,2.2919,2.3207,2.3596,2.3917,2.4002,2.4171,2.4932,2.4893,2.468,2.4697,2.4308,2.3763,2.3102,2.3103,2.3176,2.3101,2.3684,2.3954,2.3295,2.4044,2.4627,2.4358,2.4238,2.4044,2.3757,2.3935,2.3758,2.2858,2.2924,2.2771,2.2185,2.2073,2.1653,2.0731,2.1023,2.0921,2.0341,2.0577,2.074,2.074,2.074,2.0578,2.0238,1.965,1.8826,1.7737,1.8074,1.7727,1.683,1.6613,1.6208,1.5751,1.5308,1.5124,1.5081,1.5112,1.5121,1.5199,1.603,1.5443,1.4457]}]]